<?xml version="1.0" encoding="UTF-8" standalone="no" ?>
<gpx xmlns="http://www.topografix.com/GPX/1/1" xmlns:xsi="http://www.w3.org/2001/XMLSchema-instance" xsi:schemaLocation="http://www.topografix.com/GPX/1/1 http://www.topografix.com/GPX/1/1/gpx.xsd" version="1.1" creator="VisuGPX - https://www.visugpx.com">
  <metadata>
    <name>10247656-Tournon - St A</name>
  </metadata>
  <trk>
    <name><![CDATA[10247656-Tournon - St A]]></name>
    <trkseg>
      <trkpt lat="45.04875" lon="5.04961">
        <ele>169</ele>
        <time>2019-07-18T20:32:44Z</time>
      </trkpt>
      <trkpt lat="45.04866" lon="5.04959">
        <ele>169</ele>
        <time>2019-07-18T20:32:46Z</time>
      </trkpt>
      <trkpt lat="45.04871" lon="5.04888">
        <ele>168</ele>
        <time>2019-07-18T20:32:55Z</time>
      </trkpt>
      <trkpt lat="45.04883" lon="5.04867">
        <ele>168</ele>
        <time>2019-07-18T20:32:58Z</time>
      </trkpt>
      <trkpt lat="45.04889" lon="5.04854">
        <ele>168</ele>
        <time>2019-07-18T20:33:00Z</time>
      </trkpt>
      <trkpt lat="45.04898" lon="5.04779">
        <ele>167</ele>
        <time>2019-07-18T20:33:10Z</time>
      </trkpt>
      <trkpt lat="45.04906" lon="5.04766">
        <ele>167</ele>
        <time>2019-07-18T20:33:12Z</time>
      </trkpt>
      <trkpt lat="45.04923" lon="5.04759">
        <ele>167</ele>
        <time>2019-07-18T20:33:15Z</time>
      </trkpt>
      <trkpt lat="45.0499" lon="5.04743">
        <ele>168</ele>
        <time>2019-07-18T20:33:27Z</time>
      </trkpt>
      <trkpt lat="45.04996" lon="5.0474">
        <ele>168</ele>
        <time>2019-07-18T20:33:28Z</time>
      </trkpt>
      <trkpt lat="45.05021" lon="5.04742">
        <ele>168</ele>
        <time>2019-07-18T20:33:32Z</time>
      </trkpt>
      <trkpt lat="45.05023" lon="5.04745">
        <ele>168</ele>
        <time>2019-07-18T20:33:33Z</time>
      </trkpt>
      <trkpt lat="45.05029" lon="5.04748">
        <ele>168</ele>
        <time>2019-07-18T20:33:34Z</time>
      </trkpt>
      <trkpt lat="45.05035" lon="5.04745">
        <ele>168</ele>
        <time>2019-07-18T20:33:35Z</time>
      </trkpt>
      <trkpt lat="45.05039" lon="5.0474">
        <ele>169</ele>
        <time>2019-07-18T20:33:36Z</time>
      </trkpt>
      <trkpt lat="45.05041" lon="5.04734">
        <ele>169</ele>
        <time>2019-07-18T20:33:37Z</time>
      </trkpt>
      <trkpt lat="45.05041" lon="5.04727">
        <ele>169</ele>
        <time>2019-07-18T20:33:38Z</time>
      </trkpt>
      <trkpt lat="45.05039" lon="5.04721">
        <ele>169</ele>
        <time>2019-07-18T20:33:39Z</time>
      </trkpt>
      <trkpt lat="45.05035" lon="5.04716">
        <ele>169</ele>
        <time>2019-07-18T20:33:40Z</time>
      </trkpt>
      <trkpt lat="45.05029" lon="5.04714">
        <ele>168</ele>
        <time>2019-07-18T20:33:41Z</time>
      </trkpt>
      <trkpt lat="45.05025" lon="5.04702">
        <ele>168</ele>
        <time>2019-07-18T20:33:42Z</time>
      </trkpt>
      <trkpt lat="45.05003" lon="5.04474">
        <ele>167</ele>
        <time>2019-07-18T20:34:11Z</time>
      </trkpt>
      <trkpt lat="45.05003" lon="5.04336">
        <ele>165</ele>
        <time>2019-07-18T20:34:29Z</time>
      </trkpt>
      <trkpt lat="45.05016" lon="5.04115">
        <ele>165</ele>
        <time>2019-07-18T20:34:57Z</time>
      </trkpt>
      <trkpt lat="45.05015" lon="5.04077">
        <ele>165</ele>
        <time>2019-07-18T20:35:01Z</time>
      </trkpt>
      <trkpt lat="45.05011" lon="5.04045">
        <ele>165</ele>
        <time>2019-07-18T20:35:06Z</time>
      </trkpt>
      <trkpt lat="45.04957" lon="5.03854">
        <ele>165</ele>
        <time>2019-07-18T20:35:31Z</time>
      </trkpt>
      <trkpt lat="45.04943" lon="5.03831">
        <ele>165</ele>
        <time>2019-07-18T20:35:35Z</time>
      </trkpt>
      <trkpt lat="45.0494" lon="5.03822">
        <ele>165</ele>
        <time>2019-07-18T20:35:36Z</time>
      </trkpt>
      <trkpt lat="45.04926" lon="5.03775">
        <ele>165</ele>
        <time>2019-07-18T20:35:43Z</time>
      </trkpt>
      <trkpt lat="45.05031" lon="5.03449">
        <ele>163</ele>
        <time>2019-07-18T20:36:28Z</time>
      </trkpt>
      <trkpt lat="45.05064" lon="5.03356">
        <ele>163</ele>
        <time>2019-07-18T20:36:41Z</time>
      </trkpt>
      <trkpt lat="45.05112" lon="5.03232">
        <ele>163</ele>
        <time>2019-07-18T20:36:59Z</time>
      </trkpt>
      <trkpt lat="45.05127" lon="5.03198">
        <ele>163</ele>
        <time>2019-07-18T20:37:04Z</time>
      </trkpt>
      <trkpt lat="45.05145" lon="5.03167">
        <ele>163</ele>
        <time>2019-07-18T20:37:09Z</time>
      </trkpt>
      <trkpt lat="45.05251" lon="5.03002">
        <ele>163</ele>
        <time>2019-07-18T20:37:37Z</time>
      </trkpt>
      <trkpt lat="45.05329" lon="5.02804">
        <ele>165</ele>
        <time>2019-07-18T20:38:05Z</time>
      </trkpt>
      <trkpt lat="45.05376" lon="5.02719">
        <ele>164</ele>
        <time>2019-07-18T20:38:19Z</time>
      </trkpt>
      <trkpt lat="45.05424" lon="5.02476">
        <ele>164</ele>
        <time>2019-07-18T20:38:51Z</time>
      </trkpt>
      <trkpt lat="45.05417" lon="5.02357">
        <ele>164</ele>
        <time>2019-07-18T20:39:06Z</time>
      </trkpt>
      <trkpt lat="45.05424" lon="5.02271">
        <ele>166</ele>
        <time>2019-07-18T20:39:17Z</time>
      </trkpt>
      <trkpt lat="45.05442" lon="5.022">
        <ele>165</ele>
        <time>2019-07-18T20:39:26Z</time>
      </trkpt>
      <trkpt lat="45.05453" lon="5.02181">
        <ele>165</ele>
        <time>2019-07-18T20:39:29Z</time>
      </trkpt>
      <trkpt lat="45.05459" lon="5.02176">
        <ele>165</ele>
        <time>2019-07-18T20:39:30Z</time>
      </trkpt>
      <trkpt lat="45.05462" lon="5.02167">
        <ele>165</ele>
        <time>2019-07-18T20:39:32Z</time>
      </trkpt>
      <trkpt lat="45.05461" lon="5.02158">
        <ele>165</ele>
        <time>2019-07-18T20:39:33Z</time>
      </trkpt>
      <trkpt lat="45.05465" lon="5.0213">
        <ele>164</ele>
        <time>2019-07-18T20:39:36Z</time>
      </trkpt>
      <trkpt lat="45.05485" lon="5.02067">
        <ele>164</ele>
        <time>2019-07-18T20:39:45Z</time>
      </trkpt>
      <trkpt lat="45.05493" lon="5.02057">
        <ele>164</ele>
        <time>2019-07-18T20:39:47Z</time>
      </trkpt>
      <trkpt lat="45.055" lon="5.02056">
        <ele>164</ele>
        <time>2019-07-18T20:39:48Z</time>
      </trkpt>
      <trkpt lat="45.05506" lon="5.02048">
        <ele>164</ele>
        <time>2019-07-18T20:39:50Z</time>
      </trkpt>
      <trkpt lat="45.05507" lon="5.02033">
        <ele>164</ele>
        <time>2019-07-18T20:39:52Z</time>
      </trkpt>
      <trkpt lat="45.05502" lon="5.02024">
        <ele>164</ele>
        <time>2019-07-18T20:39:53Z</time>
      </trkpt>
      <trkpt lat="45.0551" lon="5.0191">
        <ele>165</ele>
        <time>2019-07-18T20:40:07Z</time>
      </trkpt>
      <trkpt lat="45.05518" lon="5.01814">
        <ele>164</ele>
        <time>2019-07-18T20:40:20Z</time>
      </trkpt>
      <trkpt lat="45.05541" lon="5.01717">
        <ele>162</ele>
        <time>2019-07-18T20:40:32Z</time>
      </trkpt>
      <trkpt lat="45.05562" lon="5.01656">
        <ele>163</ele>
        <time>2019-07-18T20:40:41Z</time>
      </trkpt>
      <trkpt lat="45.05574" lon="5.0161">
        <ele>162</ele>
        <time>2019-07-18T20:40:47Z</time>
      </trkpt>
      <trkpt lat="45.0562" lon="5.01321">
        <ele>162</ele>
        <time>2019-07-18T20:41:24Z</time>
      </trkpt>
      <trkpt lat="45.05638" lon="5.0124">
        <ele>161</ele>
        <time>2019-07-18T20:41:35Z</time>
      </trkpt>
      <trkpt lat="45.05438" lon="5.0129">
        <ele>160</ele>
        <time>2019-07-18T20:42:11Z</time>
      </trkpt>
      <trkpt lat="45.05407" lon="5.0129">
        <ele>159</ele>
        <time>2019-07-18T20:42:17Z</time>
      </trkpt>
      <trkpt lat="45.05255" lon="5.01256">
        <ele>160</ele>
        <time>2019-07-18T20:42:44Z</time>
      </trkpt>
      <trkpt lat="45.05298" lon="5.01171">
        <ele>161</ele>
        <time>2019-07-18T20:42:57Z</time>
      </trkpt>
      <trkpt lat="45.05334" lon="5.01116">
        <ele>160</ele>
        <time>2019-07-18T20:43:07Z</time>
      </trkpt>
      <trkpt lat="45.05385" lon="5.01024">
        <ele>161</ele>
        <time>2019-07-18T20:43:21Z</time>
      </trkpt>
      <trkpt lat="45.05403" lon="5.00974">
        <ele>161</ele>
        <time>2019-07-18T20:43:28Z</time>
      </trkpt>
      <trkpt lat="45.05406" lon="5.00949">
        <ele>161</ele>
        <time>2019-07-18T20:43:32Z</time>
      </trkpt>
      <trkpt lat="45.05406" lon="5.00914">
        <ele>161</ele>
        <time>2019-07-18T20:43:36Z</time>
      </trkpt>
      <trkpt lat="45.05418" lon="5.00797">
        <ele>160</ele>
        <time>2019-07-18T20:43:51Z</time>
      </trkpt>
      <trkpt lat="45.05421" lon="5.00736">
        <ele>159</ele>
        <time>2019-07-18T20:43:58Z</time>
      </trkpt>
      <trkpt lat="45.05434" lon="5.00561">
        <ele>159</ele>
        <time>2019-07-18T20:44:21Z</time>
      </trkpt>
      <trkpt lat="45.05434" lon="5.00526">
        <ele>159</ele>
        <time>2019-07-18T20:44:25Z</time>
      </trkpt>
      <trkpt lat="45.05459" lon="5.00294">
        <ele>158</ele>
        <time>2019-07-18T20:44:54Z</time>
      </trkpt>
      <trkpt lat="45.05493" lon="5.00136">
        <ele>158</ele>
        <time>2019-07-18T20:45:15Z</time>
      </trkpt>
      <trkpt lat="45.05502" lon="5.00072">
        <ele>158</ele>
        <time>2019-07-18T20:45:23Z</time>
      </trkpt>
      <trkpt lat="45.05506" lon="5.00027">
        <ele>159</ele>
        <time>2019-07-18T20:45:29Z</time>
      </trkpt>
      <trkpt lat="45.055" lon="4.99919">
        <ele>158</ele>
        <time>2019-07-18T20:45:43Z</time>
      </trkpt>
      <trkpt lat="45.05503" lon="4.99809">
        <ele>158</ele>
        <time>2019-07-18T20:45:57Z</time>
      </trkpt>
      <trkpt lat="45.055" lon="4.99696">
        <ele>157</ele>
        <time>2019-07-18T20:46:11Z</time>
      </trkpt>
      <trkpt lat="45.05525" lon="4.99507">
        <ele>156</ele>
        <time>2019-07-18T20:46:35Z</time>
      </trkpt>
      <trkpt lat="45.05526" lon="4.99468">
        <ele>156</ele>
        <time>2019-07-18T20:46:40Z</time>
      </trkpt>
      <trkpt lat="45.05539" lon="4.99397">
        <ele>156</ele>
        <time>2019-07-18T20:46:49Z</time>
      </trkpt>
      <trkpt lat="45.05558" lon="4.99274">
        <ele>156</ele>
        <time>2019-07-18T20:47:05Z</time>
      </trkpt>
      <trkpt lat="45.05569" lon="4.99161">
        <ele>157</ele>
        <time>2019-07-18T20:47:19Z</time>
      </trkpt>
      <trkpt lat="45.05566" lon="4.9907">
        <ele>158</ele>
        <time>2019-07-18T20:47:31Z</time>
      </trkpt>
      <trkpt lat="45.05549" lon="4.98947">
        <ele>156</ele>
        <time>2019-07-18T20:47:46Z</time>
      </trkpt>
      <trkpt lat="45.05526" lon="4.98871">
        <ele>156</ele>
        <time>2019-07-18T20:47:57Z</time>
      </trkpt>
      <trkpt lat="45.05517" lon="4.98691">
        <ele>156</ele>
        <time>2019-07-18T20:48:20Z</time>
      </trkpt>
      <trkpt lat="45.05517" lon="4.98583">
        <ele>155</ele>
        <time>2019-07-18T20:48:33Z</time>
      </trkpt>
      <trkpt lat="45.05534" lon="4.98418">
        <ele>155</ele>
        <time>2019-07-18T20:48:54Z</time>
      </trkpt>
      <trkpt lat="45.05557" lon="4.9825">
        <ele>156</ele>
        <time>2019-07-18T20:49:16Z</time>
      </trkpt>
      <trkpt lat="45.05605" lon="4.98071">
        <ele>155</ele>
        <time>2019-07-18T20:49:40Z</time>
      </trkpt>
      <trkpt lat="45.0564" lon="4.97908">
        <ele>155</ele>
        <time>2019-07-18T20:50:01Z</time>
      </trkpt>
      <trkpt lat="45.05648" lon="4.97743">
        <ele>153</ele>
        <time>2019-07-18T20:50:22Z</time>
      </trkpt>
      <trkpt lat="45.0574" lon="4.97108">
        <ele>152</ele>
        <time>2019-07-18T20:51:43Z</time>
      </trkpt>
      <trkpt lat="45.05758" lon="4.96941">
        <ele>157</ele>
        <time>2019-07-18T20:52:05Z</time>
      </trkpt>
      <trkpt lat="45.05763" lon="4.96914">
        <ele>158</ele>
        <time>2019-07-18T20:52:08Z</time>
      </trkpt>
      <trkpt lat="45.05713" lon="4.96623">
        <ele>155</ele>
        <time>2019-07-18T20:52:46Z</time>
      </trkpt>
      <trkpt lat="45.05698" lon="4.96514">
        <ele>155</ele>
        <time>2019-07-18T20:53:00Z</time>
      </trkpt>
      <trkpt lat="45.05662" lon="4.96363">
        <ele>152</ele>
        <time>2019-07-18T20:53:20Z</time>
      </trkpt>
      <trkpt lat="45.05636" lon="4.96269">
        <ele>150</ele>
        <time>2019-07-18T20:53:32Z</time>
      </trkpt>
      <trkpt lat="45.05607" lon="4.96148">
        <ele>151</ele>
        <time>2019-07-18T20:53:48Z</time>
      </trkpt>
      <trkpt lat="45.05586" lon="4.95962">
        <ele>149</ele>
        <time>2019-07-18T20:54:12Z</time>
      </trkpt>
      <trkpt lat="45.0553" lon="4.95652">
        <ele>148</ele>
        <time>2019-07-18T20:54:52Z</time>
      </trkpt>
      <trkpt lat="45.05516" lon="4.95555">
        <ele>147</ele>
        <time>2019-07-18T20:55:05Z</time>
      </trkpt>
      <trkpt lat="45.05506" lon="4.95501">
        <ele>147</ele>
        <time>2019-07-18T20:55:12Z</time>
      </trkpt>
      <trkpt lat="45.05495" lon="4.95442">
        <ele>148</ele>
        <time>2019-07-18T20:55:19Z</time>
      </trkpt>
      <trkpt lat="45.05467" lon="4.95275">
        <ele>149</ele>
        <time>2019-07-18T20:55:41Z</time>
      </trkpt>
      <trkpt lat="45.0545" lon="4.95218">
        <ele>148</ele>
        <time>2019-07-18T20:55:49Z</time>
      </trkpt>
      <trkpt lat="45.05428" lon="4.95173">
        <ele>147</ele>
        <time>2019-07-18T20:55:56Z</time>
      </trkpt>
      <trkpt lat="45.05401" lon="4.95136">
        <ele>146</ele>
        <time>2019-07-18T20:56:02Z</time>
      </trkpt>
      <trkpt lat="45.05382" lon="4.95117">
        <ele>145</ele>
        <time>2019-07-18T20:56:07Z</time>
      </trkpt>
      <trkpt lat="45.05386" lon="4.95048">
        <ele>144</ele>
        <time>2019-07-18T20:56:15Z</time>
      </trkpt>
      <trkpt lat="45.05357" lon="4.94953">
        <ele>146</ele>
        <time>2019-07-18T20:56:28Z</time>
      </trkpt>
      <trkpt lat="45.0535" lon="4.94943">
        <ele>146</ele>
        <time>2019-07-18T20:56:30Z</time>
      </trkpt>
      <trkpt lat="45.05328" lon="4.94922">
        <ele>145</ele>
        <time>2019-07-18T20:56:35Z</time>
      </trkpt>
      <trkpt lat="45.05293" lon="4.9488">
        <ele>145</ele>
        <time>2019-07-18T20:56:43Z</time>
      </trkpt>
      <trkpt lat="45.05276" lon="4.94846">
        <ele>146</ele>
        <time>2019-07-18T20:56:48Z</time>
      </trkpt>
      <trkpt lat="45.05269" lon="4.94806">
        <ele>148</ele>
        <time>2019-07-18T20:56:53Z</time>
      </trkpt>
      <trkpt lat="45.05267" lon="4.94784">
        <ele>149</ele>
        <time>2019-07-18T20:56:56Z</time>
      </trkpt>
      <trkpt lat="45.05264" lon="4.94773">
        <ele>150</ele>
        <time>2019-07-18T20:56:58Z</time>
      </trkpt>
      <trkpt lat="45.0526" lon="4.94769">
        <ele>150</ele>
        <time>2019-07-18T20:56:58Z</time>
      </trkpt>
      <trkpt lat="45.05254" lon="4.94766">
        <ele>150</ele>
        <time>2019-07-18T20:57:00Z</time>
      </trkpt>
      <trkpt lat="45.05248" lon="4.94767">
        <ele>150</ele>
        <time>2019-07-18T20:57:01Z</time>
      </trkpt>
      <trkpt lat="45.05214" lon="4.94626">
        <ele>155</ele>
        <time>2019-07-18T20:57:19Z</time>
      </trkpt>
      <trkpt lat="45.05206" lon="4.94528">
        <ele>158</ele>
        <time>2019-07-18T20:57:32Z</time>
      </trkpt>
      <trkpt lat="45.05198" lon="4.94464">
        <ele>160</ele>
        <time>2019-07-18T20:57:40Z</time>
      </trkpt>
      <trkpt lat="45.05189" lon="4.94415">
        <ele>161</ele>
        <time>2019-07-18T20:57:46Z</time>
      </trkpt>
      <trkpt lat="45.05164" lon="4.94305">
        <ele>157</ele>
        <time>2019-07-18T20:58:01Z</time>
      </trkpt>
      <trkpt lat="45.05157" lon="4.94268">
        <ele>156</ele>
        <time>2019-07-18T20:58:06Z</time>
      </trkpt>
      <trkpt lat="45.05153" lon="4.94216">
        <ele>157</ele>
        <time>2019-07-18T20:58:12Z</time>
      </trkpt>
      <trkpt lat="45.05152" lon="4.9404">
        <ele>159</ele>
        <time>2019-07-18T20:58:34Z</time>
      </trkpt>
      <trkpt lat="45.05151" lon="4.93967">
        <ele>158</ele>
        <time>2019-07-18T20:58:44Z</time>
      </trkpt>
      <trkpt lat="45.05162" lon="4.93933">
        <ele>158</ele>
        <time>2019-07-18T20:58:48Z</time>
      </trkpt>
      <trkpt lat="45.05164" lon="4.93914">
        <ele>158</ele>
        <time>2019-07-18T20:58:51Z</time>
      </trkpt>
      <trkpt lat="45.05188" lon="4.93798">
        <ele>157</ele>
        <time>2019-07-18T20:59:06Z</time>
      </trkpt>
      <trkpt lat="45.05201" lon="4.93742">
        <ele>156</ele>
        <time>2019-07-18T20:59:13Z</time>
      </trkpt>
      <trkpt lat="45.05217" lon="4.93681">
        <ele>155</ele>
        <time>2019-07-18T20:59:21Z</time>
      </trkpt>
      <trkpt lat="45.05331" lon="4.93285">
        <ele>153</ele>
        <time>2019-07-18T21:00:15Z</time>
      </trkpt>
      <trkpt lat="45.0535" lon="4.93234">
        <ele>154</ele>
        <time>2019-07-18T21:00:22Z</time>
      </trkpt>
      <trkpt lat="45.05386" lon="4.93117">
        <ele>154</ele>
        <time>2019-07-18T21:00:38Z</time>
      </trkpt>
      <trkpt lat="45.05407" lon="4.93033">
        <ele>153</ele>
        <time>2019-07-18T21:00:50Z</time>
      </trkpt>
      <trkpt lat="45.0545" lon="4.92828">
        <ele>153</ele>
        <time>2019-07-18T21:01:17Z</time>
      </trkpt>
      <trkpt lat="45.05452" lon="4.92809">
        <ele>153</ele>
        <time>2019-07-18T21:01:19Z</time>
      </trkpt>
      <trkpt lat="45.05461" lon="4.92816">
        <ele>153</ele>
        <time>2019-07-18T21:01:21Z</time>
      </trkpt>
      <trkpt lat="45.05467" lon="4.92817">
        <ele>153</ele>
        <time>2019-07-18T21:01:22Z</time>
      </trkpt>
      <trkpt lat="45.05473" lon="4.92815">
        <ele>153</ele>
        <time>2019-07-18T21:01:23Z</time>
      </trkpt>
      <trkpt lat="45.05478" lon="4.92811">
        <ele>153</ele>
        <time>2019-07-18T21:01:24Z</time>
      </trkpt>
      <trkpt lat="45.05484" lon="4.92799">
        <ele>153</ele>
        <time>2019-07-18T21:01:26Z</time>
      </trkpt>
      <trkpt lat="45.05485" lon="4.92792">
        <ele>153</ele>
        <time>2019-07-18T21:01:27Z</time>
      </trkpt>
      <trkpt lat="45.05484" lon="4.9278">
        <ele>153</ele>
        <time>2019-07-18T21:01:28Z</time>
      </trkpt>
      <trkpt lat="45.05496" lon="4.92751">
        <ele>153</ele>
        <time>2019-07-18T21:01:32Z</time>
      </trkpt>
      <trkpt lat="45.05497" lon="4.92735">
        <ele>153</ele>
        <time>2019-07-18T21:01:34Z</time>
      </trkpt>
      <trkpt lat="45.05497" lon="4.92716">
        <ele>154</ele>
        <time>2019-07-18T21:01:37Z</time>
      </trkpt>
      <trkpt lat="45.05498" lon="4.92689">
        <ele>155</ele>
        <time>2019-07-18T21:01:40Z</time>
      </trkpt>
      <trkpt lat="45.05503" lon="4.92666">
        <ele>156</ele>
        <time>2019-07-18T21:01:43Z</time>
      </trkpt>
      <trkpt lat="45.05526" lon="4.92597">
        <ele>158</ele>
        <time>2019-07-18T21:01:53Z</time>
      </trkpt>
      <trkpt lat="45.05539" lon="4.92571">
        <ele>158</ele>
        <time>2019-07-18T21:01:57Z</time>
      </trkpt>
      <trkpt lat="45.05553" lon="4.92552">
        <ele>158</ele>
        <time>2019-07-18T21:02:00Z</time>
      </trkpt>
      <trkpt lat="45.05567" lon="4.92544">
        <ele>158</ele>
        <time>2019-07-18T21:02:03Z</time>
      </trkpt>
      <trkpt lat="45.0559" lon="4.92537">
        <ele>159</ele>
        <time>2019-07-18T21:02:07Z</time>
      </trkpt>
      <trkpt lat="45.05674" lon="4.92526">
        <ele>157</ele>
        <time>2019-07-18T21:02:22Z</time>
      </trkpt>
      <trkpt lat="45.05684" lon="4.92522">
        <ele>157</ele>
        <time>2019-07-18T21:02:24Z</time>
      </trkpt>
      <trkpt lat="45.05689" lon="4.92516">
        <ele>157</ele>
        <time>2019-07-18T21:02:25Z</time>
      </trkpt>
      <trkpt lat="45.057" lon="4.9249">
        <ele>156</ele>
        <time>2019-07-18T21:02:29Z</time>
      </trkpt>
      <trkpt lat="45.05711" lon="4.92457">
        <ele>156</ele>
        <time>2019-07-18T21:02:34Z</time>
      </trkpt>
      <trkpt lat="45.05722" lon="4.92407">
        <ele>157</ele>
        <time>2019-07-18T21:02:40Z</time>
      </trkpt>
      <trkpt lat="45.05726" lon="4.9237">
        <ele>157</ele>
        <time>2019-07-18T21:02:45Z</time>
      </trkpt>
      <trkpt lat="45.05733" lon="4.92077">
        <ele>155</ele>
        <time>2019-07-18T21:03:22Z</time>
      </trkpt>
      <trkpt lat="45.05739" lon="4.9201">
        <ele>155</ele>
        <time>2019-07-18T21:03:30Z</time>
      </trkpt>
      <trkpt lat="45.05777" lon="4.91865">
        <ele>157</ele>
        <time>2019-07-18T21:03:50Z</time>
      </trkpt>
      <trkpt lat="45.05804" lon="4.91694">
        <ele>157</ele>
        <time>2019-07-18T21:04:12Z</time>
      </trkpt>
      <trkpt lat="45.0581" lon="4.91669">
        <ele>157</ele>
        <time>2019-07-18T21:04:15Z</time>
      </trkpt>
      <trkpt lat="45.05827" lon="4.91628">
        <ele>158</ele>
        <time>2019-07-18T21:04:21Z</time>
      </trkpt>
      <trkpt lat="45.05859" lon="4.91539">
        <ele>158</ele>
        <time>2019-07-18T21:04:34Z</time>
      </trkpt>
      <trkpt lat="45.05908" lon="4.91387">
        <ele>160</ele>
        <time>2019-07-18T21:04:55Z</time>
      </trkpt>
      <trkpt lat="45.05938" lon="4.91302">
        <ele>161</ele>
        <time>2019-07-18T21:05:07Z</time>
      </trkpt>
      <trkpt lat="45.05982" lon="4.91103">
        <ele>159</ele>
        <time>2019-07-18T21:05:33Z</time>
      </trkpt>
      <trkpt lat="45.05987" lon="4.91073">
        <ele>160</ele>
        <time>2019-07-18T21:05:37Z</time>
      </trkpt>
      <trkpt lat="45.05991" lon="4.9096">
        <ele>161</ele>
        <time>2019-07-18T21:05:51Z</time>
      </trkpt>
      <trkpt lat="45.05993" lon="4.90946">
        <ele>161</ele>
        <time>2019-07-18T21:05:53Z</time>
      </trkpt>
      <trkpt lat="45.06037" lon="4.90735">
        <ele>158</ele>
        <time>2019-07-18T21:06:20Z</time>
      </trkpt>
      <trkpt lat="45.0604" lon="4.90717">
        <ele>158</ele>
        <time>2019-07-18T21:06:23Z</time>
      </trkpt>
      <trkpt lat="45.06044" lon="4.90676">
        <ele>157</ele>
        <time>2019-07-18T21:06:28Z</time>
      </trkpt>
      <trkpt lat="45.06051" lon="4.90668">
        <ele>157</ele>
        <time>2019-07-18T21:06:29Z</time>
      </trkpt>
      <trkpt lat="45.06056" lon="4.90653">
        <ele>158</ele>
        <time>2019-07-18T21:06:31Z</time>
      </trkpt>
      <trkpt lat="45.06057" lon="4.90644">
        <ele>158</ele>
        <time>2019-07-18T21:06:33Z</time>
      </trkpt>
      <trkpt lat="45.06055" lon="4.90635">
        <ele>158</ele>
        <time>2019-07-18T21:06:34Z</time>
      </trkpt>
      <trkpt lat="45.06061" lon="4.90619">
        <ele>158</ele>
        <time>2019-07-18T21:06:36Z</time>
      </trkpt>
      <trkpt lat="45.06083" lon="4.90582">
        <ele>159</ele>
        <time>2019-07-18T21:06:42Z</time>
      </trkpt>
      <trkpt lat="45.061" lon="4.90546">
        <ele>159</ele>
        <time>2019-07-18T21:06:48Z</time>
      </trkpt>
      <trkpt lat="45.0612" lon="4.90502">
        <ele>158</ele>
        <time>2019-07-18T21:06:54Z</time>
      </trkpt>
      <trkpt lat="45.06139" lon="4.90458">
        <ele>159</ele>
        <time>2019-07-18T21:07:01Z</time>
      </trkpt>
      <trkpt lat="45.06294" lon="4.90013">
        <ele>157</ele>
        <time>2019-07-18T21:08:03Z</time>
      </trkpt>
      <trkpt lat="45.0642" lon="4.89776">
        <ele>157</ele>
        <time>2019-07-18T21:08:40Z</time>
      </trkpt>
      <trkpt lat="45.06483" lon="4.89639">
        <ele>157</ele>
        <time>2019-07-18T21:09:01Z</time>
      </trkpt>
      <trkpt lat="45.06543" lon="4.89365">
        <ele>156</ele>
        <time>2019-07-18T21:09:37Z</time>
      </trkpt>
      <trkpt lat="45.06564" lon="4.89172">
        <ele>157</ele>
        <time>2019-07-18T21:10:01Z</time>
      </trkpt>
      <trkpt lat="45.06572" lon="4.8913">
        <ele>156</ele>
        <time>2019-07-18T21:10:07Z</time>
      </trkpt>
      <trkpt lat="45.06588" lon="4.88998">
        <ele>156</ele>
        <time>2019-07-18T21:10:24Z</time>
      </trkpt>
      <trkpt lat="45.06591" lon="4.88955">
        <ele>155</ele>
        <time>2019-07-18T21:10:29Z</time>
      </trkpt>
      <trkpt lat="45.06619" lon="4.88726">
        <ele>155</ele>
        <time>2019-07-18T21:10:58Z</time>
      </trkpt>
      <trkpt lat="45.06665" lon="4.88317">
        <ele>155</ele>
        <time>2019-07-18T21:11:50Z</time>
      </trkpt>
      <trkpt lat="45.06688" lon="4.88213">
        <ele>152</ele>
        <time>2019-07-18T21:12:04Z</time>
      </trkpt>
      <trkpt lat="45.06763" lon="4.87935">
        <ele>148</ele>
        <time>2019-07-18T21:12:41Z</time>
      </trkpt>
      <trkpt lat="45.06813" lon="4.87728">
        <ele>147</ele>
        <time>2019-07-18T21:13:09Z</time>
      </trkpt>
      <trkpt lat="45.06821" lon="4.87611">
        <ele>144</ele>
        <time>2019-07-18T21:13:24Z</time>
      </trkpt>
      <trkpt lat="45.06847" lon="4.87527">
        <ele>144</ele>
        <time>2019-07-18T21:13:35Z</time>
      </trkpt>
      <trkpt lat="45.06857" lon="4.87504">
        <ele>143</ele>
        <time>2019-07-18T21:13:39Z</time>
      </trkpt>
      <trkpt lat="45.06863" lon="4.87501">
        <ele>143</ele>
        <time>2019-07-18T21:13:40Z</time>
      </trkpt>
      <trkpt lat="45.06867" lon="4.87497">
        <ele>143</ele>
        <time>2019-07-18T21:13:41Z</time>
      </trkpt>
      <trkpt lat="45.0687" lon="4.87491">
        <ele>143</ele>
        <time>2019-07-18T21:13:42Z</time>
      </trkpt>
      <trkpt lat="45.06871" lon="4.87484">
        <ele>143</ele>
        <time>2019-07-18T21:13:42Z</time>
      </trkpt>
      <trkpt lat="45.06871" lon="4.87477">
        <ele>143</ele>
        <time>2019-07-18T21:13:43Z</time>
      </trkpt>
      <trkpt lat="45.06867" lon="4.87466">
        <ele>143</ele>
        <time>2019-07-18T21:13:45Z</time>
      </trkpt>
      <trkpt lat="45.06858" lon="4.8746">
        <ele>143</ele>
        <time>2019-07-18T21:13:47Z</time>
      </trkpt>
      <trkpt lat="45.0685" lon="4.87428">
        <ele>143</ele>
        <time>2019-07-18T21:13:51Z</time>
      </trkpt>
      <trkpt lat="45.0685" lon="4.87395">
        <ele>143</ele>
        <time>2019-07-18T21:13:55Z</time>
      </trkpt>
      <trkpt lat="45.06859" lon="4.87335">
        <ele>143</ele>
        <time>2019-07-18T21:14:03Z</time>
      </trkpt>
      <trkpt lat="45.0687" lon="4.87278">
        <ele>143</ele>
        <time>2019-07-18T21:14:10Z</time>
      </trkpt>
      <trkpt lat="45.06882" lon="4.87231">
        <ele>143</ele>
        <time>2019-07-18T21:14:17Z</time>
      </trkpt>
      <trkpt lat="45.06899" lon="4.87184">
        <ele>143</ele>
        <time>2019-07-18T21:14:23Z</time>
      </trkpt>
      <trkpt lat="45.06972" lon="4.87047">
        <ele>140</ele>
        <time>2019-07-18T21:14:45Z</time>
      </trkpt>
      <trkpt lat="45.06992" lon="4.86991">
        <ele>139</ele>
        <time>2019-07-18T21:14:53Z</time>
      </trkpt>
      <trkpt lat="45.07019" lon="4.86872">
        <ele>135</ele>
        <time>2019-07-18T21:15:08Z</time>
      </trkpt>
      <trkpt lat="45.07027" lon="4.86831">
        <ele>134</ele>
        <time>2019-07-18T21:15:14Z</time>
      </trkpt>
      <trkpt lat="45.07029" lon="4.86772">
        <ele>134</ele>
        <time>2019-07-18T21:15:21Z</time>
      </trkpt>
      <trkpt lat="45.07035" lon="4.86719">
        <ele>133</ele>
        <time>2019-07-18T21:15:28Z</time>
      </trkpt>
      <trkpt lat="45.07054" lon="4.86666">
        <ele>132</ele>
        <time>2019-07-18T21:15:35Z</time>
      </trkpt>
      <trkpt lat="45.07073" lon="4.86634">
        <ele>132</ele>
        <time>2019-07-18T21:15:41Z</time>
      </trkpt>
      <trkpt lat="45.07093" lon="4.86591">
        <ele>131</ele>
        <time>2019-07-18T21:15:47Z</time>
      </trkpt>
      <trkpt lat="45.07094" lon="4.86546">
        <ele>131</ele>
        <time>2019-07-18T21:15:53Z</time>
      </trkpt>
      <trkpt lat="45.07091" lon="4.86529">
        <ele>131</ele>
        <time>2019-07-18T21:15:55Z</time>
      </trkpt>
      <trkpt lat="45.07083" lon="4.86507">
        <ele>131</ele>
        <time>2019-07-18T21:15:58Z</time>
      </trkpt>
      <trkpt lat="45.07069" lon="4.86486">
        <ele>131</ele>
        <time>2019-07-18T21:16:02Z</time>
      </trkpt>
      <trkpt lat="45.07063" lon="4.86469">
        <ele>130</ele>
        <time>2019-07-18T21:16:04Z</time>
      </trkpt>
      <trkpt lat="45.0706" lon="4.86455">
        <ele>130</ele>
        <time>2019-07-18T21:16:06Z</time>
      </trkpt>
      <trkpt lat="45.07064" lon="4.86441">
        <ele>130</ele>
        <time>2019-07-18T21:16:08Z</time>
      </trkpt>
      <trkpt lat="45.07065" lon="4.86432">
        <ele>130</ele>
        <time>2019-07-18T21:16:09Z</time>
      </trkpt>
      <trkpt lat="45.07065" lon="4.86423">
        <ele>130</ele>
        <time>2019-07-18T21:16:10Z</time>
      </trkpt>
      <trkpt lat="45.07062" lon="4.86408">
        <ele>130</ele>
        <time>2019-07-18T21:16:12Z</time>
      </trkpt>
      <trkpt lat="45.07056" lon="4.86394">
        <ele>129</ele>
        <time>2019-07-18T21:16:14Z</time>
      </trkpt>
      <trkpt lat="45.07048" lon="4.86385">
        <ele>129</ele>
        <time>2019-07-18T21:16:16Z</time>
      </trkpt>
      <trkpt lat="45.07037" lon="4.86379">
        <ele>129</ele>
        <time>2019-07-18T21:16:18Z</time>
      </trkpt>
      <trkpt lat="45.07031" lon="4.86354">
        <ele>129</ele>
        <time>2019-07-18T21:16:21Z</time>
      </trkpt>
      <trkpt lat="45.07052" lon="4.86309">
        <ele>129</ele>
        <time>2019-07-18T21:16:28Z</time>
      </trkpt>
      <trkpt lat="45.07062" lon="4.86282">
        <ele>129</ele>
        <time>2019-07-18T21:16:32Z</time>
      </trkpt>
      <trkpt lat="45.0707" lon="4.86254">
        <ele>129</ele>
        <time>2019-07-18T21:16:36Z</time>
      </trkpt>
      <trkpt lat="45.07073" lon="4.86234">
        <ele>129</ele>
        <time>2019-07-18T21:16:38Z</time>
      </trkpt>
      <trkpt lat="45.07076" lon="4.86199">
        <ele>128</ele>
        <time>2019-07-18T21:16:43Z</time>
      </trkpt>
      <trkpt lat="45.07077" lon="4.86164">
        <ele>128</ele>
        <time>2019-07-18T21:16:47Z</time>
      </trkpt>
      <trkpt lat="45.07067" lon="4.85987">
        <ele>129</ele>
        <time>2019-07-18T21:17:09Z</time>
      </trkpt>
      <trkpt lat="45.07067" lon="4.85929">
        <ele>128</ele>
        <time>2019-07-18T21:17:17Z</time>
      </trkpt>
      <trkpt lat="45.07077" lon="4.85849">
        <ele>128</ele>
        <time>2019-07-18T21:17:27Z</time>
      </trkpt>
      <trkpt lat="45.07088" lon="4.85834">
        <ele>128</ele>
        <time>2019-07-18T21:17:30Z</time>
      </trkpt>
      <trkpt lat="45.07093" lon="4.85831">
        <ele>128</ele>
        <time>2019-07-18T21:17:31Z</time>
      </trkpt>
      <trkpt lat="45.07097" lon="4.85823">
        <ele>128</ele>
        <time>2019-07-18T21:17:32Z</time>
      </trkpt>
      <trkpt lat="45.07096" lon="4.85813">
        <ele>128</ele>
        <time>2019-07-18T21:17:33Z</time>
      </trkpt>
      <trkpt lat="45.07092" lon="4.85805">
        <ele>128</ele>
        <time>2019-07-18T21:17:34Z</time>
      </trkpt>
      <trkpt lat="45.07089" lon="4.85803">
        <ele>128</ele>
        <time>2019-07-18T21:17:35Z</time>
      </trkpt>
      <trkpt lat="45.07083" lon="4.85786">
        <ele>127</ele>
        <time>2019-07-18T21:17:37Z</time>
      </trkpt>
      <trkpt lat="45.07086" lon="4.85759">
        <ele>127</ele>
        <time>2019-07-18T21:17:41Z</time>
      </trkpt>
      <trkpt lat="45.07091" lon="4.85608">
        <ele>124</ele>
        <time>2019-07-18T21:18:00Z</time>
      </trkpt>
      <trkpt lat="45.07098" lon="4.85501">
        <ele>124</ele>
        <time>2019-07-18T21:18:13Z</time>
      </trkpt>
      <trkpt lat="45.07093" lon="4.85405">
        <ele>123</ele>
        <time>2019-07-18T21:18:25Z</time>
      </trkpt>
      <trkpt lat="45.07089" lon="4.85231">
        <ele>121</ele>
        <time>2019-07-18T21:18:47Z</time>
      </trkpt>
      <trkpt lat="45.07077" lon="4.85078">
        <ele>121</ele>
        <time>2019-07-18T21:19:07Z</time>
      </trkpt>
      <trkpt lat="45.07078" lon="4.85051">
        <ele>121</ele>
        <time>2019-07-18T21:19:10Z</time>
      </trkpt>
      <trkpt lat="45.07086" lon="4.84996">
        <ele>121</ele>
        <time>2019-07-18T21:19:17Z</time>
      </trkpt>
      <trkpt lat="45.07087" lon="4.8497">
        <ele>121</ele>
        <time>2019-07-18T21:19:20Z</time>
      </trkpt>
      <trkpt lat="45.07084" lon="4.84952">
        <ele>121</ele>
        <time>2019-07-18T21:19:23Z</time>
      </trkpt>
      <trkpt lat="45.07069" lon="4.84896">
        <ele>121</ele>
        <time>2019-07-18T21:19:30Z</time>
      </trkpt>
      <trkpt lat="45.07055" lon="4.84828">
        <ele>122</ele>
        <time>2019-07-18T21:19:39Z</time>
      </trkpt>
      <trkpt lat="45.07051" lon="4.84798">
        <ele>122</ele>
        <time>2019-07-18T21:19:43Z</time>
      </trkpt>
      <trkpt lat="45.07042" lon="4.84709">
        <ele>121</ele>
        <time>2019-07-18T21:19:54Z</time>
      </trkpt>
      <trkpt lat="45.07021" lon="4.84606">
        <ele>120</ele>
        <time>2019-07-18T21:20:08Z</time>
      </trkpt>
      <trkpt lat="45.07019" lon="4.84578">
        <ele>120</ele>
        <time>2019-07-18T21:20:11Z</time>
      </trkpt>
      <trkpt lat="45.07039" lon="4.84361">
        <ele>121</ele>
        <time>2019-07-18T21:20:39Z</time>
      </trkpt>
      <trkpt lat="45.07039" lon="4.84343">
        <ele>121</ele>
        <time>2019-07-18T21:20:41Z</time>
      </trkpt>
      <trkpt lat="45.07044" lon="4.84339">
        <ele>121</ele>
        <time>2019-07-18T21:20:42Z</time>
      </trkpt>
      <trkpt lat="45.07046" lon="4.84328">
        <ele>121</ele>
        <time>2019-07-18T21:20:43Z</time>
      </trkpt>
      <trkpt lat="45.07043" lon="4.84322">
        <ele>121</ele>
        <time>2019-07-18T21:20:44Z</time>
      </trkpt>
      <trkpt lat="45.07039" lon="4.84319">
        <ele>121</ele>
        <time>2019-07-18T21:20:45Z</time>
      </trkpt>
      <trkpt lat="45.07034" lon="4.8432">
        <ele>121</ele>
        <time>2019-07-18T21:20:46Z</time>
      </trkpt>
      <trkpt lat="45.0703" lon="4.84325">
        <ele>121</ele>
        <time>2019-07-18T21:20:47Z</time>
      </trkpt>
      <trkpt lat="45.07029" lon="4.84335">
        <ele>121</ele>
        <time>2019-07-18T21:20:48Z</time>
      </trkpt>
      <trkpt lat="45.07022" lon="4.84338">
        <ele>121</ele>
        <time>2019-07-18T21:20:50Z</time>
      </trkpt>
      <trkpt lat="45.06882" lon="4.84348">
        <ele>121</ele>
        <time>2019-07-18T21:21:14Z</time>
      </trkpt>
      <trkpt lat="45.06871" lon="4.84343">
        <ele>121</ele>
        <time>2019-07-18T21:21:17Z</time>
      </trkpt>
      <trkpt lat="45.06906" lon="4.84217">
        <ele>121</ele>
        <time>2019-07-18T21:21:34Z</time>
      </trkpt>
      <trkpt lat="45.0682" lon="4.84166">
        <ele>123</ele>
        <time>2019-07-18T21:21:50Z</time>
      </trkpt>
      <trkpt lat="45.06565" lon="4.84009">
        <ele>119</ele>
        <time>2019-07-18T21:22:40Z</time>
      </trkpt>
      <trkpt lat="45.0656" lon="4.84004">
        <ele>119</ele>
        <time>2019-07-18T21:22:41Z</time>
      </trkpt>
      <trkpt lat="45.06549" lon="4.83998">
        <ele>119</ele>
        <time>2019-07-18T21:22:43Z</time>
      </trkpt>
      <trkpt lat="45.06548" lon="4.83993">
        <ele>119</ele>
        <time>2019-07-18T21:22:43Z</time>
      </trkpt>
      <trkpt lat="45.06543" lon="4.83985">
        <ele>120</ele>
        <time>2019-07-18T21:22:45Z</time>
      </trkpt>
      <trkpt lat="45.06536" lon="4.83983">
        <ele>120</ele>
        <time>2019-07-18T21:22:46Z</time>
      </trkpt>
      <trkpt lat="45.0653" lon="4.83987">
        <ele>120</ele>
        <time>2019-07-18T21:22:47Z</time>
      </trkpt>
      <trkpt lat="45.06526" lon="4.83996">
        <ele>120</ele>
        <time>2019-07-18T21:22:49Z</time>
      </trkpt>
      <trkpt lat="45.06525" lon="4.84001">
        <ele>120</ele>
        <time>2019-07-18T21:22:49Z</time>
      </trkpt>
      <trkpt lat="45.06517" lon="4.84014">
        <ele>120</ele>
        <time>2019-07-18T21:22:51Z</time>
      </trkpt>
      <trkpt lat="45.06459" lon="4.84066">
        <ele>120</ele>
        <time>2019-07-18T21:23:04Z</time>
      </trkpt>
      <trkpt lat="45.0642" lon="4.84103">
        <ele>120</ele>
        <time>2019-07-18T21:23:12Z</time>
      </trkpt>
      <trkpt lat="45.06424" lon="4.84119">
        <ele>120</ele>
        <time>2019-07-18T21:23:14Z</time>
      </trkpt>
      <trkpt lat="45.06424" lon="4.84128">
        <ele>120</ele>
        <time>2019-07-18T21:23:15Z</time>
      </trkpt>
      <trkpt lat="45.06427" lon="4.84106">
        <ele>120</ele>
        <time>2019-07-18T21:23:18Z</time>
      </trkpt>
      <trkpt lat="45.06438" lon="4.84087">
        <ele>120</ele>
        <time>2019-07-18T21:23:21Z</time>
      </trkpt>
      <trkpt lat="45.06517" lon="4.84014">
        <ele>120</ele>
        <time>2019-07-18T21:23:38Z</time>
      </trkpt>
      <trkpt lat="45.06529" lon="4.84012">
        <ele>120</ele>
        <time>2019-07-18T21:23:40Z</time>
      </trkpt>
      <trkpt lat="45.06538" lon="4.84017">
        <ele>119</ele>
        <time>2019-07-18T21:23:42Z</time>
      </trkpt>
      <trkpt lat="45.06544" lon="4.84014">
        <ele>119</ele>
        <time>2019-07-18T21:23:43Z</time>
      </trkpt>
      <trkpt lat="45.06565" lon="4.84009">
        <ele>119</ele>
        <time>2019-07-18T21:23:47Z</time>
      </trkpt>
      <trkpt lat="45.06568" lon="4.84">
        <ele>119</ele>
        <time>2019-07-18T21:23:48Z</time>
      </trkpt>
      <trkpt lat="45.06564" lon="4.83993">
        <ele>119</ele>
        <time>2019-07-18T21:23:49Z</time>
      </trkpt>
      <trkpt lat="45.06563" lon="4.83981">
        <ele>119</ele>
        <time>2019-07-18T21:23:51Z</time>
      </trkpt>
      <trkpt lat="45.06566" lon="4.8397">
        <ele>119</ele>
        <time>2019-07-18T21:23:52Z</time>
      </trkpt>
      <trkpt lat="45.06648" lon="4.83761">
        <ele>119</ele>
        <time>2019-07-18T21:24:22Z</time>
      </trkpt>
      <trkpt lat="45.06774" lon="4.83479">
        <ele>123</ele>
        <time>2019-07-18T21:25:04Z</time>
      </trkpt>
      <trkpt lat="45.06785" lon="4.83462">
        <ele>123</ele>
        <time>2019-07-18T21:25:07Z</time>
      </trkpt>
      <trkpt lat="45.06787" lon="4.83453">
        <ele>123</ele>
        <time>2019-07-18T21:25:08Z</time>
      </trkpt>
      <trkpt lat="45.06791" lon="4.8344">
        <ele>123</ele>
        <time>2019-07-18T21:25:10Z</time>
      </trkpt>
      <trkpt lat="45.06836" lon="4.83359">
        <ele>123</ele>
        <time>2019-07-18T21:25:23Z</time>
      </trkpt>
      <trkpt lat="45.06853" lon="4.83324">
        <ele>123</ele>
        <time>2019-07-18T21:25:28Z</time>
      </trkpt>
      <trkpt lat="45.0687" lon="4.83277">
        <ele>123</ele>
        <time>2019-07-18T21:25:35Z</time>
      </trkpt>
      <trkpt lat="45.0688" lon="4.83243">
        <ele>123</ele>
        <time>2019-07-18T21:25:39Z</time>
      </trkpt>
      <trkpt lat="45.06888" lon="4.83224">
        <ele>122</ele>
        <time>2019-07-18T21:25:42Z</time>
      </trkpt>
      <trkpt lat="45.06942" lon="4.83113">
        <ele>120</ele>
        <time>2019-07-18T21:25:59Z</time>
      </trkpt>
      <trkpt lat="45.06959" lon="4.83084">
        <ele>120</ele>
        <time>2019-07-18T21:26:04Z</time>
      </trkpt>
      <trkpt lat="45.07054" lon="4.82956">
        <ele>119</ele>
        <time>2019-07-18T21:26:27Z</time>
      </trkpt>
      <trkpt lat="45.0706" lon="4.82937">
        <ele>120</ele>
        <time>2019-07-18T21:26:30Z</time>
      </trkpt>
      <trkpt lat="45.07055" lon="4.82917">
        <ele>120</ele>
        <time>2019-07-18T21:26:33Z</time>
      </trkpt>
      <trkpt lat="45.07054" lon="4.82882">
        <ele>122</ele>
        <time>2019-07-18T21:26:37Z</time>
      </trkpt>
      <trkpt lat="45.07059" lon="4.82867">
        <ele>122</ele>
        <time>2019-07-18T21:26:39Z</time>
      </trkpt>
      <trkpt lat="45.0706" lon="4.82859">
        <ele>122</ele>
        <time>2019-07-18T21:26:40Z</time>
      </trkpt>
      <trkpt lat="45.07065" lon="4.82858">
        <ele>122</ele>
        <time>2019-07-18T21:26:41Z</time>
      </trkpt>
      <trkpt lat="45.07078" lon="4.82849">
        <ele>123</ele>
        <time>2019-07-18T21:26:44Z</time>
      </trkpt>
      <trkpt lat="45.07114" lon="4.82813">
        <ele>122</ele>
        <time>2019-07-18T21:26:51Z</time>
      </trkpt>
      <trkpt lat="45.07162" lon="4.82753">
        <ele>123</ele>
        <time>2019-07-18T21:27:03Z</time>
      </trkpt>
      <trkpt lat="45.07203" lon="4.82691">
        <ele>122</ele>
        <time>2019-07-18T21:27:13Z</time>
      </trkpt>
      <trkpt lat="45.07226" lon="4.82637">
        <ele>121</ele>
        <time>2019-07-18T21:27:21Z</time>
      </trkpt>
      <trkpt lat="45.07246" lon="4.82582">
        <ele>120</ele>
        <time>2019-07-18T21:27:29Z</time>
      </trkpt>
      <trkpt lat="45.07271" lon="4.82496">
        <ele>122</ele>
        <time>2019-07-18T21:27:41Z</time>
      </trkpt>
      <trkpt lat="45.0728" lon="4.82452">
        <ele>123</ele>
        <time>2019-07-18T21:27:47Z</time>
      </trkpt>
      <trkpt lat="45.07288" lon="4.82392">
        <ele>124</ele>
        <time>2019-07-18T21:27:54Z</time>
      </trkpt>
      <trkpt lat="45.0729" lon="4.82355">
        <ele>124</ele>
        <time>2019-07-18T21:27:59Z</time>
      </trkpt>
      <trkpt lat="45.0729" lon="4.82312">
        <ele>124</ele>
        <time>2019-07-18T21:28:04Z</time>
      </trkpt>
      <trkpt lat="45.07287" lon="4.82281">
        <ele>124</ele>
        <time>2019-07-18T21:28:08Z</time>
      </trkpt>
      <trkpt lat="45.07282" lon="4.82259">
        <ele>124</ele>
        <time>2019-07-18T21:28:11Z</time>
      </trkpt>
      <trkpt lat="45.07274" lon="4.82237">
        <ele>124</ele>
        <time>2019-07-18T21:28:14Z</time>
      </trkpt>
      <trkpt lat="45.07264" lon="4.82216">
        <ele>125</ele>
        <time>2019-07-18T21:28:17Z</time>
      </trkpt>
      <trkpt lat="45.07267" lon="4.82208">
        <ele>124</ele>
        <time>2019-07-18T21:28:19Z</time>
      </trkpt>
      <trkpt lat="45.07257" lon="4.82195">
        <ele>125</ele>
        <time>2019-07-18T21:28:21Z</time>
      </trkpt>
      <trkpt lat="45.07256" lon="4.82187">
        <ele>125</ele>
        <time>2019-07-18T21:28:22Z</time>
      </trkpt>
      <trkpt lat="45.07252" lon="4.8218">
        <ele>125</ele>
        <time>2019-07-18T21:28:23Z</time>
      </trkpt>
      <trkpt lat="45.07243" lon="4.82173">
        <ele>125</ele>
        <time>2019-07-18T21:28:25Z</time>
      </trkpt>
      <trkpt lat="45.07232" lon="4.82176">
        <ele>126</ele>
        <time>2019-07-18T21:28:27Z</time>
      </trkpt>
      <trkpt lat="45.07222" lon="4.82173">
        <ele>126</ele>
        <time>2019-07-18T21:28:29Z</time>
      </trkpt>
      <trkpt lat="45.07058" lon="4.8199">
        <ele>128</ele>
        <time>2019-07-18T21:29:06Z</time>
      </trkpt>
      <trkpt lat="45.07025" lon="4.81942">
        <ele>128</ele>
        <time>2019-07-18T21:29:14Z</time>
      </trkpt>
      <trkpt lat="45.07004" lon="4.81902">
        <ele>128</ele>
        <time>2019-07-18T21:29:21Z</time>
      </trkpt>
      <trkpt lat="45.06992" lon="4.8187">
        <ele>129</ele>
        <time>2019-07-18T21:29:25Z</time>
      </trkpt>
      <trkpt lat="45.0687" lon="4.81449">
        <ele>129</ele>
        <time>2019-07-18T21:30:22Z</time>
      </trkpt>
      <trkpt lat="45.06834" lon="4.81348">
        <ele>132</ele>
        <time>2019-07-18T21:30:37Z</time>
      </trkpt>
      <trkpt lat="45.06812" lon="4.81296">
        <ele>135</ele>
        <time>2019-07-18T21:30:44Z</time>
      </trkpt>
      <trkpt lat="45.06802" lon="4.81279">
        <ele>136</ele>
        <time>2019-07-18T21:30:47Z</time>
      </trkpt>
      <trkpt lat="45.06779" lon="4.81218">
        <ele>136</ele>
        <time>2019-07-18T21:30:56Z</time>
      </trkpt>
      <trkpt lat="45.06775" lon="4.812">
        <ele>136</ele>
        <time>2019-07-18T21:30:58Z</time>
      </trkpt>
      <trkpt lat="45.06736" lon="4.81099">
        <ele>135</ele>
        <time>2019-07-18T21:31:12Z</time>
      </trkpt>
      <trkpt lat="45.06732" lon="4.81084">
        <ele>135</ele>
        <time>2019-07-18T21:31:14Z</time>
      </trkpt>
      <trkpt lat="45.06727" lon="4.81067">
        <ele>135</ele>
        <time>2019-07-18T21:31:17Z</time>
      </trkpt>
      <trkpt lat="45.06708" lon="4.80871">
        <ele>131</ele>
        <time>2019-07-18T21:31:42Z</time>
      </trkpt>
      <trkpt lat="45.06713" lon="4.80868">
        <ele>131</ele>
        <time>2019-07-18T21:31:43Z</time>
      </trkpt>
      <trkpt lat="45.06717" lon="4.80861">
        <ele>131</ele>
        <time>2019-07-18T21:31:44Z</time>
      </trkpt>
      <trkpt lat="45.06719" lon="4.80852">
        <ele>131</ele>
        <time>2019-07-18T21:31:45Z</time>
      </trkpt>
      <trkpt lat="45.06718" lon="4.80844">
        <ele>131</ele>
        <time>2019-07-18T21:31:46Z</time>
      </trkpt>
      <trkpt lat="45.06716" lon="4.80837">
        <ele>131</ele>
        <time>2019-07-18T21:31:47Z</time>
      </trkpt>
      <trkpt lat="45.06707" lon="4.80831">
        <ele>131</ele>
        <time>2019-07-18T21:31:49Z</time>
      </trkpt>
      <trkpt lat="45.06702" lon="4.80831">
        <ele>131</ele>
        <time>2019-07-18T21:31:50Z</time>
      </trkpt>
      <trkpt lat="45.06688" lon="4.8069">
        <ele>130</ele>
        <time>2019-07-18T21:32:07Z</time>
      </trkpt>
      <trkpt lat="45.06686" lon="4.80642">
        <ele>129</ele>
        <time>2019-07-18T21:32:14Z</time>
      </trkpt>
      <trkpt lat="45.06687" lon="4.80243">
        <ele>126</ele>
        <time>2019-07-18T21:33:04Z</time>
      </trkpt>
      <trkpt lat="45.06693" lon="4.80039">
        <ele>126</ele>
        <time>2019-07-18T21:33:29Z</time>
      </trkpt>
      <trkpt lat="45.06694" lon="4.79834">
        <ele>127</ele>
        <time>2019-07-18T21:33:55Z</time>
      </trkpt>
      <trkpt lat="45.0669" lon="4.79787">
        <ele>128</ele>
        <time>2019-07-18T21:34:01Z</time>
      </trkpt>
      <trkpt lat="45.06684" lon="4.79764">
        <ele>128</ele>
        <time>2019-07-18T21:34:04Z</time>
      </trkpt>
      <trkpt lat="45.06676" lon="4.79742">
        <ele>129</ele>
        <time>2019-07-18T21:34:07Z</time>
      </trkpt>
      <trkpt lat="45.06619" lon="4.79617">
        <ele>133</ele>
        <time>2019-07-18T21:34:26Z</time>
      </trkpt>
      <trkpt lat="45.06608" lon="4.79588">
        <ele>134</ele>
        <time>2019-07-18T21:34:30Z</time>
      </trkpt>
      <trkpt lat="45.06577" lon="4.79488">
        <ele>138</ele>
        <time>2019-07-18T21:34:44Z</time>
      </trkpt>
      <trkpt lat="45.06534" lon="4.7937">
        <ele>141</ele>
        <time>2019-07-18T21:35:00Z</time>
      </trkpt>
      <trkpt lat="45.06516" lon="4.79344">
        <ele>141</ele>
        <time>2019-07-18T21:35:05Z</time>
      </trkpt>
      <trkpt lat="45.06481" lon="4.79306">
        <ele>146</ele>
        <time>2019-07-18T21:35:13Z</time>
      </trkpt>
      <trkpt lat="45.06466" lon="4.79286">
        <ele>149</ele>
        <time>2019-07-18T21:35:17Z</time>
      </trkpt>
      <trkpt lat="45.06437" lon="4.79233">
        <ele>155</ele>
        <time>2019-07-18T21:35:25Z</time>
      </trkpt>
      <trkpt lat="45.06428" lon="4.79197">
        <ele>156</ele>
        <time>2019-07-18T21:35:30Z</time>
      </trkpt>
      <trkpt lat="45.06428" lon="4.79165">
        <ele>155</ele>
        <time>2019-07-18T21:35:34Z</time>
      </trkpt>
      <trkpt lat="45.06434" lon="4.79129">
        <ele>154</ele>
        <time>2019-07-18T21:35:38Z</time>
      </trkpt>
      <trkpt lat="45.06475" lon="4.7901">
        <ele>148</ele>
        <time>2019-07-18T21:35:55Z</time>
      </trkpt>
      <trkpt lat="45.06516" lon="4.78814">
        <ele>155</ele>
        <time>2019-07-18T21:36:21Z</time>
      </trkpt>
      <trkpt lat="45.06523" lon="4.78789">
        <ele>156</ele>
        <time>2019-07-18T21:36:24Z</time>
      </trkpt>
      <trkpt lat="45.06552" lon="4.78731">
        <ele>153</ele>
        <time>2019-07-18T21:36:33Z</time>
      </trkpt>
      <trkpt lat="45.06593" lon="4.7866">
        <ele>146</ele>
        <time>2019-07-18T21:36:45Z</time>
      </trkpt>
      <trkpt lat="45.0661" lon="4.78605">
        <ele>152</ele>
        <time>2019-07-18T21:36:52Z</time>
      </trkpt>
      <trkpt lat="45.06634" lon="4.78507">
        <ele>154</ele>
        <time>2019-07-18T21:37:05Z</time>
      </trkpt>
      <trkpt lat="45.06636" lon="4.78486">
        <ele>154</ele>
        <time>2019-07-18T21:37:08Z</time>
      </trkpt>
      <trkpt lat="45.06634" lon="4.78469">
        <ele>154</ele>
        <time>2019-07-18T21:37:10Z</time>
      </trkpt>
      <trkpt lat="45.06623" lon="4.78383">
        <ele>159</ele>
        <time>2019-07-18T21:37:21Z</time>
      </trkpt>
      <trkpt lat="45.06628" lon="4.78277">
        <ele>156</ele>
        <time>2019-07-18T21:37:34Z</time>
      </trkpt>
      <trkpt lat="45.06626" lon="4.78231">
        <ele>154</ele>
        <time>2019-07-18T21:37:40Z</time>
      </trkpt>
      <trkpt lat="45.06622" lon="4.78209">
        <ele>153</ele>
        <time>2019-07-18T21:37:43Z</time>
      </trkpt>
      <trkpt lat="45.06614" lon="4.78189">
        <ele>153</ele>
        <time>2019-07-18T21:37:46Z</time>
      </trkpt>
      <trkpt lat="45.06602" lon="4.78164">
        <ele>152</ele>
        <time>2019-07-18T21:37:50Z</time>
      </trkpt>
      <trkpt lat="45.06572" lon="4.78146">
        <ele>153</ele>
        <time>2019-07-18T21:37:55Z</time>
      </trkpt>
      <trkpt lat="45.06535" lon="4.78137">
        <ele>152</ele>
        <time>2019-07-18T21:38:02Z</time>
      </trkpt>
      <trkpt lat="45.06478" lon="4.78132">
        <ele>149</ele>
        <time>2019-07-18T21:38:12Z</time>
      </trkpt>
      <trkpt lat="45.06462" lon="4.78132">
        <ele>148</ele>
        <time>2019-07-18T21:38:15Z</time>
      </trkpt>
      <trkpt lat="45.06451" lon="4.78135">
        <ele>147</ele>
        <time>2019-07-18T21:38:17Z</time>
      </trkpt>
      <trkpt lat="45.06444" lon="4.7814">
        <ele>147</ele>
        <time>2019-07-18T21:38:19Z</time>
      </trkpt>
      <trkpt lat="45.06435" lon="4.78154">
        <ele>148</ele>
        <time>2019-07-18T21:38:21Z</time>
      </trkpt>
      <trkpt lat="45.06426" lon="4.78173">
        <ele>150</ele>
        <time>2019-07-18T21:38:24Z</time>
      </trkpt>
      <trkpt lat="45.06421" lon="4.78195">
        <ele>154</ele>
        <time>2019-07-18T21:38:27Z</time>
      </trkpt>
      <trkpt lat="45.064" lon="4.78228">
        <ele>156</ele>
        <time>2019-07-18T21:38:32Z</time>
      </trkpt>
      <trkpt lat="45.06386" lon="4.78276">
        <ele>161</ele>
        <time>2019-07-18T21:38:39Z</time>
      </trkpt>
      <trkpt lat="45.06364" lon="4.78326">
        <ele>161</ele>
        <time>2019-07-18T21:38:46Z</time>
      </trkpt>
      <trkpt lat="45.06349" lon="4.78372">
        <ele>160</ele>
        <time>2019-07-18T21:38:53Z</time>
      </trkpt>
      <trkpt lat="45.06349" lon="4.78419">
        <ele>167</ele>
        <time>2019-07-18T21:38:59Z</time>
      </trkpt>
      <trkpt lat="45.06346" lon="4.78445">
        <ele>169</ele>
        <time>2019-07-18T21:39:02Z</time>
      </trkpt>
      <trkpt lat="45.06326" lon="4.78501">
        <ele>167</ele>
        <time>2019-07-18T21:39:10Z</time>
      </trkpt>
      <trkpt lat="45.06316" lon="4.78522">
        <ele>170</ele>
        <time>2019-07-18T21:39:13Z</time>
      </trkpt>
      <trkpt lat="45.0626" lon="4.78605">
        <ele>170</ele>
        <time>2019-07-18T21:39:27Z</time>
      </trkpt>
      <trkpt lat="45.06246" lon="4.78622">
        <ele>171</ele>
        <time>2019-07-18T21:39:31Z</time>
      </trkpt>
      <trkpt lat="45.06197" lon="4.78652">
        <ele>170</ele>
        <time>2019-07-18T21:39:40Z</time>
      </trkpt>
      <trkpt lat="45.06163" lon="4.78669">
        <ele>168</ele>
        <time>2019-07-18T21:39:47Z</time>
      </trkpt>
      <trkpt lat="45.06134" lon="4.78676">
        <ele>172</ele>
        <time>2019-07-18T21:39:52Z</time>
      </trkpt>
      <trkpt lat="45.06098" lon="4.78672">
        <ele>170</ele>
        <time>2019-07-18T21:39:58Z</time>
      </trkpt>
      <trkpt lat="45.06063" lon="4.78676">
        <ele>176</ele>
        <time>2019-07-18T21:40:04Z</time>
      </trkpt>
      <trkpt lat="45.06047" lon="4.78673">
        <ele>177</ele>
        <time>2019-07-18T21:40:07Z</time>
      </trkpt>
      <trkpt lat="45.05979" lon="4.78641">
        <ele>181</ele>
        <time>2019-07-18T21:40:20Z</time>
      </trkpt>
      <trkpt lat="45.05955" lon="4.78615">
        <ele>181</ele>
        <time>2019-07-18T21:40:25Z</time>
      </trkpt>
      <trkpt lat="45.05903" lon="4.78521">
        <ele>170</ele>
        <time>2019-07-18T21:40:40Z</time>
      </trkpt>
      <trkpt lat="45.05889" lon="4.78494">
        <ele>166</ele>
        <time>2019-07-18T21:40:45Z</time>
      </trkpt>
      <trkpt lat="45.0588" lon="4.78481">
        <ele>165</ele>
        <time>2019-07-18T21:40:47Z</time>
      </trkpt>
      <trkpt lat="45.05868" lon="4.78476">
        <ele>167</ele>
        <time>2019-07-18T21:40:49Z</time>
      </trkpt>
      <trkpt lat="45.05827" lon="4.78483">
        <ele>178</ele>
        <time>2019-07-18T21:40:56Z</time>
      </trkpt>
      <trkpt lat="45.05785" lon="4.7847">
        <ele>174</ele>
        <time>2019-07-18T21:41:04Z</time>
      </trkpt>
      <trkpt lat="45.0577" lon="4.7847">
        <ele>174</ele>
        <time>2019-07-18T21:41:07Z</time>
      </trkpt>
      <trkpt lat="45.05742" lon="4.78488">
        <ele>181</ele>
        <time>2019-07-18T21:41:12Z</time>
      </trkpt>
      <trkpt lat="45.05719" lon="4.78497">
        <ele>188</ele>
        <time>2019-07-18T21:41:17Z</time>
      </trkpt>
      <trkpt lat="45.05694" lon="4.78492">
        <ele>189</ele>
        <time>2019-07-18T21:41:21Z</time>
      </trkpt>
      <trkpt lat="45.05668" lon="4.78479">
        <ele>187</ele>
        <time>2019-07-18T21:41:26Z</time>
      </trkpt>
      <trkpt lat="45.05657" lon="4.78471">
        <ele>185</ele>
        <time>2019-07-18T21:41:28Z</time>
      </trkpt>
      <trkpt lat="45.0565" lon="4.78463">
        <ele>182</ele>
        <time>2019-07-18T21:41:30Z</time>
      </trkpt>
      <trkpt lat="45.05644" lon="4.78448">
        <ele>176</ele>
        <time>2019-07-18T21:41:32Z</time>
      </trkpt>
      <trkpt lat="45.05649" lon="4.78419">
        <ele>165</ele>
        <time>2019-07-18T21:41:36Z</time>
      </trkpt>
      <trkpt lat="45.05695" lon="4.78232">
        <ele>182</ele>
        <time>2019-07-18T21:42:01Z</time>
      </trkpt>
      <trkpt lat="45.05703" lon="4.78221">
        <ele>186</ele>
        <time>2019-07-18T21:42:03Z</time>
      </trkpt>
      <trkpt lat="45.05712" lon="4.78214">
        <ele>188</ele>
        <time>2019-07-18T21:42:04Z</time>
      </trkpt>
      <trkpt lat="45.05769" lon="4.78194">
        <ele>187</ele>
        <time>2019-07-18T21:42:15Z</time>
      </trkpt>
      <trkpt lat="45.0578" lon="4.78186">
        <ele>185</ele>
        <time>2019-07-18T21:42:17Z</time>
      </trkpt>
      <trkpt lat="45.05789" lon="4.78174">
        <ele>184</ele>
        <time>2019-07-18T21:42:19Z</time>
      </trkpt>
      <trkpt lat="45.05796" lon="4.78157">
        <ele>185</ele>
        <time>2019-07-18T21:42:22Z</time>
      </trkpt>
      <trkpt lat="45.058" lon="4.78136">
        <ele>187</ele>
        <time>2019-07-18T21:42:24Z</time>
      </trkpt>
      <trkpt lat="45.05805" lon="4.78044">
        <ele>194</ele>
        <time>2019-07-18T21:42:36Z</time>
      </trkpt>
      <trkpt lat="45.05805" lon="4.78012">
        <ele>196</ele>
        <time>2019-07-18T21:42:40Z</time>
      </trkpt>
      <trkpt lat="45.05796" lon="4.77967">
        <ele>206</ele>
        <time>2019-07-18T21:42:46Z</time>
      </trkpt>
      <trkpt lat="45.05797" lon="4.77949">
        <ele>207</ele>
        <time>2019-07-18T21:42:48Z</time>
      </trkpt>
      <trkpt lat="45.05801" lon="4.77937">
        <ele>206</ele>
        <time>2019-07-18T21:42:50Z</time>
      </trkpt>
      <trkpt lat="45.05828" lon="4.77903">
        <ele>199</ele>
        <time>2019-07-18T21:42:56Z</time>
      </trkpt>
      <trkpt lat="45.05831" lon="4.77883">
        <ele>201</ele>
        <time>2019-07-18T21:42:59Z</time>
      </trkpt>
      <trkpt lat="45.05845" lon="4.77835">
        <ele>203</ele>
        <time>2019-07-18T21:43:05Z</time>
      </trkpt>
      <trkpt lat="45.05831" lon="4.77883">
        <ele>201</ele>
        <time>2019-07-18T21:43:12Z</time>
      </trkpt>
      <trkpt lat="45.05828" lon="4.77903">
        <ele>199</ele>
        <time>2019-07-18T21:43:14Z</time>
      </trkpt>
      <trkpt lat="45.05801" lon="4.77937">
        <ele>206</ele>
        <time>2019-07-18T21:43:21Z</time>
      </trkpt>
      <trkpt lat="45.05797" lon="4.77949">
        <ele>207</ele>
        <time>2019-07-18T21:43:23Z</time>
      </trkpt>
      <trkpt lat="45.05796" lon="4.77967">
        <ele>206</ele>
        <time>2019-07-18T21:43:25Z</time>
      </trkpt>
      <trkpt lat="45.05805" lon="4.78012">
        <ele>196</ele>
        <time>2019-07-18T21:43:31Z</time>
      </trkpt>
      <trkpt lat="45.05805" lon="4.78044">
        <ele>194</ele>
        <time>2019-07-18T21:43:35Z</time>
      </trkpt>
      <trkpt lat="45.058" lon="4.78136">
        <ele>187</ele>
        <time>2019-07-18T21:43:46Z</time>
      </trkpt>
      <trkpt lat="45.05796" lon="4.78157">
        <ele>185</ele>
        <time>2019-07-18T21:43:49Z</time>
      </trkpt>
      <trkpt lat="45.05789" lon="4.78174">
        <ele>184</ele>
        <time>2019-07-18T21:43:52Z</time>
      </trkpt>
      <trkpt lat="45.0578" lon="4.78186">
        <ele>185</ele>
        <time>2019-07-18T21:43:54Z</time>
      </trkpt>
      <trkpt lat="45.05769" lon="4.78194">
        <ele>187</ele>
        <time>2019-07-18T21:43:56Z</time>
      </trkpt>
      <trkpt lat="45.05712" lon="4.78214">
        <ele>188</ele>
        <time>2019-07-18T21:44:06Z</time>
      </trkpt>
      <trkpt lat="45.05703" lon="4.78221">
        <ele>186</ele>
        <time>2019-07-18T21:44:08Z</time>
      </trkpt>
      <trkpt lat="45.05695" lon="4.78232">
        <ele>182</ele>
        <time>2019-07-18T21:44:10Z</time>
      </trkpt>
      <trkpt lat="45.05681" lon="4.78222">
        <ele>186</ele>
        <time>2019-07-18T21:44:13Z</time>
      </trkpt>
      <trkpt lat="45.05617" lon="4.78203">
        <ele>182</ele>
        <time>2019-07-18T21:44:25Z</time>
      </trkpt>
      <trkpt lat="45.056" lon="4.78196">
        <ele>181</ele>
        <time>2019-07-18T21:44:28Z</time>
      </trkpt>
      <trkpt lat="45.05576" lon="4.78174">
        <ele>185</ele>
        <time>2019-07-18T21:44:33Z</time>
      </trkpt>
      <trkpt lat="45.0554" lon="4.78163">
        <ele>181</ele>
        <time>2019-07-18T21:44:39Z</time>
      </trkpt>
      <trkpt lat="45.05531" lon="4.78155">
        <ele>181</ele>
        <time>2019-07-18T21:44:41Z</time>
      </trkpt>
      <trkpt lat="45.0552" lon="4.78125">
        <ele>188</ele>
        <time>2019-07-18T21:44:46Z</time>
      </trkpt>
      <trkpt lat="45.05514" lon="4.78119">
        <ele>188</ele>
        <time>2019-07-18T21:44:47Z</time>
      </trkpt>
      <trkpt lat="45.05503" lon="4.78119">
        <ele>185</ele>
        <time>2019-07-18T21:44:49Z</time>
      </trkpt>
      <trkpt lat="45.05498" lon="4.78117">
        <ele>184</ele>
        <time>2019-07-18T21:44:50Z</time>
      </trkpt>
      <trkpt lat="45.05486" lon="4.78101">
        <ele>185</ele>
        <time>2019-07-18T21:44:53Z</time>
      </trkpt>
      <trkpt lat="45.05475" lon="4.78079">
        <ele>188</ele>
        <time>2019-07-18T21:44:56Z</time>
      </trkpt>
      <trkpt lat="45.05463" lon="4.78064">
        <ele>189</ele>
        <time>2019-07-18T21:44:59Z</time>
      </trkpt>
      <trkpt lat="45.05447" lon="4.78054">
        <ele>187</ele>
        <time>2019-07-18T21:45:02Z</time>
      </trkpt>
      <trkpt lat="45.05428" lon="4.78038">
        <ele>185</ele>
        <time>2019-07-18T21:45:06Z</time>
      </trkpt>
      <trkpt lat="45.05416" lon="4.78022">
        <ele>185</ele>
        <time>2019-07-18T21:45:09Z</time>
      </trkpt>
      <trkpt lat="45.0541" lon="4.78004">
        <ele>187</ele>
        <time>2019-07-18T21:45:11Z</time>
      </trkpt>
      <trkpt lat="45.05402" lon="4.77929">
        <ele>199</ele>
        <time>2019-07-18T21:45:21Z</time>
      </trkpt>
      <trkpt lat="45.054" lon="4.77878">
        <ele>205</ele>
        <time>2019-07-18T21:45:27Z</time>
      </trkpt>
      <trkpt lat="45.05401" lon="4.77817">
        <ele>215</ele>
        <time>2019-07-18T21:45:35Z</time>
      </trkpt>
      <trkpt lat="45.05398" lon="4.77804">
        <ele>216</ele>
        <time>2019-07-18T21:45:37Z</time>
      </trkpt>
      <trkpt lat="45.05368" lon="4.77719">
        <ele>214</ele>
        <time>2019-07-18T21:45:49Z</time>
      </trkpt>
      <trkpt lat="45.05365" lon="4.77704">
        <ele>216</ele>
        <time>2019-07-18T21:45:51Z</time>
      </trkpt>
      <trkpt lat="45.05366" lon="4.77674">
        <ele>223</ele>
        <time>2019-07-18T21:45:54Z</time>
      </trkpt>
      <trkpt lat="45.05362" lon="4.77662">
        <ele>223</ele>
        <time>2019-07-18T21:45:56Z</time>
      </trkpt>
      <trkpt lat="45.05337" lon="4.77623">
        <ele>217</ele>
        <time>2019-07-18T21:46:03Z</time>
      </trkpt>
      <trkpt lat="45.05325" lon="4.77556">
        <ele>219</ele>
        <time>2019-07-18T21:46:11Z</time>
      </trkpt>
      <trkpt lat="45.05326" lon="4.77532">
        <ele>220</ele>
        <time>2019-07-18T21:46:14Z</time>
      </trkpt>
      <trkpt lat="45.05342" lon="4.77483">
        <ele>225</ele>
        <time>2019-07-18T21:46:21Z</time>
      </trkpt>
      <trkpt lat="45.05363" lon="4.77445">
        <ele>228</ele>
        <time>2019-07-18T21:46:27Z</time>
      </trkpt>
      <trkpt lat="45.05389" lon="4.77412">
        <ele>235</ele>
        <time>2019-07-18T21:46:33Z</time>
      </trkpt>
      <trkpt lat="45.05416" lon="4.77381">
        <ele>243</ele>
        <time>2019-07-18T21:46:40Z</time>
      </trkpt>
      <trkpt lat="45.05447" lon="4.7733">
        <ele>244</ele>
        <time>2019-07-18T21:46:48Z</time>
      </trkpt>
      <trkpt lat="45.05485" lon="4.77291">
        <ele>254</ele>
        <time>2019-07-18T21:46:56Z</time>
      </trkpt>
      <trkpt lat="45.05499" lon="4.77265">
        <ele>256</ele>
        <time>2019-07-18T21:47:01Z</time>
      </trkpt>
      <trkpt lat="45.05504" lon="4.77251">
        <ele>254</ele>
        <time>2019-07-18T21:47:03Z</time>
      </trkpt>
      <trkpt lat="45.05508" lon="4.77201">
        <ele>256</ele>
        <time>2019-07-18T21:47:09Z</time>
      </trkpt>
      <trkpt lat="45.05504" lon="4.77169">
        <ele>257</ele>
        <time>2019-07-18T21:47:13Z</time>
      </trkpt>
      <trkpt lat="45.05498" lon="4.77096">
        <ele>266</ele>
        <time>2019-07-18T21:47:22Z</time>
      </trkpt>
      <trkpt lat="45.05495" lon="4.77079">
        <ele>268</ele>
        <time>2019-07-18T21:47:24Z</time>
      </trkpt>
      <trkpt lat="45.05486" lon="4.77044">
        <ele>271</ele>
        <time>2019-07-18T21:47:29Z</time>
      </trkpt>
      <trkpt lat="45.05472" lon="4.76965">
        <ele>281</ele>
        <time>2019-07-18T21:47:39Z</time>
      </trkpt>
      <trkpt lat="45.05468" lon="4.76953">
        <ele>282</ele>
        <time>2019-07-18T21:47:41Z</time>
      </trkpt>
      <trkpt lat="45.05456" lon="4.76928">
        <ele>285</ele>
        <time>2019-07-18T21:47:45Z</time>
      </trkpt>
      <trkpt lat="45.05439" lon="4.76909">
        <ele>286</ele>
        <time>2019-07-18T21:47:49Z</time>
      </trkpt>
      <trkpt lat="45.05415" lon="4.76905">
        <ele>282</ele>
        <time>2019-07-18T21:47:53Z</time>
      </trkpt>
      <trkpt lat="45.05404" lon="4.76906">
        <ele>280</ele>
        <time>2019-07-18T21:47:55Z</time>
      </trkpt>
      <trkpt lat="45.05383" lon="4.76914">
        <ele>275</ele>
        <time>2019-07-18T21:47:59Z</time>
      </trkpt>
      <trkpt lat="45.05374" lon="4.76915">
        <ele>273</ele>
        <time>2019-07-18T21:48:00Z</time>
      </trkpt>
      <trkpt lat="45.05365" lon="4.76914">
        <ele>272</ele>
        <time>2019-07-18T21:48:02Z</time>
      </trkpt>
      <trkpt lat="45.05359" lon="4.76908">
        <ele>270</ele>
        <time>2019-07-18T21:48:03Z</time>
      </trkpt>
      <trkpt lat="45.05355" lon="4.76902">
        <ele>269</ele>
        <time>2019-07-18T21:48:04Z</time>
      </trkpt>
      <trkpt lat="45.05358" lon="4.76892">
        <ele>269</ele>
        <time>2019-07-18T21:48:06Z</time>
      </trkpt>
      <trkpt lat="45.05364" lon="4.76884">
        <ele>271</ele>
        <time>2019-07-18T21:48:07Z</time>
      </trkpt>
      <trkpt lat="45.05385" lon="4.76865">
        <ele>278</ele>
        <time>2019-07-18T21:48:12Z</time>
      </trkpt>
      <trkpt lat="45.05397" lon="4.76851">
        <ele>283</ele>
        <time>2019-07-18T21:48:14Z</time>
      </trkpt>
      <trkpt lat="45.05411" lon="4.76825">
        <ele>291</ele>
        <time>2019-07-18T21:48:18Z</time>
      </trkpt>
      <trkpt lat="45.05426" lon="4.76749">
        <ele>289</ele>
        <time>2019-07-18T21:48:28Z</time>
      </trkpt>
      <trkpt lat="45.05435" lon="4.76717">
        <ele>288</ele>
        <time>2019-07-18T21:48:33Z</time>
      </trkpt>
      <trkpt lat="45.05447" lon="4.76688">
        <ele>289</ele>
        <time>2019-07-18T21:48:37Z</time>
      </trkpt>
      <trkpt lat="45.05474" lon="4.76647">
        <ele>296</ele>
        <time>2019-07-18T21:48:44Z</time>
      </trkpt>
      <trkpt lat="45.05491" lon="4.76616">
        <ele>301</ele>
        <time>2019-07-18T21:48:49Z</time>
      </trkpt>
      <trkpt lat="45.05503" lon="4.76581">
        <ele>304</ele>
        <time>2019-07-18T21:48:54Z</time>
      </trkpt>
      <trkpt lat="45.05512" lon="4.76546">
        <ele>310</ele>
        <time>2019-07-18T21:48:58Z</time>
      </trkpt>
      <trkpt lat="45.05523" lon="4.76468">
        <ele>319</ele>
        <time>2019-07-18T21:49:08Z</time>
      </trkpt>
      <trkpt lat="45.05532" lon="4.76432">
        <ele>323</ele>
        <time>2019-07-18T21:49:13Z</time>
      </trkpt>
      <trkpt lat="45.05552" lon="4.76378">
        <ele>329</ele>
        <time>2019-07-18T21:49:21Z</time>
      </trkpt>
      <trkpt lat="45.05559" lon="4.76344">
        <ele>332</ele>
        <time>2019-07-18T21:49:25Z</time>
      </trkpt>
      <trkpt lat="45.05564" lon="4.76286">
        <ele>337</ele>
        <time>2019-07-18T21:49:33Z</time>
      </trkpt>
      <trkpt lat="45.05572" lon="4.76251">
        <ele>339</ele>
        <time>2019-07-18T21:49:37Z</time>
      </trkpt>
      <trkpt lat="45.05586" lon="4.76215">
        <ele>343</ele>
        <time>2019-07-18T21:49:43Z</time>
      </trkpt>
      <trkpt lat="45.05617" lon="4.7615">
        <ele>351</ele>
        <time>2019-07-18T21:49:52Z</time>
      </trkpt>
      <trkpt lat="45.05648" lon="4.76025">
        <ele>352</ele>
        <time>2019-07-18T21:50:09Z</time>
      </trkpt>
      <trkpt lat="45.05662" lon="4.75991">
        <ele>353</ele>
        <time>2019-07-18T21:50:14Z</time>
      </trkpt>
      <trkpt lat="45.0567" lon="4.75979">
        <ele>355</ele>
        <time>2019-07-18T21:50:16Z</time>
      </trkpt>
      <trkpt lat="45.05674" lon="4.75977">
        <ele>356</ele>
        <time>2019-07-18T21:50:17Z</time>
      </trkpt>
      <trkpt lat="45.05678" lon="4.75978">
        <ele>357</ele>
        <time>2019-07-18T21:50:18Z</time>
      </trkpt>
      <trkpt lat="45.05681" lon="4.75985">
        <ele>357</ele>
        <time>2019-07-18T21:50:19Z</time>
      </trkpt>
      <trkpt lat="45.05676" lon="4.76004">
        <ele>354</ele>
        <time>2019-07-18T21:50:21Z</time>
      </trkpt>
      <trkpt lat="45.05664" lon="4.76038">
        <ele>352</ele>
        <time>2019-07-18T21:50:26Z</time>
      </trkpt>
      <trkpt lat="45.05662" lon="4.7605">
        <ele>352</ele>
        <time>2019-07-18T21:50:27Z</time>
      </trkpt>
      <trkpt lat="45.05661" lon="4.76064">
        <ele>352</ele>
        <time>2019-07-18T21:50:29Z</time>
      </trkpt>
      <trkpt lat="45.05663" lon="4.76092">
        <ele>352</ele>
        <time>2019-07-18T21:50:33Z</time>
      </trkpt>
      <trkpt lat="45.05666" lon="4.76104">
        <ele>352</ele>
        <time>2019-07-18T21:50:34Z</time>
      </trkpt>
      <trkpt lat="45.05679" lon="4.76123">
        <ele>356</ele>
        <time>2019-07-18T21:50:38Z</time>
      </trkpt>
      <trkpt lat="45.05698" lon="4.76136">
        <ele>360</ele>
        <time>2019-07-18T21:50:41Z</time>
      </trkpt>
      <trkpt lat="45.05714" lon="4.76153">
        <ele>363</ele>
        <time>2019-07-18T21:50:45Z</time>
      </trkpt>
      <trkpt lat="45.0572" lon="4.76163">
        <ele>364</ele>
        <time>2019-07-18T21:50:47Z</time>
      </trkpt>
      <trkpt lat="45.05723" lon="4.76175">
        <ele>365</ele>
        <time>2019-07-18T21:50:48Z</time>
      </trkpt>
      <trkpt lat="45.05724" lon="4.76186">
        <ele>365</ele>
        <time>2019-07-18T21:50:50Z</time>
      </trkpt>
      <trkpt lat="45.05721" lon="4.76208">
        <ele>364</ele>
        <time>2019-07-18T21:50:52Z</time>
      </trkpt>
      <trkpt lat="45.05724" lon="4.76231">
        <ele>365</ele>
        <time>2019-07-18T21:50:55Z</time>
      </trkpt>
      <trkpt lat="45.05736" lon="4.76246">
        <ele>367</ele>
        <time>2019-07-18T21:50:58Z</time>
      </trkpt>
      <trkpt lat="45.05754" lon="4.76256">
        <ele>369</ele>
        <time>2019-07-18T21:51:02Z</time>
      </trkpt>
      <trkpt lat="45.05762" lon="4.76256">
        <ele>370</ele>
        <time>2019-07-18T21:51:03Z</time>
      </trkpt>
      <trkpt lat="45.05774" lon="4.76253">
        <ele>370</ele>
        <time>2019-07-18T21:51:05Z</time>
      </trkpt>
      <trkpt lat="45.05805" lon="4.76232">
        <ele>372</ele>
        <time>2019-07-18T21:51:11Z</time>
      </trkpt>
      <trkpt lat="45.05823" lon="4.7621">
        <ele>373</ele>
        <time>2019-07-18T21:51:16Z</time>
      </trkpt>
      <trkpt lat="45.0583" lon="4.76195">
        <ele>374</ele>
        <time>2019-07-18T21:51:18Z</time>
      </trkpt>
      <trkpt lat="45.05834" lon="4.76178">
        <ele>375</ele>
        <time>2019-07-18T21:51:20Z</time>
      </trkpt>
      <trkpt lat="45.05844" lon="4.76123">
        <ele>377</ele>
        <time>2019-07-18T21:51:27Z</time>
      </trkpt>
      <trkpt lat="45.05857" lon="4.76023">
        <ele>383</ele>
        <time>2019-07-18T21:51:40Z</time>
      </trkpt>
      <trkpt lat="45.05876" lon="4.75924">
        <ele>390</ele>
        <time>2019-07-18T21:51:53Z</time>
      </trkpt>
      <trkpt lat="45.05877" lon="4.75904">
        <ele>392</ele>
        <time>2019-07-18T21:51:55Z</time>
      </trkpt>
      <trkpt lat="45.05873" lon="4.75831">
        <ele>396</ele>
        <time>2019-07-18T21:52:05Z</time>
      </trkpt>
      <trkpt lat="45.0587" lon="4.75812">
        <ele>397</ele>
        <time>2019-07-18T21:52:07Z</time>
      </trkpt>
      <trkpt lat="45.05858" lon="4.75782">
        <ele>399</ele>
        <time>2019-07-18T21:52:11Z</time>
      </trkpt>
      <trkpt lat="45.05843" lon="4.75753">
        <ele>402</ele>
        <time>2019-07-18T21:52:16Z</time>
      </trkpt>
      <trkpt lat="45.05822" lon="4.75704">
        <ele>405</ele>
        <time>2019-07-18T21:52:23Z</time>
      </trkpt>
      <trkpt lat="45.05796" lon="4.75613">
        <ele>409</ele>
        <time>2019-07-18T21:52:36Z</time>
      </trkpt>
      <trkpt lat="45.05779" lon="4.75562">
        <ele>412</ele>
        <time>2019-07-18T21:52:43Z</time>
      </trkpt>
      <trkpt lat="45.05746" lon="4.75482">
        <ele>416</ele>
        <time>2019-07-18T21:52:54Z</time>
      </trkpt>
      <trkpt lat="45.0574" lon="4.75456">
        <ele>417</ele>
        <time>2019-07-18T21:52:58Z</time>
      </trkpt>
      <trkpt lat="45.05739" lon="4.75442">
        <ele>418</ele>
        <time>2019-07-18T21:52:59Z</time>
      </trkpt>
      <trkpt lat="45.05741" lon="4.75428">
        <ele>418</ele>
        <time>2019-07-18T21:53:01Z</time>
      </trkpt>
      <trkpt lat="45.05755" lon="4.75409">
        <ele>419</ele>
        <time>2019-07-18T21:53:05Z</time>
      </trkpt>
      <trkpt lat="45.05761" lon="4.75395">
        <ele>419</ele>
        <time>2019-07-18T21:53:07Z</time>
      </trkpt>
      <trkpt lat="45.05767" lon="4.75366">
        <ele>419</ele>
        <time>2019-07-18T21:53:11Z</time>
      </trkpt>
      <trkpt lat="45.05767" lon="4.75332">
        <ele>420</ele>
        <time>2019-07-18T21:53:15Z</time>
      </trkpt>
      <trkpt lat="45.05762" lon="4.75299">
        <ele>421</ele>
        <time>2019-07-18T21:53:19Z</time>
      </trkpt>
      <trkpt lat="45.05758" lon="4.75283">
        <ele>422</ele>
        <time>2019-07-18T21:53:21Z</time>
      </trkpt>
      <trkpt lat="45.05745" lon="4.75253">
        <ele>424</ele>
        <time>2019-07-18T21:53:26Z</time>
      </trkpt>
      <trkpt lat="45.05733" lon="4.75237">
        <ele>424</ele>
        <time>2019-07-18T21:53:29Z</time>
      </trkpt>
      <trkpt lat="45.05712" lon="4.75201">
        <ele>425</ele>
        <time>2019-07-18T21:53:34Z</time>
      </trkpt>
      <trkpt lat="45.05699" lon="4.75168">
        <ele>426</ele>
        <time>2019-07-18T21:53:39Z</time>
      </trkpt>
      <trkpt lat="45.05687" lon="4.75136">
        <ele>424</ele>
        <time>2019-07-18T21:53:44Z</time>
      </trkpt>
      <trkpt lat="45.05684" lon="4.75118">
        <ele>423</ele>
        <time>2019-07-18T21:53:46Z</time>
      </trkpt>
      <trkpt lat="45.05674" lon="4.75084">
        <ele>421</ele>
        <time>2019-07-18T21:53:51Z</time>
      </trkpt>
      <trkpt lat="45.05642" lon="4.75025">
        <ele>415</ele>
        <time>2019-07-18T21:54:00Z</time>
      </trkpt>
      <trkpt lat="45.05635" lon="4.75008">
        <ele>413</ele>
        <time>2019-07-18T21:54:02Z</time>
      </trkpt>
      <trkpt lat="45.05626" lon="4.74957">
        <ele>413</ele>
        <time>2019-07-18T21:54:09Z</time>
      </trkpt>
      <trkpt lat="45.05625" lon="4.7495">
        <ele>414</ele>
        <time>2019-07-18T21:54:10Z</time>
      </trkpt>
      <trkpt lat="45.05633" lon="4.74947">
        <ele>413</ele>
        <time>2019-07-18T21:54:11Z</time>
      </trkpt>
      <trkpt lat="45.0564" lon="4.74937">
        <ele>413</ele>
        <time>2019-07-18T21:54:13Z</time>
      </trkpt>
      <trkpt lat="45.05672" lon="4.74864">
        <ele>412</ele>
        <time>2019-07-18T21:54:24Z</time>
      </trkpt>
      <trkpt lat="45.05677" lon="4.74823">
        <ele>413</ele>
        <time>2019-07-18T21:54:29Z</time>
      </trkpt>
      <trkpt lat="45.05681" lon="4.7481">
        <ele>413</ele>
        <time>2019-07-18T21:54:31Z</time>
      </trkpt>
      <trkpt lat="45.0569" lon="4.74794">
        <ele>411</ele>
        <time>2019-07-18T21:54:34Z</time>
      </trkpt>
      <trkpt lat="45.05725" lon="4.74742">
        <ele>403</ele>
        <time>2019-07-18T21:54:43Z</time>
      </trkpt>
      <trkpt lat="45.0573" lon="4.74729">
        <ele>401</ele>
        <time>2019-07-18T21:54:45Z</time>
      </trkpt>
      <trkpt lat="45.05734" lon="4.7471">
        <ele>399</ele>
        <time>2019-07-18T21:54:47Z</time>
      </trkpt>
      <trkpt lat="45.05733" lon="4.7469">
        <ele>399</ele>
        <time>2019-07-18T21:54:50Z</time>
      </trkpt>
      <trkpt lat="45.05712" lon="4.74619">
        <ele>399</ele>
        <time>2019-07-18T21:54:59Z</time>
      </trkpt>
      <trkpt lat="45.05704" lon="4.74584">
        <ele>398</ele>
        <time>2019-07-18T21:55:04Z</time>
      </trkpt>
      <trkpt lat="45.05687" lon="4.74541">
        <ele>398</ele>
        <time>2019-07-18T21:55:10Z</time>
      </trkpt>
      <trkpt lat="45.05675" lon="4.74524">
        <ele>401</ele>
        <time>2019-07-18T21:55:13Z</time>
      </trkpt>
      <trkpt lat="45.0566" lon="4.74511">
        <ele>404</ele>
        <time>2019-07-18T21:55:16Z</time>
      </trkpt>
      <trkpt lat="45.05653" lon="4.74502">
        <ele>404</ele>
        <time>2019-07-18T21:55:18Z</time>
      </trkpt>
      <trkpt lat="45.05649" lon="4.74483">
        <ele>403</ele>
        <time>2019-07-18T21:55:20Z</time>
      </trkpt>
      <trkpt lat="45.05651" lon="4.74463">
        <ele>401</ele>
        <time>2019-07-18T21:55:23Z</time>
      </trkpt>
      <trkpt lat="45.05661" lon="4.74431">
        <ele>394</ele>
        <time>2019-07-18T21:55:27Z</time>
      </trkpt>
      <trkpt lat="45.05668" lon="4.74382">
        <ele>388</ele>
        <time>2019-07-18T21:55:34Z</time>
      </trkpt>
      <trkpt lat="45.05668" lon="4.74358">
        <ele>386</ele>
        <time>2019-07-18T21:55:37Z</time>
      </trkpt>
      <trkpt lat="45.05662" lon="4.74337">
        <ele>387</ele>
        <time>2019-07-18T21:55:39Z</time>
      </trkpt>
      <trkpt lat="45.05644" lon="4.74309">
        <ele>387</ele>
        <time>2019-07-18T21:55:44Z</time>
      </trkpt>
      <trkpt lat="45.05621" lon="4.7428">
        <ele>387</ele>
        <time>2019-07-18T21:55:50Z</time>
      </trkpt>
      <trkpt lat="45.05616" lon="4.7427">
        <ele>386</ele>
        <time>2019-07-18T21:55:51Z</time>
      </trkpt>
      <trkpt lat="45.05615" lon="4.74261">
        <ele>384</ele>
        <time>2019-07-18T21:55:52Z</time>
      </trkpt>
      <trkpt lat="45.05485" lon="4.74202">
        <ele>388</ele>
        <time>2019-07-18T21:56:17Z</time>
      </trkpt>
      <trkpt lat="45.05463" lon="4.74194">
        <ele>387</ele>
        <time>2019-07-18T21:56:21Z</time>
      </trkpt>
      <trkpt lat="45.05443" lon="4.74197">
        <ele>388</ele>
        <time>2019-07-18T21:56:24Z</time>
      </trkpt>
      <trkpt lat="45.05428" lon="4.74208">
        <ele>392</ele>
        <time>2019-07-18T21:56:27Z</time>
      </trkpt>
      <trkpt lat="45.05403" lon="4.74235">
        <ele>400</ele>
        <time>2019-07-18T21:56:33Z</time>
      </trkpt>
      <trkpt lat="45.05379" lon="4.7424">
        <ele>403</ele>
        <time>2019-07-18T21:56:37Z</time>
      </trkpt>
      <trkpt lat="45.05359" lon="4.74226">
        <ele>404</ele>
        <time>2019-07-18T21:56:41Z</time>
      </trkpt>
      <trkpt lat="45.05347" lon="4.74195">
        <ele>402</ele>
        <time>2019-07-18T21:56:46Z</time>
      </trkpt>
      <trkpt lat="45.05341" lon="4.7416">
        <ele>399</ele>
        <time>2019-07-18T21:56:50Z</time>
      </trkpt>
      <trkpt lat="45.05344" lon="4.74102">
        <ele>396</ele>
        <time>2019-07-18T21:56:57Z</time>
      </trkpt>
      <trkpt lat="45.0534" lon="4.74077">
        <ele>397</ele>
        <time>2019-07-18T21:57:01Z</time>
      </trkpt>
      <trkpt lat="45.05326" lon="4.74056">
        <ele>399</ele>
        <time>2019-07-18T21:57:04Z</time>
      </trkpt>
      <trkpt lat="45.05305" lon="4.74034">
        <ele>403</ele>
        <time>2019-07-18T21:57:09Z</time>
      </trkpt>
      <trkpt lat="45.053" lon="4.74015">
        <ele>403</ele>
        <time>2019-07-18T21:57:11Z</time>
      </trkpt>
      <trkpt lat="45.05302" lon="4.73989">
        <ele>402</ele>
        <time>2019-07-18T21:57:15Z</time>
      </trkpt>
      <trkpt lat="45.05318" lon="4.73954">
        <ele>399</ele>
        <time>2019-07-18T21:57:20Z</time>
      </trkpt>
      <trkpt lat="45.05323" lon="4.73939">
        <ele>399</ele>
        <time>2019-07-18T21:57:22Z</time>
      </trkpt>
      <trkpt lat="45.05322" lon="4.73921">
        <ele>399</ele>
        <time>2019-07-18T21:57:24Z</time>
      </trkpt>
      <trkpt lat="45.05312" lon="4.73902">
        <ele>403</ele>
        <time>2019-07-18T21:57:27Z</time>
      </trkpt>
      <trkpt lat="45.05297" lon="4.73883">
        <ele>407</ele>
        <time>2019-07-18T21:57:31Z</time>
      </trkpt>
      <trkpt lat="45.05288" lon="4.73859">
        <ele>410</ele>
        <time>2019-07-18T21:57:34Z</time>
      </trkpt>
      <trkpt lat="45.05293" lon="4.73833">
        <ele>411</ele>
        <time>2019-07-18T21:57:38Z</time>
      </trkpt>
      <trkpt lat="45.05312" lon="4.73808">
        <ele>411</ele>
        <time>2019-07-18T21:57:42Z</time>
      </trkpt>
      <trkpt lat="45.05366" lon="4.73779">
        <ele>406</ele>
        <time>2019-07-18T21:57:53Z</time>
      </trkpt>
      <trkpt lat="45.05389" lon="4.73764">
        <ele>405</ele>
        <time>2019-07-18T21:57:57Z</time>
      </trkpt>
      <trkpt lat="45.05402" lon="4.73743">
        <ele>406</ele>
        <time>2019-07-18T21:58:01Z</time>
      </trkpt>
      <trkpt lat="45.0541" lon="4.73705">
        <ele>408</ele>
        <time>2019-07-18T21:58:06Z</time>
      </trkpt>
      <trkpt lat="45.05431" lon="4.73585">
        <ele>410</ele>
        <time>2019-07-18T21:58:21Z</time>
      </trkpt>
      <trkpt lat="45.05445" lon="4.73487">
        <ele>411</ele>
        <time>2019-07-18T21:58:34Z</time>
      </trkpt>
      <trkpt lat="45.05448" lon="4.73449">
        <ele>411</ele>
        <time>2019-07-18T21:58:39Z</time>
      </trkpt>
      <trkpt lat="45.05446" lon="4.73426">
        <ele>412</ele>
        <time>2019-07-18T21:58:41Z</time>
      </trkpt>
      <trkpt lat="45.05433" lon="4.73389">
        <ele>412</ele>
        <time>2019-07-18T21:58:47Z</time>
      </trkpt>
      <trkpt lat="45.05414" lon="4.73362">
        <ele>413</ele>
        <time>2019-07-18T21:58:51Z</time>
      </trkpt>
      <trkpt lat="45.05391" lon="4.73348">
        <ele>414</ele>
        <time>2019-07-18T21:58:56Z</time>
      </trkpt>
      <trkpt lat="45.05347" lon="4.73335">
        <ele>418</ele>
        <time>2019-07-18T21:59:04Z</time>
      </trkpt>
      <trkpt lat="45.05323" lon="4.73317">
        <ele>419</ele>
        <time>2019-07-18T21:59:09Z</time>
      </trkpt>
      <trkpt lat="45.05301" lon="4.73285">
        <ele>420</ele>
        <time>2019-07-18T21:59:14Z</time>
      </trkpt>
      <trkpt lat="45.05284" lon="4.73249">
        <ele>421</ele>
        <time>2019-07-18T21:59:20Z</time>
      </trkpt>
      <trkpt lat="45.05279" lon="4.7323">
        <ele>422</ele>
        <time>2019-07-18T21:59:22Z</time>
      </trkpt>
      <trkpt lat="45.05276" lon="4.73203">
        <ele>423</ele>
        <time>2019-07-18T21:59:26Z</time>
      </trkpt>
      <trkpt lat="45.05277" lon="4.73164">
        <ele>424</ele>
        <time>2019-07-18T21:59:31Z</time>
      </trkpt>
      <trkpt lat="45.05293" lon="4.73103">
        <ele>425</ele>
        <time>2019-07-18T21:59:39Z</time>
      </trkpt>
      <trkpt lat="45.0532" lon="4.73017">
        <ele>424</ele>
        <time>2019-07-18T21:59:51Z</time>
      </trkpt>
      <trkpt lat="45.05322" lon="4.73003">
        <ele>424</ele>
        <time>2019-07-18T21:59:52Z</time>
      </trkpt>
      <trkpt lat="45.05321" lon="4.72988">
        <ele>424</ele>
        <time>2019-07-18T21:59:54Z</time>
      </trkpt>
      <trkpt lat="45.05291" lon="4.72916">
        <ele>429</ele>
        <time>2019-07-18T22:00:05Z</time>
      </trkpt>
      <trkpt lat="45.05289" lon="4.72902">
        <ele>431</ele>
        <time>2019-07-18T22:00:07Z</time>
      </trkpt>
      <trkpt lat="45.05293" lon="4.72887">
        <ele>431</ele>
        <time>2019-07-18T22:00:09Z</time>
      </trkpt>
      <trkpt lat="45.05301" lon="4.72869">
        <ele>430</ele>
        <time>2019-07-18T22:00:11Z</time>
      </trkpt>
      <trkpt lat="45.05324" lon="4.72843">
        <ele>429</ele>
        <time>2019-07-18T22:00:17Z</time>
      </trkpt>
      <trkpt lat="45.05331" lon="4.72827">
        <ele>428</ele>
        <time>2019-07-18T22:00:19Z</time>
      </trkpt>
      <trkpt lat="45.05331" lon="4.72798">
        <ele>428</ele>
        <time>2019-07-18T22:00:23Z</time>
      </trkpt>
      <trkpt lat="45.05323" lon="4.72776">
        <ele>429</ele>
        <time>2019-07-18T22:00:26Z</time>
      </trkpt>
      <trkpt lat="45.05302" lon="4.72735">
        <ele>432</ele>
        <time>2019-07-18T22:00:32Z</time>
      </trkpt>
      <trkpt lat="45.0529" lon="4.72716">
        <ele>433</ele>
        <time>2019-07-18T22:00:35Z</time>
      </trkpt>
      <trkpt lat="45.05283" lon="4.7269">
        <ele>433</ele>
        <time>2019-07-18T22:00:39Z</time>
      </trkpt>
      <trkpt lat="45.05277" lon="4.72621">
        <ele>432</ele>
        <time>2019-07-18T22:00:48Z</time>
      </trkpt>
      <trkpt lat="45.0527" lon="4.7258">
        <ele>431</ele>
        <time>2019-07-18T22:00:53Z</time>
      </trkpt>
      <trkpt lat="45.05264" lon="4.72565">
        <ele>431</ele>
        <time>2019-07-18T22:00:55Z</time>
      </trkpt>
      <trkpt lat="45.05252" lon="4.72552">
        <ele>431</ele>
        <time>2019-07-18T22:00:58Z</time>
      </trkpt>
      <trkpt lat="45.05239" lon="4.72549">
        <ele>429</ele>
        <time>2019-07-18T22:01:00Z</time>
      </trkpt>
      <trkpt lat="45.05227" lon="4.72552">
        <ele>428</ele>
        <time>2019-07-18T22:01:02Z</time>
      </trkpt>
      <trkpt lat="45.05218" lon="4.72557">
        <ele>428</ele>
        <time>2019-07-18T22:01:04Z</time>
      </trkpt>
      <trkpt lat="45.05199" lon="4.72579">
        <ele>431</ele>
        <time>2019-07-18T22:01:08Z</time>
      </trkpt>
      <trkpt lat="45.05153" lon="4.72639">
        <ele>438</ele>
        <time>2019-07-18T22:01:19Z</time>
      </trkpt>
      <trkpt lat="45.05138" lon="4.7265">
        <ele>439</ele>
        <time>2019-07-18T22:01:22Z</time>
      </trkpt>
      <trkpt lat="45.05122" lon="4.72658">
        <ele>439</ele>
        <time>2019-07-18T22:01:25Z</time>
      </trkpt>
      <trkpt lat="45.05085" lon="4.72668">
        <ele>438</ele>
        <time>2019-07-18T22:01:32Z</time>
      </trkpt>
      <trkpt lat="45.0504" lon="4.72697">
        <ele>446</ele>
        <time>2019-07-18T22:01:41Z</time>
      </trkpt>
      <trkpt lat="45.05024" lon="4.72697">
        <ele>447</ele>
        <time>2019-07-18T22:01:44Z</time>
      </trkpt>
      <trkpt lat="45.05009" lon="4.72693">
        <ele>448</ele>
        <time>2019-07-18T22:01:46Z</time>
      </trkpt>
      <trkpt lat="45.0499" lon="4.72678">
        <ele>448</ele>
        <time>2019-07-18T22:01:50Z</time>
      </trkpt>
      <trkpt lat="45.04977" lon="4.72658">
        <ele>449</ele>
        <time>2019-07-18T22:01:54Z</time>
      </trkpt>
      <trkpt lat="45.04965" lon="4.72624">
        <ele>449</ele>
        <time>2019-07-18T22:01:59Z</time>
      </trkpt>
      <trkpt lat="45.04961" lon="4.72583">
        <ele>446</ele>
        <time>2019-07-18T22:02:04Z</time>
      </trkpt>
      <trkpt lat="45.04957" lon="4.72568">
        <ele>444</ele>
        <time>2019-07-18T22:02:06Z</time>
      </trkpt>
      <trkpt lat="45.0495" lon="4.72556">
        <ele>443</ele>
        <time>2019-07-18T22:02:08Z</time>
      </trkpt>
      <trkpt lat="45.04938" lon="4.72544">
        <ele>443</ele>
        <time>2019-07-18T22:02:10Z</time>
      </trkpt>
      <trkpt lat="45.04914" lon="4.72536">
        <ele>445</ele>
        <time>2019-07-18T22:02:15Z</time>
      </trkpt>
      <trkpt lat="45.0489" lon="4.72532">
        <ele>446</ele>
        <time>2019-07-18T22:02:19Z</time>
      </trkpt>
      <trkpt lat="45.0487" lon="4.72532">
        <ele>448</ele>
        <time>2019-07-18T22:02:23Z</time>
      </trkpt>
      <trkpt lat="45.04855" lon="4.72535">
        <ele>450</ele>
        <time>2019-07-18T22:02:25Z</time>
      </trkpt>
      <trkpt lat="45.04834" lon="4.72545">
        <ele>454</ele>
        <time>2019-07-18T22:02:29Z</time>
      </trkpt>
      <trkpt lat="45.04824" lon="4.72546">
        <ele>456</ele>
        <time>2019-07-18T22:02:31Z</time>
      </trkpt>
      <trkpt lat="45.04808" lon="4.72539">
        <ele>457</ele>
        <time>2019-07-18T22:02:34Z</time>
      </trkpt>
      <trkpt lat="45.04799" lon="4.72528">
        <ele>457</ele>
        <time>2019-07-18T22:02:36Z</time>
      </trkpt>
      <trkpt lat="45.04789" lon="4.72501">
        <ele>455</ele>
        <time>2019-07-18T22:02:40Z</time>
      </trkpt>
      <trkpt lat="45.04787" lon="4.72485">
        <ele>455</ele>
        <time>2019-07-18T22:02:42Z</time>
      </trkpt>
      <trkpt lat="45.04783" lon="4.72394">
        <ele>452</ele>
        <time>2019-07-18T22:02:53Z</time>
      </trkpt>
      <trkpt lat="45.04779" lon="4.72376">
        <ele>452</ele>
        <time>2019-07-18T22:02:56Z</time>
      </trkpt>
      <trkpt lat="45.04772" lon="4.72362">
        <ele>453</ele>
        <time>2019-07-18T22:02:58Z</time>
      </trkpt>
      <trkpt lat="45.04758" lon="4.72342">
        <ele>454</ele>
        <time>2019-07-18T22:03:01Z</time>
      </trkpt>
      <trkpt lat="45.0474" lon="4.72331">
        <ele>455</ele>
        <time>2019-07-18T22:03:05Z</time>
      </trkpt>
      <trkpt lat="45.04721" lon="4.72325">
        <ele>456</ele>
        <time>2019-07-18T22:03:08Z</time>
      </trkpt>
      <trkpt lat="45.04683" lon="4.72318">
        <ele>459</ele>
        <time>2019-07-18T22:03:15Z</time>
      </trkpt>
      <trkpt lat="45.04643" lon="4.72317">
        <ele>462</ele>
        <time>2019-07-18T22:03:22Z</time>
      </trkpt>
      <trkpt lat="45.04612" lon="4.72308">
        <ele>463</ele>
        <time>2019-07-18T22:03:28Z</time>
      </trkpt>
      <trkpt lat="45.0456" lon="4.72268">
        <ele>462</ele>
        <time>2019-07-18T22:03:39Z</time>
      </trkpt>
      <trkpt lat="45.04515" lon="4.72253">
        <ele>465</ele>
        <time>2019-07-18T22:03:47Z</time>
      </trkpt>
      <trkpt lat="45.04496" lon="4.72234">
        <ele>466</ele>
        <time>2019-07-18T22:03:51Z</time>
      </trkpt>
      <trkpt lat="45.04476" lon="4.72182">
        <ele>465</ele>
        <time>2019-07-18T22:03:58Z</time>
      </trkpt>
      <trkpt lat="45.04462" lon="4.72162">
        <ele>465</ele>
        <time>2019-07-18T22:04:02Z</time>
      </trkpt>
      <trkpt lat="45.04442" lon="4.72146">
        <ele>467</ele>
        <time>2019-07-18T22:04:06Z</time>
      </trkpt>
      <trkpt lat="45.04408" lon="4.72127">
        <ele>469</ele>
        <time>2019-07-18T22:04:12Z</time>
      </trkpt>
      <trkpt lat="45.04392" lon="4.72102">
        <ele>468</ele>
        <time>2019-07-18T22:04:17Z</time>
      </trkpt>
      <trkpt lat="45.04374" lon="4.72056">
        <ele>467</ele>
        <time>2019-07-18T22:04:23Z</time>
      </trkpt>
      <trkpt lat="45.04357" lon="4.72037">
        <ele>468</ele>
        <time>2019-07-18T22:04:27Z</time>
      </trkpt>
      <trkpt lat="45.0432" lon="4.72009">
        <ele>470</ele>
        <time>2019-07-18T22:04:35Z</time>
      </trkpt>
      <trkpt lat="45.04191" lon="4.71939">
        <ele>472</ele>
        <time>2019-07-18T22:04:59Z</time>
      </trkpt>
      <trkpt lat="45.04158" lon="4.71911">
        <ele>473</ele>
        <time>2019-07-18T22:05:06Z</time>
      </trkpt>
      <trkpt lat="45.04032" lon="4.7174">
        <ele>481</ele>
        <time>2019-07-18T22:05:37Z</time>
      </trkpt>
      <trkpt lat="45.03993" lon="4.71707">
        <ele>482</ele>
        <time>2019-07-18T22:05:45Z</time>
      </trkpt>
      <trkpt lat="45.03938" lon="4.71677">
        <ele>482</ele>
        <time>2019-07-18T22:05:56Z</time>
      </trkpt>
      <trkpt lat="45.03892" lon="4.71667">
        <ele>482</ele>
        <time>2019-07-18T22:06:04Z</time>
      </trkpt>
      <trkpt lat="45.03771" lon="4.71658">
        <ele>484</ele>
        <time>2019-07-18T22:06:26Z</time>
      </trkpt>
      <trkpt lat="45.03734" lon="4.7165">
        <ele>484</ele>
        <time>2019-07-18T22:06:32Z</time>
      </trkpt>
      <trkpt lat="45.03697" lon="4.71629">
        <ele>484</ele>
        <time>2019-07-18T22:06:39Z</time>
      </trkpt>
      <trkpt lat="45.03412" lon="4.71311">
        <ele>489</ele>
        <time>2019-07-18T22:07:44Z</time>
      </trkpt>
      <trkpt lat="45.03408" lon="4.71305">
        <ele>490</ele>
        <time>2019-07-18T22:07:45Z</time>
      </trkpt>
      <trkpt lat="45.034" lon="4.71282">
        <ele>489</ele>
        <time>2019-07-18T22:07:48Z</time>
      </trkpt>
      <trkpt lat="45.03398" lon="4.71249">
        <ele>488</ele>
        <time>2019-07-18T22:07:52Z</time>
      </trkpt>
      <trkpt lat="45.03403" lon="4.71231">
        <ele>489</ele>
        <time>2019-07-18T22:07:55Z</time>
      </trkpt>
      <trkpt lat="45.03414" lon="4.71211">
        <ele>489</ele>
        <time>2019-07-18T22:07:58Z</time>
      </trkpt>
      <trkpt lat="45.03458" lon="4.71178">
        <ele>486</ele>
        <time>2019-07-18T22:08:07Z</time>
      </trkpt>
      <trkpt lat="45.03473" lon="4.71162">
        <ele>485</ele>
        <time>2019-07-18T22:08:10Z</time>
      </trkpt>
      <trkpt lat="45.03485" lon="4.71133">
        <ele>484</ele>
        <time>2019-07-18T22:08:14Z</time>
      </trkpt>
      <trkpt lat="45.03525" lon="4.70901">
        <ele>485</ele>
        <time>2019-07-18T22:08:44Z</time>
      </trkpt>
      <trkpt lat="45.03526" lon="4.70888">
        <ele>485</ele>
        <time>2019-07-18T22:08:46Z</time>
      </trkpt>
      <trkpt lat="45.03521" lon="4.70853">
        <ele>485</ele>
        <time>2019-07-18T22:08:51Z</time>
      </trkpt>
      <trkpt lat="45.03515" lon="4.7084">
        <ele>485</ele>
        <time>2019-07-18T22:08:52Z</time>
      </trkpt>
      <trkpt lat="45.03504" lon="4.70825">
        <ele>486</ele>
        <time>2019-07-18T22:08:55Z</time>
      </trkpt>
      <trkpt lat="45.03487" lon="4.70812">
        <ele>485</ele>
        <time>2019-07-18T22:08:59Z</time>
      </trkpt>
      <trkpt lat="45.03471" lon="4.70804">
        <ele>485</ele>
        <time>2019-07-18T22:09:02Z</time>
      </trkpt>
      <trkpt lat="45.03446" lon="4.708">
        <ele>485</ele>
        <time>2019-07-18T22:09:06Z</time>
      </trkpt>
      <trkpt lat="45.03416" lon="4.70804">
        <ele>486</ele>
        <time>2019-07-18T22:09:11Z</time>
      </trkpt>
      <trkpt lat="45.03339" lon="4.70824">
        <ele>492</ele>
        <time>2019-07-18T22:09:25Z</time>
      </trkpt>
      <trkpt lat="45.03322" lon="4.70819">
        <ele>493</ele>
        <time>2019-07-18T22:09:29Z</time>
      </trkpt>
      <trkpt lat="45.03308" lon="4.70804">
        <ele>494</ele>
        <time>2019-07-18T22:09:32Z</time>
      </trkpt>
      <trkpt lat="45.03299" lon="4.70782">
        <ele>493</ele>
        <time>2019-07-18T22:09:35Z</time>
      </trkpt>
      <trkpt lat="45.03273" lon="4.7068">
        <ele>488</ele>
        <time>2019-07-18T22:09:48Z</time>
      </trkpt>
      <trkpt lat="45.03267" lon="4.70663">
        <ele>487</ele>
        <time>2019-07-18T22:09:51Z</time>
      </trkpt>
      <trkpt lat="45.03258" lon="4.70648">
        <ele>487</ele>
        <time>2019-07-18T22:09:53Z</time>
      </trkpt>
      <trkpt lat="45.0324" lon="4.7063">
        <ele>488</ele>
        <time>2019-07-18T22:09:57Z</time>
      </trkpt>
      <trkpt lat="45.03196" lon="4.70592">
        <ele>495</ele>
        <time>2019-07-18T22:10:06Z</time>
      </trkpt>
      <trkpt lat="45.03166" lon="4.70561">
        <ele>498</ele>
        <time>2019-07-18T22:10:13Z</time>
      </trkpt>
      <trkpt lat="45.03032" lon="4.70357">
        <ele>493</ele>
        <time>2019-07-18T22:10:48Z</time>
      </trkpt>
      <trkpt lat="45.0301" lon="4.70337">
        <ele>492</ele>
        <time>2019-07-18T22:10:53Z</time>
      </trkpt>
      <trkpt lat="45.02991" lon="4.70328">
        <ele>493</ele>
        <time>2019-07-18T22:10:56Z</time>
      </trkpt>
      <trkpt lat="45.02873" lon="4.70293">
        <ele>492</ele>
        <time>2019-07-18T22:11:18Z</time>
      </trkpt>
      <trkpt lat="45.02854" lon="4.70291">
        <ele>492</ele>
        <time>2019-07-18T22:11:21Z</time>
      </trkpt>
      <trkpt lat="45.02842" lon="4.70293">
        <ele>492</ele>
        <time>2019-07-18T22:11:23Z</time>
      </trkpt>
      <trkpt lat="45.02807" lon="4.70307">
        <ele>492</ele>
        <time>2019-07-18T22:11:30Z</time>
      </trkpt>
      <trkpt lat="45.02785" lon="4.70322">
        <ele>492</ele>
        <time>2019-07-18T22:11:34Z</time>
      </trkpt>
      <trkpt lat="45.02772" lon="4.70336">
        <ele>493</ele>
        <time>2019-07-18T22:11:37Z</time>
      </trkpt>
      <trkpt lat="45.02755" lon="4.7036">
        <ele>495</ele>
        <time>2019-07-18T22:11:41Z</time>
      </trkpt>
      <trkpt lat="45.0274" lon="4.70374">
        <ele>497</ele>
        <time>2019-07-18T22:11:44Z</time>
      </trkpt>
      <trkpt lat="45.02723" lon="4.70377">
        <ele>499</ele>
        <time>2019-07-18T22:11:48Z</time>
      </trkpt>
      <trkpt lat="45.02672" lon="4.70376">
        <ele>504</ele>
        <time>2019-07-18T22:11:57Z</time>
      </trkpt>
      <trkpt lat="45.02657" lon="4.70368">
        <ele>505</ele>
        <time>2019-07-18T22:11:59Z</time>
      </trkpt>
      <trkpt lat="45.02645" lon="4.70352">
        <ele>504</ele>
        <time>2019-07-18T22:12:02Z</time>
      </trkpt>
      <trkpt lat="45.0264" lon="4.70328">
        <ele>502</ele>
        <time>2019-07-18T22:12:06Z</time>
      </trkpt>
      <trkpt lat="45.02638" lon="4.70315">
        <ele>501</ele>
        <time>2019-07-18T22:12:07Z</time>
      </trkpt>
      <trkpt lat="45.02641" lon="4.7027">
        <ele>495</ele>
        <time>2019-07-18T22:12:13Z</time>
      </trkpt>
      <trkpt lat="45.02633" lon="4.70241">
        <ele>495</ele>
        <time>2019-07-18T22:12:17Z</time>
      </trkpt>
      <trkpt lat="45.0261" lon="4.70205">
        <ele>498</ele>
        <time>2019-07-18T22:12:23Z</time>
      </trkpt>
      <trkpt lat="45.02601" lon="4.70181">
        <ele>499</ele>
        <time>2019-07-18T22:12:26Z</time>
      </trkpt>
      <trkpt lat="45.02605" lon="4.70145">
        <ele>498</ele>
        <time>2019-07-18T22:12:31Z</time>
      </trkpt>
      <trkpt lat="45.02622" lon="4.70084">
        <ele>497</ele>
        <time>2019-07-18T22:12:39Z</time>
      </trkpt>
      <trkpt lat="45.02648" lon="4.70003">
        <ele>498</ele>
        <time>2019-07-18T22:12:50Z</time>
      </trkpt>
      <trkpt lat="45.02653" lon="4.6997">
        <ele>497</ele>
        <time>2019-07-18T22:12:55Z</time>
      </trkpt>
      <trkpt lat="45.02653" lon="4.69947">
        <ele>496</ele>
        <time>2019-07-18T22:12:57Z</time>
      </trkpt>
      <trkpt lat="45.02647" lon="4.69921">
        <ele>497</ele>
        <time>2019-07-18T22:13:01Z</time>
      </trkpt>
      <trkpt lat="45.02643" lon="4.69883">
        <ele>499</ele>
        <time>2019-07-18T22:13:06Z</time>
      </trkpt>
      <trkpt lat="45.02648" lon="4.69846">
        <ele>498</ele>
        <time>2019-07-18T22:13:10Z</time>
      </trkpt>
      <trkpt lat="45.02663" lon="4.69806">
        <ele>495</ele>
        <time>2019-07-18T22:13:16Z</time>
      </trkpt>
      <trkpt lat="45.02663" lon="4.69774">
        <ele>495</ele>
        <time>2019-07-18T22:13:20Z</time>
      </trkpt>
      <trkpt lat="45.02659" lon="4.6974">
        <ele>495</ele>
        <time>2019-07-18T22:13:25Z</time>
      </trkpt>
      <trkpt lat="45.02643" lon="4.69716">
        <ele>496</ele>
        <time>2019-07-18T22:13:29Z</time>
      </trkpt>
      <trkpt lat="45.0255" lon="4.69624">
        <ele>502</ele>
        <time>2019-07-18T22:13:49Z</time>
      </trkpt>
      <trkpt lat="45.02496" lon="4.69552">
        <ele>505</ele>
        <time>2019-07-18T22:14:02Z</time>
      </trkpt>
      <trkpt lat="45.02473" lon="4.69509">
        <ele>504</ele>
        <time>2019-07-18T22:14:09Z</time>
      </trkpt>
      <trkpt lat="45.0244" lon="4.69472">
        <ele>503</ele>
        <time>2019-07-18T22:14:16Z</time>
      </trkpt>
      <trkpt lat="45.02337" lon="4.69388">
        <ele>498</ele>
        <time>2019-07-18T22:14:37Z</time>
      </trkpt>
      <trkpt lat="45.02283" lon="4.69363">
        <ele>502</ele>
        <time>2019-07-18T22:14:48Z</time>
      </trkpt>
      <trkpt lat="45.02252" lon="4.6934">
        <ele>501</ele>
        <time>2019-07-18T22:14:54Z</time>
      </trkpt>
      <trkpt lat="45.02235" lon="4.69319">
        <ele>500</ele>
        <time>2019-07-18T22:14:58Z</time>
      </trkpt>
      <trkpt lat="45.02221" lon="4.69285">
        <ele>497</ele>
        <time>2019-07-18T22:15:03Z</time>
      </trkpt>
      <trkpt lat="45.02213" lon="4.69273">
        <ele>496</ele>
        <time>2019-07-18T22:15:05Z</time>
      </trkpt>
      <trkpt lat="45.02135" lon="4.69208">
        <ele>504</ele>
        <time>2019-07-18T22:15:21Z</time>
      </trkpt>
      <trkpt lat="45.02121" lon="4.69193">
        <ele>504</ele>
        <time>2019-07-18T22:15:24Z</time>
      </trkpt>
      <trkpt lat="45.02109" lon="4.69171">
        <ele>502</ele>
        <time>2019-07-18T22:15:28Z</time>
      </trkpt>
      <trkpt lat="45.02103" lon="4.69152">
        <ele>501</ele>
        <time>2019-07-18T22:15:30Z</time>
      </trkpt>
      <trkpt lat="45.02104" lon="4.6912">
        <ele>499</ele>
        <time>2019-07-18T22:15:34Z</time>
      </trkpt>
      <trkpt lat="45.02131" lon="4.68933">
        <ele>496</ele>
        <time>2019-07-18T22:15:58Z</time>
      </trkpt>
      <trkpt lat="45.02131" lon="4.6892">
        <ele>496</ele>
        <time>2019-07-18T22:16:00Z</time>
      </trkpt>
      <trkpt lat="45.02129" lon="4.68894">
        <ele>495</ele>
        <time>2019-07-18T22:16:03Z</time>
      </trkpt>
      <trkpt lat="45.02122" lon="4.68872">
        <ele>494</ele>
        <time>2019-07-18T22:16:06Z</time>
      </trkpt>
      <trkpt lat="45.02105" lon="4.68856">
        <ele>495</ele>
        <time>2019-07-18T22:16:10Z</time>
      </trkpt>
      <trkpt lat="45.02033" lon="4.68806">
        <ele>502</ele>
        <time>2019-07-18T22:16:24Z</time>
      </trkpt>
      <trkpt lat="45.02024" lon="4.68791">
        <ele>503</ele>
        <time>2019-07-18T22:16:27Z</time>
      </trkpt>
      <trkpt lat="45.02018" lon="4.68776">
        <ele>503</ele>
        <time>2019-07-18T22:16:29Z</time>
      </trkpt>
      <trkpt lat="45.02018" lon="4.68754">
        <ele>501</ele>
        <time>2019-07-18T22:16:32Z</time>
      </trkpt>
      <trkpt lat="45.02026" lon="4.68726">
        <ele>501</ele>
        <time>2019-07-18T22:16:35Z</time>
      </trkpt>
      <trkpt lat="45.02086" lon="4.68686">
        <ele>491</ele>
        <time>2019-07-18T22:16:47Z</time>
      </trkpt>
      <trkpt lat="45.02093" lon="4.6867">
        <ele>490</ele>
        <time>2019-07-18T22:16:49Z</time>
      </trkpt>
      <trkpt lat="45.02097" lon="4.68652">
        <ele>490</ele>
        <time>2019-07-18T22:16:52Z</time>
      </trkpt>
      <trkpt lat="45.02099" lon="4.68633">
        <ele>491</ele>
        <time>2019-07-18T22:16:54Z</time>
      </trkpt>
      <trkpt lat="45.02099" lon="4.68587">
        <ele>493</ele>
        <time>2019-07-18T22:17:00Z</time>
      </trkpt>
      <trkpt lat="45.02104" lon="4.68565">
        <ele>495</ele>
        <time>2019-07-18T22:17:03Z</time>
      </trkpt>
      <trkpt lat="45.02113" lon="4.6855">
        <ele>495</ele>
        <time>2019-07-18T22:17:05Z</time>
      </trkpt>
      <trkpt lat="45.02126" lon="4.68538">
        <ele>495</ele>
        <time>2019-07-18T22:17:08Z</time>
      </trkpt>
      <trkpt lat="45.02152" lon="4.68532">
        <ele>491</ele>
        <time>2019-07-18T22:17:13Z</time>
      </trkpt>
      <trkpt lat="45.02169" lon="4.68524">
        <ele>489</ele>
        <time>2019-07-18T22:17:16Z</time>
      </trkpt>
      <trkpt lat="45.02177" lon="4.68513">
        <ele>488</ele>
        <time>2019-07-18T22:17:18Z</time>
      </trkpt>
      <trkpt lat="45.02183" lon="4.68501">
        <ele>488</ele>
        <time>2019-07-18T22:17:20Z</time>
      </trkpt>
      <trkpt lat="45.02159" lon="4.68419">
        <ele>494</ele>
        <time>2019-07-18T22:17:31Z</time>
      </trkpt>
      <trkpt lat="45.02147" lon="4.68393">
        <ele>495</ele>
        <time>2019-07-18T22:17:35Z</time>
      </trkpt>
      <trkpt lat="45.02118" lon="4.6836">
        <ele>500</ele>
        <time>2019-07-18T22:17:42Z</time>
      </trkpt>
      <trkpt lat="45.02107" lon="4.68341">
        <ele>502</ele>
        <time>2019-07-18T22:17:45Z</time>
      </trkpt>
      <trkpt lat="45.02104" lon="4.68318">
        <ele>506</ele>
        <time>2019-07-18T22:17:48Z</time>
      </trkpt>
      <trkpt lat="45.0211" lon="4.68295">
        <ele>509</ele>
        <time>2019-07-18T22:17:51Z</time>
      </trkpt>
      <trkpt lat="45.02116" lon="4.68281">
        <ele>511</ele>
        <time>2019-07-18T22:17:53Z</time>
      </trkpt>
      <trkpt lat="45.02129" lon="4.68269">
        <ele>511</ele>
        <time>2019-07-18T22:17:56Z</time>
      </trkpt>
      <trkpt lat="45.02143" lon="4.68268">
        <ele>509</ele>
        <time>2019-07-18T22:17:58Z</time>
      </trkpt>
      <trkpt lat="45.02286" lon="4.68283">
        <ele>488</ele>
        <time>2019-07-18T22:18:24Z</time>
      </trkpt>
      <trkpt lat="45.02311" lon="4.68281">
        <ele>487</ele>
        <time>2019-07-18T22:18:28Z</time>
      </trkpt>
      <trkpt lat="45.02334" lon="4.68267">
        <ele>489</ele>
        <time>2019-07-18T22:18:32Z</time>
      </trkpt>
      <trkpt lat="45.02355" lon="4.6825">
        <ele>487</ele>
        <time>2019-07-18T22:18:37Z</time>
      </trkpt>
      <trkpt lat="45.02472" lon="4.68029">
        <ele>488</ele>
        <time>2019-07-18T22:19:11Z</time>
      </trkpt>
      <trkpt lat="45.02493" lon="4.68009">
        <ele>486</ele>
        <time>2019-07-18T22:19:16Z</time>
      </trkpt>
      <trkpt lat="45.02511" lon="4.67985">
        <ele>485</ele>
        <time>2019-07-18T22:19:20Z</time>
      </trkpt>
      <trkpt lat="45.02533" lon="4.67951">
        <ele>484</ele>
        <time>2019-07-18T22:19:26Z</time>
      </trkpt>
      <trkpt lat="45.02545" lon="4.67922">
        <ele>483</ele>
        <time>2019-07-18T22:19:30Z</time>
      </trkpt>
      <trkpt lat="45.02576" lon="4.67825">
        <ele>478</ele>
        <time>2019-07-18T22:19:44Z</time>
      </trkpt>
      <trkpt lat="45.02578" lon="4.67801">
        <ele>477</ele>
        <time>2019-07-18T22:19:47Z</time>
      </trkpt>
      <trkpt lat="45.02574" lon="4.67779">
        <ele>477</ele>
        <time>2019-07-18T22:19:50Z</time>
      </trkpt>
      <trkpt lat="45.02564" lon="4.67755">
        <ele>479</ele>
        <time>2019-07-18T22:19:53Z</time>
      </trkpt>
      <trkpt lat="45.02463" lon="4.67574">
        <ele>478</ele>
        <time>2019-07-18T22:20:22Z</time>
      </trkpt>
      <trkpt lat="45.02441" lon="4.67539">
        <ele>477</ele>
        <time>2019-07-18T22:20:28Z</time>
      </trkpt>
      <trkpt lat="45.02422" lon="4.67517">
        <ele>478</ele>
        <time>2019-07-18T22:20:32Z</time>
      </trkpt>
      <trkpt lat="45.02398" lon="4.6751">
        <ele>479</ele>
        <time>2019-07-18T22:20:37Z</time>
      </trkpt>
      <trkpt lat="45.02353" lon="4.67506">
        <ele>483</ele>
        <time>2019-07-18T22:20:45Z</time>
      </trkpt>
      <trkpt lat="45.02329" lon="4.6749">
        <ele>483</ele>
        <time>2019-07-18T22:20:50Z</time>
      </trkpt>
      <trkpt lat="45.02307" lon="4.67458">
        <ele>480</ele>
        <time>2019-07-18T22:20:55Z</time>
      </trkpt>
      <trkpt lat="45.02252" lon="4.67421">
        <ele>482</ele>
        <time>2019-07-18T22:21:06Z</time>
      </trkpt>
      <trkpt lat="45.02239" lon="4.67409">
        <ele>482</ele>
        <time>2019-07-18T22:21:09Z</time>
      </trkpt>
      <trkpt lat="45.02222" lon="4.67383">
        <ele>481</ele>
        <time>2019-07-18T22:21:13Z</time>
      </trkpt>
      <trkpt lat="45.02206" lon="4.67327">
        <ele>478</ele>
        <time>2019-07-18T22:21:21Z</time>
      </trkpt>
      <trkpt lat="45.02193" lon="4.67299">
        <ele>476</ele>
        <time>2019-07-18T22:21:25Z</time>
      </trkpt>
      <trkpt lat="45.02172" lon="4.67276">
        <ele>477</ele>
        <time>2019-07-18T22:21:30Z</time>
      </trkpt>
      <trkpt lat="45.02116" lon="4.67228">
        <ele>479</ele>
        <time>2019-07-18T22:21:41Z</time>
      </trkpt>
      <trkpt lat="45.02072" lon="4.67187">
        <ele>481</ele>
        <time>2019-07-18T22:21:51Z</time>
      </trkpt>
      <trkpt lat="45.02008" lon="4.67141">
        <ele>481</ele>
        <time>2019-07-18T22:22:04Z</time>
      </trkpt>
      <trkpt lat="45.01987" lon="4.67121">
        <ele>479</ele>
        <time>2019-07-18T22:22:08Z</time>
      </trkpt>
      <trkpt lat="45.01973" lon="4.67115">
        <ele>479</ele>
        <time>2019-07-18T22:22:11Z</time>
      </trkpt>
      <trkpt lat="45.01958" lon="4.67112">
        <ele>479</ele>
        <time>2019-07-18T22:22:13Z</time>
      </trkpt>
      <trkpt lat="45.01934" lon="4.67127">
        <ele>483</ele>
        <time>2019-07-18T22:22:18Z</time>
      </trkpt>
      <trkpt lat="45.01913" lon="4.67136">
        <ele>485</ele>
        <time>2019-07-18T22:22:22Z</time>
      </trkpt>
      <trkpt lat="45.01898" lon="4.67134">
        <ele>488</ele>
        <time>2019-07-18T22:22:25Z</time>
      </trkpt>
      <trkpt lat="45.01891" lon="4.67128">
        <ele>489</ele>
        <time>2019-07-18T22:22:26Z</time>
      </trkpt>
      <trkpt lat="45.01885" lon="4.67119">
        <ele>489</ele>
        <time>2019-07-18T22:22:28Z</time>
      </trkpt>
      <trkpt lat="45.01871" lon="4.67085">
        <ele>488</ele>
        <time>2019-07-18T22:22:33Z</time>
      </trkpt>
      <trkpt lat="45.01855" lon="4.67037">
        <ele>488</ele>
        <time>2019-07-18T22:22:39Z</time>
      </trkpt>
      <trkpt lat="45.01848" lon="4.67006">
        <ele>488</ele>
        <time>2019-07-18T22:22:43Z</time>
      </trkpt>
      <trkpt lat="45.01848" lon="4.66924">
        <ele>484</ele>
        <time>2019-07-18T22:22:54Z</time>
      </trkpt>
      <trkpt lat="45.01852" lon="4.66902">
        <ele>481</ele>
        <time>2019-07-18T22:22:57Z</time>
      </trkpt>
      <trkpt lat="45.01849" lon="4.66871">
        <ele>480</ele>
        <time>2019-07-18T22:23:00Z</time>
      </trkpt>
      <trkpt lat="45.0184" lon="4.66852">
        <ele>482</ele>
        <time>2019-07-18T22:23:03Z</time>
      </trkpt>
      <trkpt lat="45.01821" lon="4.66781">
        <ele>473</ele>
        <time>2019-07-18T22:23:13Z</time>
      </trkpt>
      <trkpt lat="45.01813" lon="4.66765">
        <ele>471</ele>
        <time>2019-07-18T22:23:15Z</time>
      </trkpt>
      <trkpt lat="45.01798" lon="4.66751">
        <ele>469</ele>
        <time>2019-07-18T22:23:19Z</time>
      </trkpt>
      <trkpt lat="45.01775" lon="4.66746">
        <ele>470</ele>
        <time>2019-07-18T22:23:23Z</time>
      </trkpt>
      <trkpt lat="45.01757" lon="4.66746">
        <ele>472</ele>
        <time>2019-07-18T22:23:26Z</time>
      </trkpt>
      <trkpt lat="45.0169" lon="4.66764">
        <ele>478</ele>
        <time>2019-07-18T22:23:38Z</time>
      </trkpt>
      <trkpt lat="45.01665" lon="4.66766">
        <ele>479</ele>
        <time>2019-07-18T22:23:42Z</time>
      </trkpt>
      <trkpt lat="45.01507" lon="4.66756">
        <ele>478</ele>
        <time>2019-07-18T22:24:11Z</time>
      </trkpt>
      <trkpt lat="45.01489" lon="4.66748">
        <ele>476</ele>
        <time>2019-07-18T22:24:14Z</time>
      </trkpt>
      <trkpt lat="45.01476" lon="4.66735">
        <ele>474</ele>
        <time>2019-07-18T22:24:17Z</time>
      </trkpt>
      <trkpt lat="45.01455" lon="4.66721">
        <ele>472</ele>
        <time>2019-07-18T22:24:21Z</time>
      </trkpt>
      <trkpt lat="45.01431" lon="4.66711">
        <ele>472</ele>
        <time>2019-07-18T22:24:25Z</time>
      </trkpt>
      <trkpt lat="45.01401" lon="4.6671">
        <ele>474</ele>
        <time>2019-07-18T22:24:31Z</time>
      </trkpt>
      <trkpt lat="45.01381" lon="4.66707">
        <ele>475</ele>
        <time>2019-07-18T22:24:34Z</time>
      </trkpt>
      <trkpt lat="45.01368" lon="4.66701">
        <ele>474</ele>
        <time>2019-07-18T22:24:37Z</time>
      </trkpt>
      <trkpt lat="45.0135" lon="4.66682">
        <ele>472</ele>
        <time>2019-07-18T22:24:41Z</time>
      </trkpt>
      <trkpt lat="45.01339" lon="4.66663">
        <ele>470</ele>
        <time>2019-07-18T22:24:44Z</time>
      </trkpt>
      <trkpt lat="45.01319" lon="4.66647">
        <ele>471</ele>
        <time>2019-07-18T22:24:48Z</time>
      </trkpt>
      <trkpt lat="45.01301" lon="4.66634">
        <ele>473</ele>
        <time>2019-07-18T22:24:51Z</time>
      </trkpt>
      <trkpt lat="45.01264" lon="4.6662">
        <ele>477</ele>
        <time>2019-07-18T22:24:58Z</time>
      </trkpt>
      <trkpt lat="45.01252" lon="4.66606">
        <ele>477</ele>
        <time>2019-07-18T22:25:01Z</time>
      </trkpt>
      <trkpt lat="45.01247" lon="4.66591">
        <ele>476</ele>
        <time>2019-07-18T22:25:03Z</time>
      </trkpt>
      <trkpt lat="45.01247" lon="4.66574">
        <ele>478</ele>
        <time>2019-07-18T22:25:05Z</time>
      </trkpt>
      <trkpt lat="45.01255" lon="4.66552">
        <ele>481</ele>
        <time>2019-07-18T22:25:08Z</time>
      </trkpt>
      <trkpt lat="45.01269" lon="4.6654">
        <ele>482</ele>
        <time>2019-07-18T22:25:11Z</time>
      </trkpt>
      <trkpt lat="45.01288" lon="4.66531">
        <ele>482</ele>
        <time>2019-07-18T22:25:15Z</time>
      </trkpt>
      <trkpt lat="45.01378" lon="4.66517">
        <ele>476</ele>
        <time>2019-07-18T22:25:31Z</time>
      </trkpt>
      <trkpt lat="45.01428" lon="4.66503">
        <ele>473</ele>
        <time>2019-07-18T22:25:40Z</time>
      </trkpt>
      <trkpt lat="45.01463" lon="4.66487">
        <ele>471</ele>
        <time>2019-07-18T22:25:47Z</time>
      </trkpt>
      <trkpt lat="45.01498" lon="4.66466">
        <ele>472</ele>
        <time>2019-07-18T22:25:53Z</time>
      </trkpt>
      <trkpt lat="45.01646" lon="4.66366">
        <ele>464</ele>
        <time>2019-07-18T22:26:23Z</time>
      </trkpt>
      <trkpt lat="45.01708" lon="4.66317">
        <ele>467</ele>
        <time>2019-07-18T22:26:35Z</time>
      </trkpt>
      <trkpt lat="45.0186" lon="4.66239">
        <ele>463</ele>
        <time>2019-07-18T22:27:04Z</time>
      </trkpt>
      <trkpt lat="45.01891" lon="4.66214">
        <ele>461</ele>
        <time>2019-07-18T22:27:10Z</time>
      </trkpt>
      <trkpt lat="45.01906" lon="4.66183">
        <ele>463</ele>
        <time>2019-07-18T22:27:15Z</time>
      </trkpt>
      <trkpt lat="45.01912" lon="4.66139">
        <ele>463</ele>
        <time>2019-07-18T22:27:21Z</time>
      </trkpt>
      <trkpt lat="45.01912" lon="4.66096">
        <ele>461</ele>
        <time>2019-07-18T22:27:26Z</time>
      </trkpt>
      <trkpt lat="45.01898" lon="4.66055">
        <ele>459</ele>
        <time>2019-07-18T22:27:32Z</time>
      </trkpt>
      <trkpt lat="45.01877" lon="4.66024">
        <ele>459</ele>
        <time>2019-07-18T22:27:37Z</time>
      </trkpt>
      <trkpt lat="45.01851" lon="4.66006">
        <ele>462</ele>
        <time>2019-07-18T22:27:42Z</time>
      </trkpt>
      <trkpt lat="45.01812" lon="4.65988">
        <ele>465</ele>
        <time>2019-07-18T22:27:50Z</time>
      </trkpt>
      <trkpt lat="45.01763" lon="4.65952">
        <ele>463</ele>
        <time>2019-07-18T22:27:59Z</time>
      </trkpt>
      <trkpt lat="45.01651" lon="4.65862">
        <ele>466</ele>
        <time>2019-07-18T22:28:22Z</time>
      </trkpt>
      <trkpt lat="45.01625" lon="4.65789">
        <ele>455</ele>
        <time>2019-07-18T22:28:33Z</time>
      </trkpt>
      <trkpt lat="45.01617" lon="4.65772">
        <ele>454</ele>
        <time>2019-07-18T22:28:35Z</time>
      </trkpt>
      <trkpt lat="45.01598" lon="4.65747">
        <ele>453</ele>
        <time>2019-07-18T22:28:40Z</time>
      </trkpt>
      <trkpt lat="45.01549" lon="4.65692">
        <ele>452</ele>
        <time>2019-07-18T22:28:51Z</time>
      </trkpt>
      <trkpt lat="45.01522" lon="4.65678">
        <ele>454</ele>
        <time>2019-07-18T22:28:56Z</time>
      </trkpt>
      <trkpt lat="45.01416" lon="4.6563">
        <ele>461</ele>
        <time>2019-07-18T22:29:16Z</time>
      </trkpt>
      <trkpt lat="45.01408" lon="4.65619">
        <ele>462</ele>
        <time>2019-07-18T22:29:18Z</time>
      </trkpt>
      <trkpt lat="45.01405" lon="4.65601">
        <ele>462</ele>
        <time>2019-07-18T22:29:20Z</time>
      </trkpt>
      <trkpt lat="45.01407" lon="4.65587">
        <ele>461</ele>
        <time>2019-07-18T22:29:22Z</time>
      </trkpt>
      <trkpt lat="45.01413" lon="4.65575">
        <ele>459</ele>
        <time>2019-07-18T22:29:24Z</time>
      </trkpt>
      <trkpt lat="45.01435" lon="4.65552">
        <ele>456</ele>
        <time>2019-07-18T22:29:29Z</time>
      </trkpt>
      <trkpt lat="45.01453" lon="4.65526">
        <ele>453</ele>
        <time>2019-07-18T22:29:33Z</time>
      </trkpt>
      <trkpt lat="45.01458" lon="4.65512">
        <ele>453</ele>
        <time>2019-07-18T22:29:35Z</time>
      </trkpt>
      <trkpt lat="45.01459" lon="4.65495">
        <ele>453</ele>
        <time>2019-07-18T22:29:37Z</time>
      </trkpt>
      <trkpt lat="45.01453" lon="4.65415">
        <ele>453</ele>
        <time>2019-07-18T22:29:48Z</time>
      </trkpt>
      <trkpt lat="45.01456" lon="4.65409">
        <ele>452</ele>
        <time>2019-07-18T22:29:48Z</time>
      </trkpt>
      <trkpt lat="45.01438" lon="4.65363">
        <ele>456</ele>
        <time>2019-07-18T22:29:55Z</time>
      </trkpt>
      <trkpt lat="45.01435" lon="4.65345">
        <ele>456</ele>
        <time>2019-07-18T22:29:57Z</time>
      </trkpt>
      <trkpt lat="45.01422" lon="4.65194">
        <ele>455</ele>
        <time>2019-07-18T22:30:17Z</time>
      </trkpt>
      <trkpt lat="45.01409" lon="4.65126">
        <ele>455</ele>
        <time>2019-07-18T22:30:25Z</time>
      </trkpt>
      <trkpt lat="45.01378" lon="4.64991">
        <ele>453</ele>
        <time>2019-07-18T22:30:43Z</time>
      </trkpt>
      <trkpt lat="45.01365" lon="4.64908">
        <ele>456</ele>
        <time>2019-07-18T22:30:54Z</time>
      </trkpt>
      <trkpt lat="45.01348" lon="4.64782">
        <ele>459</ele>
        <time>2019-07-18T22:31:10Z</time>
      </trkpt>
      <trkpt lat="45.01349" lon="4.6473">
        <ele>459</ele>
        <time>2019-07-18T22:31:17Z</time>
      </trkpt>
      <trkpt lat="45.01343" lon="4.64672">
        <ele>460</ele>
        <time>2019-07-18T22:31:24Z</time>
      </trkpt>
      <trkpt lat="45.01349" lon="4.64635">
        <ele>460</ele>
        <time>2019-07-18T22:31:29Z</time>
      </trkpt>
      <trkpt lat="45.01355" lon="4.64589">
        <ele>460</ele>
        <time>2019-07-18T22:31:35Z</time>
      </trkpt>
      <trkpt lat="45.01353" lon="4.6456">
        <ele>461</ele>
        <time>2019-07-18T22:31:38Z</time>
      </trkpt>
      <trkpt lat="45.01341" lon="4.64511">
        <ele>462</ele>
        <time>2019-07-18T22:31:45Z</time>
      </trkpt>
      <trkpt lat="45.01313" lon="4.64432">
        <ele>464</ele>
        <time>2019-07-18T22:31:56Z</time>
      </trkpt>
      <trkpt lat="45.0129" lon="4.64357">
        <ele>467</ele>
        <time>2019-07-18T22:32:06Z</time>
      </trkpt>
      <trkpt lat="45.01277" lon="4.64274">
        <ele>468</ele>
        <time>2019-07-18T22:32:17Z</time>
      </trkpt>
      <trkpt lat="45.01273" lon="4.64231">
        <ele>469</ele>
        <time>2019-07-18T22:32:22Z</time>
      </trkpt>
      <trkpt lat="45.01257" lon="4.6418">
        <ele>471</ele>
        <time>2019-07-18T22:32:29Z</time>
      </trkpt>
      <trkpt lat="45.01222" lon="4.64017">
        <ele>473</ele>
        <time>2019-07-18T22:32:51Z</time>
      </trkpt>
      <trkpt lat="45.01204" lon="4.63899">
        <ele>478</ele>
        <time>2019-07-18T22:33:06Z</time>
      </trkpt>
      <trkpt lat="45.01189" lon="4.6383">
        <ele>479</ele>
        <time>2019-07-18T22:33:15Z</time>
      </trkpt>
      <trkpt lat="45.01168" lon="4.63776">
        <ele>476</ele>
        <time>2019-07-18T22:33:23Z</time>
      </trkpt>
      <trkpt lat="45.0114" lon="4.63742">
        <ele>478</ele>
        <time>2019-07-18T22:33:29Z</time>
      </trkpt>
      <trkpt lat="45.01066" lon="4.63637">
        <ele>477</ele>
        <time>2019-07-18T22:33:48Z</time>
      </trkpt>
      <trkpt lat="45.01026" lon="4.63606">
        <ele>481</ele>
        <time>2019-07-18T22:33:56Z</time>
      </trkpt>
      <trkpt lat="45.00993" lon="4.63565">
        <ele>481</ele>
        <time>2019-07-18T22:34:04Z</time>
      </trkpt>
      <trkpt lat="45.00974" lon="4.63528">
        <ele>481</ele>
        <time>2019-07-18T22:34:10Z</time>
      </trkpt>
      <trkpt lat="45.00938" lon="4.63424">
        <ele>474</ele>
        <time>2019-07-18T22:34:24Z</time>
      </trkpt>
      <trkpt lat="45.00878" lon="4.63325">
        <ele>480</ele>
        <time>2019-07-18T22:34:41Z</time>
      </trkpt>
      <trkpt lat="45.00848" lon="4.63284">
        <ele>482</ele>
        <time>2019-07-18T22:34:48Z</time>
      </trkpt>
      <trkpt lat="45.00839" lon="4.63225">
        <ele>477</ele>
        <time>2019-07-18T22:34:56Z</time>
      </trkpt>
      <trkpt lat="45.00838" lon="4.63182">
        <ele>475</ele>
        <time>2019-07-18T22:35:01Z</time>
      </trkpt>
      <trkpt lat="45.0082" lon="4.63147">
        <ele>475</ele>
        <time>2019-07-18T22:35:07Z</time>
      </trkpt>
      <trkpt lat="45.00798" lon="4.63138">
        <ele>476</ele>
        <time>2019-07-18T22:35:11Z</time>
      </trkpt>
      <trkpt lat="45.00688" lon="4.63121">
        <ele>478</ele>
        <time>2019-07-18T22:35:30Z</time>
      </trkpt>
      <trkpt lat="45.0067" lon="4.63129">
        <ele>480</ele>
        <time>2019-07-18T22:35:34Z</time>
      </trkpt>
      <trkpt lat="45.00645" lon="4.63147">
        <ele>485</ele>
        <time>2019-07-18T22:35:39Z</time>
      </trkpt>
      <trkpt lat="45.00624" lon="4.63158">
        <ele>487</ele>
        <time>2019-07-18T22:35:43Z</time>
      </trkpt>
      <trkpt lat="45.00603" lon="4.63155">
        <ele>486</ele>
        <time>2019-07-18T22:35:46Z</time>
      </trkpt>
      <trkpt lat="45.00576" lon="4.63127">
        <ele>482</ele>
        <time>2019-07-18T22:35:52Z</time>
      </trkpt>
      <trkpt lat="45.00562" lon="4.63121">
        <ele>482</ele>
        <time>2019-07-18T22:35:55Z</time>
      </trkpt>
      <trkpt lat="45.00508" lon="4.63106">
        <ele>480</ele>
        <time>2019-07-18T22:36:05Z</time>
      </trkpt>
      <trkpt lat="45.00476" lon="4.6311">
        <ele>478</ele>
        <time>2019-07-18T22:36:11Z</time>
      </trkpt>
      <trkpt lat="45.00448" lon="4.63121">
        <ele>478</ele>
        <time>2019-07-18T22:36:16Z</time>
      </trkpt>
      <trkpt lat="45.00423" lon="4.63136">
        <ele>480</ele>
        <time>2019-07-18T22:36:21Z</time>
      </trkpt>
      <trkpt lat="45.00402" lon="4.63151">
        <ele>482</ele>
        <time>2019-07-18T22:36:25Z</time>
      </trkpt>
      <trkpt lat="45.00366" lon="4.6317">
        <ele>484</ele>
        <time>2019-07-18T22:36:32Z</time>
      </trkpt>
      <trkpt lat="45.00317" lon="4.63164">
        <ele>479</ele>
        <time>2019-07-18T22:36:40Z</time>
      </trkpt>
      <trkpt lat="45.00289" lon="4.63167">
        <ele>481</ele>
        <time>2019-07-18T22:36:45Z</time>
      </trkpt>
      <trkpt lat="45.00265" lon="4.63175">
        <ele>484</ele>
        <time>2019-07-18T22:36:50Z</time>
      </trkpt>
      <trkpt lat="45.00219" lon="4.63151">
        <ele>480</ele>
        <time>2019-07-18T22:36:58Z</time>
      </trkpt>
      <trkpt lat="45.00191" lon="4.63142">
        <ele>480</ele>
        <time>2019-07-18T22:37:04Z</time>
      </trkpt>
      <trkpt lat="45.0017" lon="4.63142">
        <ele>481</ele>
        <time>2019-07-18T22:37:07Z</time>
      </trkpt>
      <trkpt lat="45.00148" lon="4.63135">
        <ele>484</ele>
        <time>2019-07-18T22:37:11Z</time>
      </trkpt>
      <trkpt lat="45.00135" lon="4.63121">
        <ele>485</ele>
        <time>2019-07-18T22:37:14Z</time>
      </trkpt>
      <trkpt lat="45.00129" lon="4.63091">
        <ele>484</ele>
        <time>2019-07-18T22:37:18Z</time>
      </trkpt>
      <trkpt lat="45.0013" lon="4.6306">
        <ele>482</ele>
        <time>2019-07-18T22:37:22Z</time>
      </trkpt>
      <trkpt lat="45.00158" lon="4.62978">
        <ele>474</ele>
        <time>2019-07-18T22:37:33Z</time>
      </trkpt>
      <trkpt lat="45.00161" lon="4.62948">
        <ele>473</ele>
        <time>2019-07-18T22:37:37Z</time>
      </trkpt>
      <trkpt lat="45.00152" lon="4.62917">
        <ele>473</ele>
        <time>2019-07-18T22:37:42Z</time>
      </trkpt>
      <trkpt lat="45.00133" lon="4.62895">
        <ele>473</ele>
        <time>2019-07-18T22:37:46Z</time>
      </trkpt>
      <trkpt lat="45.00093" lon="4.62854">
        <ele>473</ele>
        <time>2019-07-18T22:37:55Z</time>
      </trkpt>
      <trkpt lat="45.00078" lon="4.62828">
        <ele>474</ele>
        <time>2019-07-18T22:37:59Z</time>
      </trkpt>
      <trkpt lat="45.00073" lon="4.62797">
        <ele>475</ele>
        <time>2019-07-18T22:38:03Z</time>
      </trkpt>
      <trkpt lat="45.00079" lon="4.62769">
        <ele>474</ele>
        <time>2019-07-18T22:38:07Z</time>
      </trkpt>
      <trkpt lat="45.00096" lon="4.62748">
        <ele>474</ele>
        <time>2019-07-18T22:38:11Z</time>
      </trkpt>
      <trkpt lat="45.00117" lon="4.62748">
        <ele>473</ele>
        <time>2019-07-18T22:38:14Z</time>
      </trkpt>
      <trkpt lat="45.00169" lon="4.62768">
        <ele>470</ele>
        <time>2019-07-18T22:38:24Z</time>
      </trkpt>
      <trkpt lat="45.00213" lon="4.62776">
        <ele>465</ele>
        <time>2019-07-18T22:38:32Z</time>
      </trkpt>
      <trkpt lat="45.00238" lon="4.62761">
        <ele>464</ele>
        <time>2019-07-18T22:38:37Z</time>
      </trkpt>
      <trkpt lat="45.00258" lon="4.62737">
        <ele>463</ele>
        <time>2019-07-18T22:38:41Z</time>
      </trkpt>
      <trkpt lat="45.00269" lon="4.62717">
        <ele>461</ele>
        <time>2019-07-18T22:38:44Z</time>
      </trkpt>
      <trkpt lat="45.00272" lon="4.62699">
        <ele>461</ele>
        <time>2019-07-18T22:38:47Z</time>
      </trkpt>
      <trkpt lat="45.00272" lon="4.62672">
        <ele>463</ele>
        <time>2019-07-18T22:38:50Z</time>
      </trkpt>
      <trkpt lat="45.00276" lon="4.62628">
        <ele>465</ele>
        <time>2019-07-18T22:38:56Z</time>
      </trkpt>
      <trkpt lat="45.00306" lon="4.62548">
        <ele>463</ele>
        <time>2019-07-18T22:39:07Z</time>
      </trkpt>
      <trkpt lat="45.0034" lon="4.62414">
        <ele>462</ele>
        <time>2019-07-18T22:39:25Z</time>
      </trkpt>
      <trkpt lat="45.00346" lon="4.62379">
        <ele>457</ele>
        <time>2019-07-18T22:39:30Z</time>
      </trkpt>
      <trkpt lat="45.00342" lon="4.62346">
        <ele>456</ele>
        <time>2019-07-18T22:39:34Z</time>
      </trkpt>
      <trkpt lat="45.00326" lon="4.62304">
        <ele>454</ele>
        <time>2019-07-18T22:39:40Z</time>
      </trkpt>
      <trkpt lat="45.00306" lon="4.62272">
        <ele>451</ele>
        <time>2019-07-18T22:39:45Z</time>
      </trkpt>
      <trkpt lat="45.00287" lon="4.62255">
        <ele>450</ele>
        <time>2019-07-18T22:39:49Z</time>
      </trkpt>
      <trkpt lat="45.00272" lon="4.62252">
        <ele>450</ele>
        <time>2019-07-18T22:39:52Z</time>
      </trkpt>
      <trkpt lat="45.00257" lon="4.62255">
        <ele>451</ele>
        <time>2019-07-18T22:39:55Z</time>
      </trkpt>
      <trkpt lat="45.00221" lon="4.62295">
        <ele>461</ele>
        <time>2019-07-18T22:40:03Z</time>
      </trkpt>
      <trkpt lat="45.00195" lon="4.6231">
        <ele>465</ele>
        <time>2019-07-18T22:40:08Z</time>
      </trkpt>
      <trkpt lat="45.00169" lon="4.62305">
        <ele>465</ele>
        <time>2019-07-18T22:40:12Z</time>
      </trkpt>
      <trkpt lat="45.00152" lon="4.62286">
        <ele>466</ele>
        <time>2019-07-18T22:40:16Z</time>
      </trkpt>
      <trkpt lat="45.00142" lon="4.62255">
        <ele>463</ele>
        <time>2019-07-18T22:40:21Z</time>
      </trkpt>
      <trkpt lat="45.00133" lon="4.62217">
        <ele>461</ele>
        <time>2019-07-18T22:40:26Z</time>
      </trkpt>
      <trkpt lat="45.00123" lon="4.62143">
        <ele>455</ele>
        <time>2019-07-18T22:40:35Z</time>
      </trkpt>
      <trkpt lat="45.00109" lon="4.62089">
        <ele>451</ele>
        <time>2019-07-18T22:40:42Z</time>
      </trkpt>
      <trkpt lat="45.00091" lon="4.6205">
        <ele>449</ele>
        <time>2019-07-18T22:40:48Z</time>
      </trkpt>
      <trkpt lat="45.0007" lon="4.62034">
        <ele>448</ele>
        <time>2019-07-18T22:40:52Z</time>
      </trkpt>
      <trkpt lat="45.00047" lon="4.62035">
        <ele>447</ele>
        <time>2019-07-18T22:40:57Z</time>
      </trkpt>
      <trkpt lat="44.99992" lon="4.62062">
        <ele>453</ele>
        <time>2019-07-18T22:41:07Z</time>
      </trkpt>
      <trkpt lat="44.99965" lon="4.62065">
        <ele>454</ele>
        <time>2019-07-18T22:41:12Z</time>
      </trkpt>
      <trkpt lat="44.99937" lon="4.62058">
        <ele>452</ele>
        <time>2019-07-18T22:41:17Z</time>
      </trkpt>
      <trkpt lat="44.99914" lon="4.62041">
        <ele>451</ele>
        <time>2019-07-18T22:41:21Z</time>
      </trkpt>
      <trkpt lat="44.999" lon="4.62017">
        <ele>451</ele>
        <time>2019-07-18T22:41:25Z</time>
      </trkpt>
      <trkpt lat="44.99889" lon="4.61984">
        <ele>449</ele>
        <time>2019-07-18T22:41:30Z</time>
      </trkpt>
      <trkpt lat="44.9986" lon="4.61873">
        <ele>447</ele>
        <time>2019-07-18T22:41:45Z</time>
      </trkpt>
      <trkpt lat="44.99859" lon="4.61818">
        <ele>443</ele>
        <time>2019-07-18T22:41:52Z</time>
      </trkpt>
      <trkpt lat="44.99863" lon="4.61539">
        <ele>437</ele>
        <time>2019-07-18T22:42:27Z</time>
      </trkpt>
      <trkpt lat="44.99871" lon="4.61482">
        <ele>435</ele>
        <time>2019-07-18T22:42:34Z</time>
      </trkpt>
      <trkpt lat="44.9989" lon="4.61417">
        <ele>433</ele>
        <time>2019-07-18T22:42:43Z</time>
      </trkpt>
      <trkpt lat="44.99915" lon="4.61352">
        <ele>430</ele>
        <time>2019-07-18T22:42:52Z</time>
      </trkpt>
      <trkpt lat="44.9992" lon="4.61318">
        <ele>429</ele>
        <time>2019-07-18T22:42:57Z</time>
      </trkpt>
      <trkpt lat="44.99909" lon="4.61288">
        <ele>429</ele>
        <time>2019-07-18T22:43:01Z</time>
      </trkpt>
      <trkpt lat="44.9989" lon="4.61272">
        <ele>429</ele>
        <time>2019-07-18T22:43:05Z</time>
      </trkpt>
      <trkpt lat="44.99867" lon="4.61256">
        <ele>429</ele>
        <time>2019-07-18T22:43:09Z</time>
      </trkpt>
      <trkpt lat="44.99849" lon="4.6123">
        <ele>428</ele>
        <time>2019-07-18T22:43:14Z</time>
      </trkpt>
      <trkpt lat="44.99846" lon="4.6119">
        <ele>428</ele>
        <time>2019-07-18T22:43:19Z</time>
      </trkpt>
      <trkpt lat="44.99858" lon="4.61106">
        <ele>425</ele>
        <time>2019-07-18T22:43:30Z</time>
      </trkpt>
      <trkpt lat="44.99873" lon="4.61029">
        <ele>423</ele>
        <time>2019-07-18T22:43:40Z</time>
      </trkpt>
      <trkpt lat="44.99903" lon="4.6095">
        <ele>418</ele>
        <time>2019-07-18T22:43:51Z</time>
      </trkpt>
      <trkpt lat="44.99904" lon="4.60926">
        <ele>417</ele>
        <time>2019-07-18T22:43:54Z</time>
      </trkpt>
      <trkpt lat="44.99899" lon="4.60892">
        <ele>416</ele>
        <time>2019-07-18T22:43:59Z</time>
      </trkpt>
      <trkpt lat="44.99873" lon="4.60848">
        <ele>417</ele>
        <time>2019-07-18T22:44:06Z</time>
      </trkpt>
      <trkpt lat="44.99837" lon="4.60779">
        <ele>417</ele>
        <time>2019-07-18T22:44:17Z</time>
      </trkpt>
      <trkpt lat="44.99802" lon="4.60687">
        <ele>417</ele>
        <time>2019-07-18T22:44:30Z</time>
      </trkpt>
      <trkpt lat="44.99785" lon="4.60661">
        <ele>417</ele>
        <time>2019-07-18T22:44:34Z</time>
      </trkpt>
      <trkpt lat="44.99758" lon="4.6064">
        <ele>418</ele>
        <time>2019-07-18T22:44:40Z</time>
      </trkpt>
      <trkpt lat="44.9973" lon="4.60627">
        <ele>418</ele>
        <time>2019-07-18T22:44:45Z</time>
      </trkpt>
      <trkpt lat="44.99698" lon="4.60616">
        <ele>419</ele>
        <time>2019-07-18T22:44:51Z</time>
      </trkpt>
      <trkpt lat="44.99685" lon="4.60605">
        <ele>419</ele>
        <time>2019-07-18T22:44:53Z</time>
      </trkpt>
      <trkpt lat="44.99677" lon="4.60591">
        <ele>418</ele>
        <time>2019-07-18T22:44:56Z</time>
      </trkpt>
      <trkpt lat="44.99672" lon="4.60576">
        <ele>416</ele>
        <time>2019-07-18T22:44:58Z</time>
      </trkpt>
      <trkpt lat="44.99616" lon="4.60362">
        <ele>410</ele>
        <time>2019-07-18T22:45:26Z</time>
      </trkpt>
      <trkpt lat="44.9961" lon="4.60344">
        <ele>409</ele>
        <time>2019-07-18T22:45:29Z</time>
      </trkpt>
      <trkpt lat="44.99601" lon="4.60324">
        <ele>409</ele>
        <time>2019-07-18T22:45:32Z</time>
      </trkpt>
      <trkpt lat="44.99539" lon="4.60199">
        <ele>397</ele>
        <time>2019-07-18T22:45:51Z</time>
      </trkpt>
      <trkpt lat="44.99533" lon="4.60191">
        <ele>397</ele>
        <time>2019-07-18T22:45:53Z</time>
      </trkpt>
      <trkpt lat="44.99491" lon="4.60161">
        <ele>401</ele>
        <time>2019-07-18T22:46:01Z</time>
      </trkpt>
      <trkpt lat="44.99479" lon="4.60146">
        <ele>401</ele>
        <time>2019-07-18T22:46:04Z</time>
      </trkpt>
      <trkpt lat="44.99434" lon="4.6005">
        <ele>397</ele>
        <time>2019-07-18T22:46:18Z</time>
      </trkpt>
      <trkpt lat="44.99425" lon="4.6002">
        <ele>394</ele>
        <time>2019-07-18T22:46:22Z</time>
      </trkpt>
      <trkpt lat="44.99417" lon="4.60005">
        <ele>394</ele>
        <time>2019-07-18T22:46:25Z</time>
      </trkpt>
      <trkpt lat="44.99409" lon="4.59993">
        <ele>394</ele>
        <time>2019-07-18T22:46:27Z</time>
      </trkpt>
      <trkpt lat="44.99374" lon="4.59951">
        <ele>396</ele>
        <time>2019-07-18T22:46:35Z</time>
      </trkpt>
      <trkpt lat="44.99362" lon="4.59932">
        <ele>396</ele>
        <time>2019-07-18T22:46:38Z</time>
      </trkpt>
      <trkpt lat="44.99352" lon="4.59912">
        <ele>396</ele>
        <time>2019-07-18T22:46:41Z</time>
      </trkpt>
      <trkpt lat="44.99337" lon="4.59866">
        <ele>394</ele>
        <time>2019-07-18T22:46:48Z</time>
      </trkpt>
      <trkpt lat="44.99279" lon="4.59725">
        <ele>389</ele>
        <time>2019-07-18T22:47:08Z</time>
      </trkpt>
      <trkpt lat="44.99269" lon="4.59705">
        <ele>387</ele>
        <time>2019-07-18T22:47:11Z</time>
      </trkpt>
      <trkpt lat="44.99257" lon="4.5969">
        <ele>385</ele>
        <time>2019-07-18T22:47:14Z</time>
      </trkpt>
      <trkpt lat="44.9924" lon="4.59675">
        <ele>385</ele>
        <time>2019-07-18T22:47:18Z</time>
      </trkpt>
      <trkpt lat="44.99197" lon="4.59649">
        <ele>390</ele>
        <time>2019-07-18T22:47:26Z</time>
      </trkpt>
      <trkpt lat="44.9916" lon="4.5961">
        <ele>390</ele>
        <time>2019-07-18T22:47:34Z</time>
      </trkpt>
      <trkpt lat="44.99151" lon="4.59587">
        <ele>389</ele>
        <time>2019-07-18T22:47:38Z</time>
      </trkpt>
      <trkpt lat="44.99128" lon="4.59552">
        <ele>395</ele>
        <time>2019-07-18T22:47:44Z</time>
      </trkpt>
      <trkpt lat="44.99089" lon="4.59464">
        <ele>396</ele>
        <time>2019-07-18T22:47:57Z</time>
      </trkpt>
      <trkpt lat="44.9908" lon="4.59426">
        <ele>391</ele>
        <time>2019-07-18T22:48:02Z</time>
      </trkpt>
      <trkpt lat="44.99072" lon="4.59351">
        <ele>384</ele>
        <time>2019-07-18T22:48:11Z</time>
      </trkpt>
      <trkpt lat="44.99052" lon="4.59224">
        <ele>380</ele>
        <time>2019-07-18T22:48:28Z</time>
      </trkpt>
      <trkpt lat="44.99048" lon="4.5914">
        <ele>377</ele>
        <time>2019-07-18T22:48:38Z</time>
      </trkpt>
      <trkpt lat="44.99051" lon="4.5911">
        <ele>376</ele>
        <time>2019-07-18T22:48:42Z</time>
      </trkpt>
      <trkpt lat="44.9905" lon="4.59083">
        <ele>375</ele>
        <time>2019-07-18T22:48:45Z</time>
      </trkpt>
      <trkpt lat="44.99047" lon="4.59057">
        <ele>374</ele>
        <time>2019-07-18T22:48:49Z</time>
      </trkpt>
      <trkpt lat="44.99036" lon="4.59025">
        <ele>373</ele>
        <time>2019-07-18T22:48:53Z</time>
      </trkpt>
      <trkpt lat="44.9901" lon="4.58959">
        <ele>370</ele>
        <time>2019-07-18T22:49:03Z</time>
      </trkpt>
      <trkpt lat="44.98944" lon="4.58808">
        <ele>372</ele>
        <time>2019-07-18T22:49:25Z</time>
      </trkpt>
      <trkpt lat="44.98898" lon="4.5871">
        <ele>375</ele>
        <time>2019-07-18T22:49:40Z</time>
      </trkpt>
      <trkpt lat="44.98874" lon="4.58669">
        <ele>376</ele>
        <time>2019-07-18T22:49:47Z</time>
      </trkpt>
      <trkpt lat="44.9886" lon="4.58652">
        <ele>377</ele>
        <time>2019-07-18T22:49:50Z</time>
      </trkpt>
      <trkpt lat="44.98839" lon="4.58628">
        <ele>377</ele>
        <time>2019-07-18T22:49:55Z</time>
      </trkpt>
      <trkpt lat="44.98808" lon="4.58598">
        <ele>380</ele>
        <time>2019-07-18T22:50:01Z</time>
      </trkpt>
      <trkpt lat="44.98787" lon="4.58557">
        <ele>382</ele>
        <time>2019-07-18T22:50:08Z</time>
      </trkpt>
      <trkpt lat="44.9874" lon="4.58451">
        <ele>382</ele>
        <time>2019-07-18T22:50:23Z</time>
      </trkpt>
      <trkpt lat="44.98714" lon="4.58354">
        <ele>379</ele>
        <time>2019-07-18T22:50:37Z</time>
      </trkpt>
      <trkpt lat="44.98706" lon="4.58302">
        <ele>377</ele>
        <time>2019-07-18T22:50:43Z</time>
      </trkpt>
      <trkpt lat="44.98702" lon="4.58296">
        <ele>378</ele>
        <time>2019-07-18T22:50:44Z</time>
      </trkpt>
      <trkpt lat="44.98698" lon="4.58295">
        <ele>378</ele>
        <time>2019-07-18T22:50:45Z</time>
      </trkpt>
      <trkpt lat="44.98676" lon="4.58307">
        <ele>381</ele>
        <time>2019-07-18T22:50:49Z</time>
      </trkpt>
      <trkpt lat="44.98655" lon="4.58256">
        <ele>381</ele>
        <time>2019-07-18T22:50:57Z</time>
      </trkpt>
      <trkpt lat="44.98642" lon="4.58227">
        <ele>381</ele>
        <time>2019-07-18T22:51:01Z</time>
      </trkpt>
      <trkpt lat="44.98564" lon="4.58199">
        <ele>384</ele>
        <time>2019-07-18T22:51:15Z</time>
      </trkpt>
      <trkpt lat="44.98557" lon="4.58192">
        <ele>384</ele>
        <time>2019-07-18T22:51:17Z</time>
      </trkpt>
      <trkpt lat="44.98553" lon="4.5817">
        <ele>381</ele>
        <time>2019-07-18T22:51:20Z</time>
      </trkpt>
      <trkpt lat="44.98543" lon="4.5814">
        <ele>381</ele>
        <time>2019-07-18T22:51:24Z</time>
      </trkpt>
      <trkpt lat="44.98521" lon="4.58106">
        <ele>381</ele>
        <time>2019-07-18T22:51:30Z</time>
      </trkpt>
      <trkpt lat="44.98496" lon="4.58074">
        <ele>382</ele>
        <time>2019-07-18T22:51:36Z</time>
      </trkpt>
      <trkpt lat="44.98496" lon="4.58039">
        <ele>382</ele>
        <time>2019-07-18T22:51:40Z</time>
      </trkpt>
      <trkpt lat="44.98492" lon="4.58015">
        <ele>382</ele>
        <time>2019-07-18T22:51:43Z</time>
      </trkpt>
      <trkpt lat="44.98483" lon="4.57994">
        <ele>383</ele>
        <time>2019-07-18T22:51:46Z</time>
      </trkpt>
      <trkpt lat="44.98358" lon="4.57766">
        <ele>395</ele>
        <time>2019-07-18T22:52:22Z</time>
      </trkpt>
      <trkpt lat="44.98323" lon="4.5769">
        <ele>394</ele>
        <time>2019-07-18T22:52:34Z</time>
      </trkpt>
      <trkpt lat="44.98295" lon="4.57609">
        <ele>398</ele>
        <time>2019-07-18T22:52:45Z</time>
      </trkpt>
      <trkpt lat="44.98286" lon="4.57556">
        <ele>396</ele>
        <time>2019-07-18T22:52:52Z</time>
      </trkpt>
      <trkpt lat="44.98259" lon="4.57286">
        <ele>389</ele>
        <time>2019-07-18T22:53:26Z</time>
      </trkpt>
      <trkpt lat="44.98268" lon="4.57237">
        <ele>387</ele>
        <time>2019-07-18T22:53:33Z</time>
      </trkpt>
      <trkpt lat="44.98287" lon="4.57192">
        <ele>385</ele>
        <time>2019-07-18T22:53:39Z</time>
      </trkpt>
      <trkpt lat="44.98317" lon="4.57134">
        <ele>383</ele>
        <time>2019-07-18T22:53:48Z</time>
      </trkpt>
      <trkpt lat="44.98363" lon="4.57055">
        <ele>383</ele>
        <time>2019-07-18T22:54:01Z</time>
      </trkpt>
      <trkpt lat="44.98395" lon="4.57029">
        <ele>386</ele>
        <time>2019-07-18T22:54:08Z</time>
      </trkpt>
      <trkpt lat="44.9853" lon="4.56938">
        <ele>391</ele>
        <time>2019-07-18T22:54:34Z</time>
      </trkpt>
      <trkpt lat="44.98554" lon="4.56893">
        <ele>393</ele>
        <time>2019-07-18T22:54:42Z</time>
      </trkpt>
      <trkpt lat="44.98561" lon="4.56851">
        <ele>397</ele>
        <time>2019-07-18T22:54:47Z</time>
      </trkpt>
      <trkpt lat="44.98559" lon="4.56788">
        <ele>404</ele>
        <time>2019-07-18T22:54:55Z</time>
      </trkpt>
      <trkpt lat="44.98562" lon="4.56751">
        <ele>407</ele>
        <time>2019-07-18T22:55:00Z</time>
      </trkpt>
      <trkpt lat="44.98584" lon="4.56711">
        <ele>405</ele>
        <time>2019-07-18T22:55:06Z</time>
      </trkpt>
      <trkpt lat="44.98598" lon="4.56676">
        <ele>404</ele>
        <time>2019-07-18T22:55:11Z</time>
      </trkpt>
      <trkpt lat="44.98622" lon="4.56583">
        <ele>414</ele>
        <time>2019-07-18T22:55:24Z</time>
      </trkpt>
      <trkpt lat="44.98653" lon="4.56514">
        <ele>422</ele>
        <time>2019-07-18T22:55:34Z</time>
      </trkpt>
      <trkpt lat="44.98682" lon="4.56479">
        <ele>422</ele>
        <time>2019-07-18T22:55:41Z</time>
      </trkpt>
      <trkpt lat="44.98733" lon="4.56425">
        <ele>420</ele>
        <time>2019-07-18T22:55:52Z</time>
      </trkpt>
      <trkpt lat="44.98756" lon="4.56416">
        <ele>418</ele>
        <time>2019-07-18T22:55:56Z</time>
      </trkpt>
      <trkpt lat="44.98815" lon="4.56414">
        <ele>411</ele>
        <time>2019-07-18T22:56:07Z</time>
      </trkpt>
      <trkpt lat="44.98828" lon="4.56401">
        <ele>411</ele>
        <time>2019-07-18T22:56:10Z</time>
      </trkpt>
      <trkpt lat="44.98838" lon="4.5638">
        <ele>411</ele>
        <time>2019-07-18T22:56:13Z</time>
      </trkpt>
      <trkpt lat="44.98841" lon="4.56357">
        <ele>413</ele>
        <time>2019-07-18T22:56:16Z</time>
      </trkpt>
      <trkpt lat="44.98836" lon="4.56332">
        <ele>417</ele>
        <time>2019-07-18T22:56:19Z</time>
      </trkpt>
      <trkpt lat="44.98823" lon="4.56313">
        <ele>418</ele>
        <time>2019-07-18T22:56:22Z</time>
      </trkpt>
      <trkpt lat="44.98777" lon="4.56275">
        <ele>423</ele>
        <time>2019-07-18T22:56:32Z</time>
      </trkpt>
      <trkpt lat="44.9873" lon="4.5622">
        <ele>421</ele>
        <time>2019-07-18T22:56:43Z</time>
      </trkpt>
      <trkpt lat="44.98708" lon="4.56205">
        <ele>420</ele>
        <time>2019-07-18T22:56:47Z</time>
      </trkpt>
      <trkpt lat="44.9861" lon="4.56173">
        <ele>427</ele>
        <time>2019-07-18T22:57:05Z</time>
      </trkpt>
      <trkpt lat="44.98559" lon="4.56144">
        <ele>429</ele>
        <time>2019-07-18T22:57:15Z</time>
      </trkpt>
      <trkpt lat="44.98532" lon="4.56123">
        <ele>430</ele>
        <time>2019-07-18T22:57:20Z</time>
      </trkpt>
      <trkpt lat="44.98505" lon="4.56096">
        <ele>428</ele>
        <time>2019-07-18T22:57:26Z</time>
      </trkpt>
      <trkpt lat="44.98471" lon="4.5605">
        <ele>429</ele>
        <time>2019-07-18T22:57:34Z</time>
      </trkpt>
      <trkpt lat="44.98436" lon="4.55978">
        <ele>424</ele>
        <time>2019-07-18T22:57:45Z</time>
      </trkpt>
      <trkpt lat="44.98422" lon="4.55961">
        <ele>422</ele>
        <time>2019-07-18T22:57:49Z</time>
      </trkpt>
      <trkpt lat="44.98406" lon="4.55948">
        <ele>422</ele>
        <time>2019-07-18T22:57:52Z</time>
      </trkpt>
      <trkpt lat="44.98375" lon="4.55934">
        <ele>427</ele>
        <time>2019-07-18T22:57:58Z</time>
      </trkpt>
      <trkpt lat="44.98355" lon="4.55918">
        <ele>429</ele>
        <time>2019-07-18T22:58:02Z</time>
      </trkpt>
      <trkpt lat="44.98337" lon="4.55898">
        <ele>430</ele>
        <time>2019-07-18T22:58:06Z</time>
      </trkpt>
      <trkpt lat="44.9826" lon="4.55718">
        <ele>438</ele>
        <time>2019-07-18T22:58:32Z</time>
      </trkpt>
      <trkpt lat="44.9826" lon="4.55666">
        <ele>435</ele>
        <time>2019-07-18T22:58:39Z</time>
      </trkpt>
      <trkpt lat="44.98297" lon="4.55531">
        <ele>435</ele>
        <time>2019-07-18T22:58:57Z</time>
      </trkpt>
      <trkpt lat="44.98321" lon="4.55503">
        <ele>433</ele>
        <time>2019-07-18T22:59:03Z</time>
      </trkpt>
      <trkpt lat="44.98428" lon="4.55431">
        <ele>429</ele>
        <time>2019-07-18T22:59:24Z</time>
      </trkpt>
      <trkpt lat="44.98605" lon="4.55417">
        <ele>423</ele>
        <time>2019-07-18T22:59:55Z</time>
      </trkpt>
      <trkpt lat="44.98639" lon="4.55402">
        <ele>420</ele>
        <time>2019-07-18T23:00:02Z</time>
      </trkpt>
      <trkpt lat="44.98651" lon="4.55351">
        <ele>419</ele>
        <time>2019-07-18T23:00:08Z</time>
      </trkpt>
      <trkpt lat="44.98649" lon="4.55302">
        <ele>421</ele>
        <time>2019-07-18T23:00:15Z</time>
      </trkpt>
      <trkpt lat="44.98621" lon="4.5511">
        <ele>435</ele>
        <time>2019-07-18T23:00:39Z</time>
      </trkpt>
      <trkpt lat="44.98623" lon="4.55064">
        <ele>435</ele>
        <time>2019-07-18T23:00:45Z</time>
      </trkpt>
      <trkpt lat="44.98635" lon="4.54958">
        <ele>431</ele>
        <time>2019-07-18T23:00:59Z</time>
      </trkpt>
      <trkpt lat="44.98621" lon="4.54915">
        <ele>432</ele>
        <time>2019-07-18T23:01:04Z</time>
      </trkpt>
      <trkpt lat="44.98571" lon="4.54808">
        <ele>431</ele>
        <time>2019-07-18T23:01:21Z</time>
      </trkpt>
      <trkpt lat="44.9856" lon="4.54762">
        <ele>430</ele>
        <time>2019-07-18T23:01:27Z</time>
      </trkpt>
      <trkpt lat="44.98555" lon="4.54691">
        <ele>427</ele>
        <time>2019-07-18T23:01:36Z</time>
      </trkpt>
      <trkpt lat="44.98553" lon="4.54625">
        <ele>428</ele>
        <time>2019-07-18T23:01:44Z</time>
      </trkpt>
      <trkpt lat="44.9856" lon="4.54585">
        <ele>429</ele>
        <time>2019-07-18T23:01:49Z</time>
      </trkpt>
      <trkpt lat="44.98622" lon="4.5444">
        <ele>443</ele>
        <time>2019-07-18T23:02:11Z</time>
      </trkpt>
      <trkpt lat="44.98644" lon="4.5441">
        <ele>441</ele>
        <time>2019-07-18T23:02:16Z</time>
      </trkpt>
      <trkpt lat="44.98721" lon="4.54347">
        <ele>435</ele>
        <time>2019-07-18T23:02:32Z</time>
      </trkpt>
      <trkpt lat="44.98741" lon="4.5431">
        <ele>432</ele>
        <time>2019-07-18T23:02:38Z</time>
      </trkpt>
      <trkpt lat="44.98741" lon="4.54273">
        <ele>434</ele>
        <time>2019-07-18T23:02:42Z</time>
      </trkpt>
      <trkpt lat="44.98703" lon="4.54181">
        <ele>446</ele>
        <time>2019-07-18T23:02:56Z</time>
      </trkpt>
      <trkpt lat="44.98686" lon="4.54131">
        <ele>444</ele>
        <time>2019-07-18T23:03:03Z</time>
      </trkpt>
      <trkpt lat="44.98635" lon="4.54074">
        <ele>452</ele>
        <time>2019-07-18T23:03:14Z</time>
      </trkpt>
      <trkpt lat="44.98623" lon="4.54045">
        <ele>454</ele>
        <time>2019-07-18T23:03:18Z</time>
      </trkpt>
      <trkpt lat="44.98604" lon="4.53862">
        <ele>446</ele>
        <time>2019-07-18T23:03:42Z</time>
      </trkpt>
      <trkpt lat="44.98604" lon="4.53819">
        <ele>445</ele>
        <time>2019-07-18T23:03:47Z</time>
      </trkpt>
      <trkpt lat="44.98617" lon="4.53717">
        <ele>440</ele>
        <time>2019-07-18T23:04:00Z</time>
      </trkpt>
      <trkpt lat="44.98615" lon="4.53664">
        <ele>440</ele>
        <time>2019-07-18T23:04:07Z</time>
      </trkpt>
      <trkpt lat="44.98616" lon="4.53628">
        <ele>440</ele>
        <time>2019-07-18T23:04:11Z</time>
      </trkpt>
      <trkpt lat="44.9862" lon="4.53607">
        <ele>440</ele>
        <time>2019-07-18T23:04:14Z</time>
      </trkpt>
      <trkpt lat="44.98669" lon="4.53494">
        <ele>442</ele>
        <time>2019-07-18T23:04:31Z</time>
      </trkpt>
      <trkpt lat="44.9868" lon="4.53456">
        <ele>444</ele>
        <time>2019-07-18T23:04:36Z</time>
      </trkpt>
      <trkpt lat="44.98706" lon="4.53339">
        <ele>449</ele>
        <time>2019-07-18T23:04:51Z</time>
      </trkpt>
      <trkpt lat="44.98728" lon="4.53265">
        <ele>449</ele>
        <time>2019-07-18T23:05:02Z</time>
      </trkpt>
      <trkpt lat="44.98747" lon="4.53175">
        <ele>450</ele>
        <time>2019-07-18T23:05:13Z</time>
      </trkpt>
      <trkpt lat="44.98767" lon="4.53088">
        <ele>445</ele>
        <time>2019-07-18T23:05:25Z</time>
      </trkpt>
      <trkpt lat="44.98778" lon="4.53061">
        <ele>445</ele>
        <time>2019-07-18T23:05:29Z</time>
      </trkpt>
      <trkpt lat="44.9879" lon="4.53042">
        <ele>445</ele>
        <time>2019-07-18T23:05:32Z</time>
      </trkpt>
      <trkpt lat="44.98806" lon="4.53021">
        <ele>446</ele>
        <time>2019-07-18T23:05:36Z</time>
      </trkpt>
      <trkpt lat="44.98884" lon="4.52937">
        <ele>454</ele>
        <time>2019-07-18T23:05:53Z</time>
      </trkpt>
      <trkpt lat="44.98907" lon="4.52922">
        <ele>451</ele>
        <time>2019-07-18T23:05:58Z</time>
      </trkpt>
      <trkpt lat="44.98948" lon="4.52905">
        <ele>450</ele>
        <time>2019-07-18T23:06:05Z</time>
      </trkpt>
      <trkpt lat="44.99019" lon="4.52859">
        <ele>455</ele>
        <time>2019-07-18T23:06:19Z</time>
      </trkpt>
      <trkpt lat="44.99126" lon="4.52834">
        <ele>451</ele>
        <time>2019-07-18T23:06:39Z</time>
      </trkpt>
      <trkpt lat="44.99241" lon="4.52812">
        <ele>451</ele>
        <time>2019-07-18T23:06:59Z</time>
      </trkpt>
      <trkpt lat="44.99292" lon="4.52795">
        <ele>448</ele>
        <time>2019-07-18T23:07:09Z</time>
      </trkpt>
      <trkpt lat="44.99332" lon="4.52752">
        <ele>448</ele>
        <time>2019-07-18T23:07:18Z</time>
      </trkpt>
      <trkpt lat="44.99343" lon="4.52723">
        <ele>449</ele>
        <time>2019-07-18T23:07:22Z</time>
      </trkpt>
      <trkpt lat="44.99347" lon="4.52686">
        <ele>451</ele>
        <time>2019-07-18T23:07:26Z</time>
      </trkpt>
      <trkpt lat="44.99352" lon="4.52664">
        <ele>452</ele>
        <time>2019-07-18T23:07:29Z</time>
      </trkpt>
      <trkpt lat="44.99373" lon="4.52622">
        <ele>453</ele>
        <time>2019-07-18T23:07:36Z</time>
      </trkpt>
      <trkpt lat="44.99392" lon="4.52555">
        <ele>456</ele>
        <time>2019-07-18T23:07:45Z</time>
      </trkpt>
      <trkpt lat="44.99405" lon="4.52544">
        <ele>454</ele>
        <time>2019-07-18T23:07:48Z</time>
      </trkpt>
      <trkpt lat="44.99418" lon="4.52522">
        <ele>454</ele>
        <time>2019-07-18T23:07:51Z</time>
      </trkpt>
      <trkpt lat="44.99422" lon="4.52499">
        <ele>456</ele>
        <time>2019-07-18T23:07:54Z</time>
      </trkpt>
      <trkpt lat="44.99414" lon="4.52479">
        <ele>459</ele>
        <time>2019-07-18T23:07:57Z</time>
      </trkpt>
      <trkpt lat="44.99414" lon="4.52466">
        <ele>460</ele>
        <time>2019-07-18T23:07:59Z</time>
      </trkpt>
      <trkpt lat="44.99429" lon="4.52422">
        <ele>460</ele>
        <time>2019-07-18T23:08:05Z</time>
      </trkpt>
      <trkpt lat="44.99475" lon="4.52281">
        <ele>455</ele>
        <time>2019-07-18T23:08:24Z</time>
      </trkpt>
      <trkpt lat="44.99478" lon="4.52258">
        <ele>456</ele>
        <time>2019-07-18T23:08:27Z</time>
      </trkpt>
      <trkpt lat="44.99475" lon="4.52227">
        <ele>457</ele>
        <time>2019-07-18T23:08:31Z</time>
      </trkpt>
      <trkpt lat="44.99453" lon="4.52158">
        <ele>458</ele>
        <time>2019-07-18T23:08:41Z</time>
      </trkpt>
      <trkpt lat="44.99432" lon="4.521">
        <ele>458</ele>
        <time>2019-07-18T23:08:49Z</time>
      </trkpt>
      <trkpt lat="44.99425" lon="4.52082">
        <ele>457</ele>
        <time>2019-07-18T23:08:52Z</time>
      </trkpt>
      <trkpt lat="44.99395" lon="4.52035">
        <ele>456</ele>
        <time>2019-07-18T23:09:00Z</time>
      </trkpt>
      <trkpt lat="44.99343" lon="4.51963">
        <ele>454</ele>
        <time>2019-07-18T23:09:12Z</time>
      </trkpt>
      <trkpt lat="44.99331" lon="4.51942">
        <ele>453</ele>
        <time>2019-07-18T23:09:16Z</time>
      </trkpt>
      <trkpt lat="44.99321" lon="4.51921">
        <ele>452</ele>
        <time>2019-07-18T23:09:19Z</time>
      </trkpt>
      <trkpt lat="44.9932" lon="4.51864">
        <ele>451</ele>
        <time>2019-07-18T23:09:26Z</time>
      </trkpt>
      <trkpt lat="44.99324" lon="4.5183">
        <ele>451</ele>
        <time>2019-07-18T23:09:31Z</time>
      </trkpt>
      <trkpt lat="44.99335" lon="4.51808">
        <ele>453</ele>
        <time>2019-07-18T23:09:34Z</time>
      </trkpt>
      <trkpt lat="44.99393" lon="4.51773">
        <ele>460</ele>
        <time>2019-07-18T23:09:45Z</time>
      </trkpt>
      <trkpt lat="44.99405" lon="4.51774">
        <ele>460</ele>
        <time>2019-07-18T23:09:47Z</time>
      </trkpt>
      <trkpt lat="44.99475" lon="4.5181">
        <ele>457</ele>
        <time>2019-07-18T23:10:01Z</time>
      </trkpt>
      <trkpt lat="44.99492" lon="4.51808">
        <ele>458</ele>
        <time>2019-07-18T23:10:04Z</time>
      </trkpt>
      <trkpt lat="44.99503" lon="4.518">
        <ele>458</ele>
        <time>2019-07-18T23:10:06Z</time>
      </trkpt>
      <trkpt lat="44.99563" lon="4.51732">
        <ele>462</ele>
        <time>2019-07-18T23:10:19Z</time>
      </trkpt>
      <trkpt lat="44.99566" lon="4.51717">
        <ele>463</ele>
        <time>2019-07-18T23:10:21Z</time>
      </trkpt>
      <trkpt lat="44.99565" lon="4.51695">
        <ele>465</ele>
        <time>2019-07-18T23:10:24Z</time>
      </trkpt>
      <trkpt lat="44.99541" lon="4.5163">
        <ele>472</ele>
        <time>2019-07-18T23:10:33Z</time>
      </trkpt>
      <trkpt lat="44.99539" lon="4.51611">
        <ele>473</ele>
        <time>2019-07-18T23:10:36Z</time>
      </trkpt>
      <trkpt lat="44.99541" lon="4.51602">
        <ele>474</ele>
        <time>2019-07-18T23:10:37Z</time>
      </trkpt>
      <trkpt lat="44.99546" lon="4.51589">
        <ele>474</ele>
        <time>2019-07-18T23:10:39Z</time>
      </trkpt>
      <trkpt lat="44.99555" lon="4.51581">
        <ele>474</ele>
        <time>2019-07-18T23:10:41Z</time>
      </trkpt>
      <trkpt lat="44.99583" lon="4.51569">
        <ele>473</ele>
        <time>2019-07-18T23:10:46Z</time>
      </trkpt>
      <trkpt lat="44.99624" lon="4.51564">
        <ele>473</ele>
        <time>2019-07-18T23:10:53Z</time>
      </trkpt>
      <trkpt lat="44.99658" lon="4.51573">
        <ele>472</ele>
        <time>2019-07-18T23:10:59Z</time>
      </trkpt>
      <trkpt lat="44.99674" lon="4.51573">
        <ele>472</ele>
        <time>2019-07-18T23:11:02Z</time>
      </trkpt>
      <trkpt lat="44.99689" lon="4.51565">
        <ele>471</ele>
        <time>2019-07-18T23:11:05Z</time>
      </trkpt>
      <trkpt lat="44.99705" lon="4.51547">
        <ele>472</ele>
        <time>2019-07-18T23:11:09Z</time>
      </trkpt>
      <trkpt lat="44.9972" lon="4.51518">
        <ele>474</ele>
        <time>2019-07-18T23:11:13Z</time>
      </trkpt>
      <trkpt lat="44.99728" lon="4.51485">
        <ele>476</ele>
        <time>2019-07-18T23:11:18Z</time>
      </trkpt>
      <trkpt lat="44.99728" lon="4.51375">
        <ele>477</ele>
        <time>2019-07-18T23:11:32Z</time>
      </trkpt>
      <trkpt lat="44.99718" lon="4.5135">
        <ele>477</ele>
        <time>2019-07-18T23:11:35Z</time>
      </trkpt>
      <trkpt lat="44.99684" lon="4.51314">
        <ele>484</ele>
        <time>2019-07-18T23:11:43Z</time>
      </trkpt>
      <trkpt lat="44.9967" lon="4.51266">
        <ele>488</ele>
        <time>2019-07-18T23:11:49Z</time>
      </trkpt>
      <trkpt lat="44.9967" lon="4.51244">
        <ele>489</ele>
        <time>2019-07-18T23:11:52Z</time>
      </trkpt>
      <trkpt lat="44.99691" lon="4.51192">
        <ele>490</ele>
        <time>2019-07-18T23:12:00Z</time>
      </trkpt>
      <trkpt lat="44.99698" lon="4.51169">
        <ele>491</ele>
        <time>2019-07-18T23:12:03Z</time>
      </trkpt>
      <trkpt lat="44.99704" lon="4.51135">
        <ele>494</ele>
        <time>2019-07-18T23:12:07Z</time>
      </trkpt>
      <trkpt lat="44.99715" lon="4.51111">
        <ele>495</ele>
        <time>2019-07-18T23:12:11Z</time>
      </trkpt>
      <trkpt lat="44.99725" lon="4.51103">
        <ele>495</ele>
        <time>2019-07-18T23:12:13Z</time>
      </trkpt>
      <trkpt lat="44.99738" lon="4.51097">
        <ele>494</ele>
        <time>2019-07-18T23:12:15Z</time>
      </trkpt>
      <trkpt lat="44.99763" lon="4.51096">
        <ele>491</ele>
        <time>2019-07-18T23:12:20Z</time>
      </trkpt>
      <trkpt lat="44.99779" lon="4.51084">
        <ele>491</ele>
        <time>2019-07-18T23:12:23Z</time>
      </trkpt>
      <trkpt lat="44.99829" lon="4.51008">
        <ele>496</ele>
        <time>2019-07-18T23:12:36Z</time>
      </trkpt>
      <trkpt lat="44.99863" lon="4.50935">
        <ele>501</ele>
        <time>2019-07-18T23:12:47Z</time>
      </trkpt>
      <trkpt lat="44.99829" lon="4.51008">
        <ele>496</ele>
        <time>2019-07-18T23:12:58Z</time>
      </trkpt>
      <trkpt lat="44.99779" lon="4.51084">
        <ele>491</ele>
        <time>2019-07-18T23:13:11Z</time>
      </trkpt>
      <trkpt lat="44.9979" lon="4.51092">
        <ele>488</ele>
        <time>2019-07-18T23:13:13Z</time>
      </trkpt>
      <trkpt lat="44.99814" lon="4.51078">
        <ele>488</ele>
        <time>2019-07-18T23:13:18Z</time>
      </trkpt>
      <trkpt lat="44.99852" lon="4.5104">
        <ele>487</ele>
        <time>2019-07-18T23:13:26Z</time>
      </trkpt>
      <trkpt lat="44.99878" lon="4.50994">
        <ele>489</ele>
        <time>2019-07-18T23:13:34Z</time>
      </trkpt>
      <trkpt lat="44.99954" lon="4.50829">
        <ele>490</ele>
        <time>2019-07-18T23:13:58Z</time>
      </trkpt>
      <trkpt lat="44.99962" lon="4.50795">
        <ele>491</ele>
        <time>2019-07-18T23:14:03Z</time>
      </trkpt>
      <trkpt lat="44.99968" lon="4.50756">
        <ele>493</ele>
        <time>2019-07-18T23:14:08Z</time>
      </trkpt>
      <trkpt lat="44.99973" lon="4.50733">
        <ele>494</ele>
        <time>2019-07-18T23:14:11Z</time>
      </trkpt>
      <trkpt lat="45.00002" lon="4.50691">
        <ele>489</ele>
        <time>2019-07-18T23:14:18Z</time>
      </trkpt>
      <trkpt lat="45.00007" lon="4.50653">
        <ele>491</ele>
        <time>2019-07-18T23:14:23Z</time>
      </trkpt>
      <trkpt lat="45.00004" lon="4.50602">
        <ele>495</ele>
        <time>2019-07-18T23:14:30Z</time>
      </trkpt>
      <trkpt lat="45.00009" lon="4.50575">
        <ele>496</ele>
        <time>2019-07-18T23:14:33Z</time>
      </trkpt>
      <trkpt lat="45.00028" lon="4.50546">
        <ele>493</ele>
        <time>2019-07-18T23:14:38Z</time>
      </trkpt>
      <trkpt lat="45.00045" lon="4.50514">
        <ele>490</ele>
        <time>2019-07-18T23:14:43Z</time>
      </trkpt>
      <trkpt lat="45.00089" lon="4.50397">
        <ele>491</ele>
        <time>2019-07-18T23:15:00Z</time>
      </trkpt>
      <trkpt lat="45.00111" lon="4.50367">
        <ele>488</ele>
        <time>2019-07-18T23:15:05Z</time>
      </trkpt>
      <trkpt lat="45.00135" lon="4.50328">
        <ele>485</ele>
        <time>2019-07-18T23:15:12Z</time>
      </trkpt>
      <trkpt lat="45.00159" lon="4.50271">
        <ele>482</ele>
        <time>2019-07-18T23:15:20Z</time>
      </trkpt>
      <trkpt lat="45.00158" lon="4.50209">
        <ele>484</ele>
        <time>2019-07-18T23:15:28Z</time>
      </trkpt>
      <trkpt lat="45.00155" lon="4.50172">
        <ele>484</ele>
        <time>2019-07-18T23:15:32Z</time>
      </trkpt>
      <trkpt lat="45.00154" lon="4.50135">
        <ele>488</ele>
        <time>2019-07-18T23:15:37Z</time>
      </trkpt>
      <trkpt lat="45.0016" lon="4.50121">
        <ele>488</ele>
        <time>2019-07-18T23:15:39Z</time>
      </trkpt>
      <trkpt lat="45.00169" lon="4.50111">
        <ele>488</ele>
        <time>2019-07-18T23:15:41Z</time>
      </trkpt>
      <trkpt lat="45.00191" lon="4.50112">
        <ele>487</ele>
        <time>2019-07-18T23:15:45Z</time>
      </trkpt>
      <trkpt lat="45.00212" lon="4.50123">
        <ele>483</ele>
        <time>2019-07-18T23:15:49Z</time>
      </trkpt>
      <trkpt lat="45.00274" lon="4.50118">
        <ele>477</ele>
        <time>2019-07-18T23:16:00Z</time>
      </trkpt>
      <trkpt lat="45.00293" lon="4.50111">
        <ele>476</ele>
        <time>2019-07-18T23:16:04Z</time>
      </trkpt>
      <trkpt lat="45.00358" lon="4.5004">
        <ele>477</ele>
        <time>2019-07-18T23:16:18Z</time>
      </trkpt>
      <trkpt lat="45.00388" lon="4.49999">
        <ele>475</ele>
        <time>2019-07-18T23:16:26Z</time>
      </trkpt>
      <trkpt lat="45.00396" lon="4.49974">
        <ele>474</ele>
        <time>2019-07-18T23:16:29Z</time>
      </trkpt>
      <trkpt lat="45.00396" lon="4.49952">
        <ele>476</ele>
        <time>2019-07-18T23:16:32Z</time>
      </trkpt>
      <trkpt lat="45.0038" lon="4.49864">
        <ele>486</ele>
        <time>2019-07-18T23:16:43Z</time>
      </trkpt>
      <trkpt lat="45.00387" lon="4.49837">
        <ele>485</ele>
        <time>2019-07-18T23:16:47Z</time>
      </trkpt>
      <trkpt lat="45.00398" lon="4.49824">
        <ele>483</ele>
        <time>2019-07-18T23:16:50Z</time>
      </trkpt>
      <trkpt lat="45.00412" lon="4.49822">
        <ele>480</ele>
        <time>2019-07-18T23:16:52Z</time>
      </trkpt>
      <trkpt lat="45.00426" lon="4.49835">
        <ele>477</ele>
        <time>2019-07-18T23:16:55Z</time>
      </trkpt>
      <trkpt lat="45.00439" lon="4.49853">
        <ele>474</ele>
        <time>2019-07-18T23:16:58Z</time>
      </trkpt>
      <trkpt lat="45.00451" lon="4.49855">
        <ele>473</ele>
        <time>2019-07-18T23:17:00Z</time>
      </trkpt>
      <trkpt lat="45.00462" lon="4.49848">
        <ele>472</ele>
        <time>2019-07-18T23:17:03Z</time>
      </trkpt>
      <trkpt lat="45.00496" lon="4.49786">
        <ele>479</ele>
        <time>2019-07-18T23:17:12Z</time>
      </trkpt>
      <trkpt lat="45.00519" lon="4.49751">
        <ele>481</ele>
        <time>2019-07-18T23:17:18Z</time>
      </trkpt>
      <trkpt lat="45.00577" lon="4.49687">
        <ele>484</ele>
        <time>2019-07-18T23:17:32Z</time>
      </trkpt>
      <trkpt lat="45.00695" lon="4.49586">
        <ele>485</ele>
        <time>2019-07-18T23:17:56Z</time>
      </trkpt>
      <trkpt lat="45.00863" lon="4.49483">
        <ele>485</ele>
        <time>2019-07-18T23:18:29Z</time>
      </trkpt>
      <trkpt lat="45.00909" lon="4.49463">
        <ele>486</ele>
        <time>2019-07-18T23:18:37Z</time>
      </trkpt>
      <trkpt lat="45.01024" lon="4.49418">
        <ele>484</ele>
        <time>2019-07-18T23:18:58Z</time>
      </trkpt>
      <trkpt lat="45.01062" lon="4.49415">
        <ele>481</ele>
        <time>2019-07-18T23:19:05Z</time>
      </trkpt>
      <trkpt lat="45.01097" lon="4.49421">
        <ele>477</ele>
        <time>2019-07-18T23:19:11Z</time>
      </trkpt>
      <trkpt lat="45.01125" lon="4.4942">
        <ele>476</ele>
        <time>2019-07-18T23:19:16Z</time>
      </trkpt>
      <trkpt lat="45.01144" lon="4.49414">
        <ele>476</ele>
        <time>2019-07-18T23:19:20Z</time>
      </trkpt>
      <trkpt lat="45.01174" lon="4.49392">
        <ele>479</ele>
        <time>2019-07-18T23:19:26Z</time>
      </trkpt>
      <trkpt lat="45.01216" lon="4.4935">
        <ele>480</ele>
        <time>2019-07-18T23:19:35Z</time>
      </trkpt>
      <trkpt lat="45.01262" lon="4.49331">
        <ele>478</ele>
        <time>2019-07-18T23:19:44Z</time>
      </trkpt>
      <trkpt lat="45.01317" lon="4.49303">
        <ele>483</ele>
        <time>2019-07-18T23:19:54Z</time>
      </trkpt>
      <trkpt lat="45.01362" lon="4.4929">
        <ele>482</ele>
        <time>2019-07-18T23:20:02Z</time>
      </trkpt>
      <trkpt lat="45.01407" lon="4.49264">
        <ele>481</ele>
        <time>2019-07-18T23:20:11Z</time>
      </trkpt>
      <trkpt lat="45.01457" lon="4.49243">
        <ele>481</ele>
        <time>2019-07-18T23:20:20Z</time>
      </trkpt>
      <trkpt lat="45.01501" lon="4.4923">
        <ele>482</ele>
        <time>2019-07-18T23:20:28Z</time>
      </trkpt>
      <trkpt lat="45.01558" lon="4.49209">
        <ele>482</ele>
        <time>2019-07-18T23:20:39Z</time>
      </trkpt>
      <trkpt lat="45.01608" lon="4.49175">
        <ele>485</ele>
        <time>2019-07-18T23:20:48Z</time>
      </trkpt>
      <trkpt lat="45.01629" lon="4.49156">
        <ele>486</ele>
        <time>2019-07-18T23:20:53Z</time>
      </trkpt>
      <trkpt lat="45.01649" lon="4.49129">
        <ele>487</ele>
        <time>2019-07-18T23:20:58Z</time>
      </trkpt>
      <trkpt lat="45.01662" lon="4.49096">
        <ele>489</ele>
        <time>2019-07-18T23:21:03Z</time>
      </trkpt>
      <trkpt lat="45.01691" lon="4.48983">
        <ele>499</ele>
        <time>2019-07-18T23:21:18Z</time>
      </trkpt>
      <trkpt lat="45.01733" lon="4.48835">
        <ele>505</ele>
        <time>2019-07-18T23:21:38Z</time>
      </trkpt>
      <trkpt lat="45.01741" lon="4.48823">
        <ele>502</ele>
        <time>2019-07-18T23:21:40Z</time>
      </trkpt>
      <trkpt lat="45.0181" lon="4.48783">
        <ele>495</ele>
        <time>2019-07-18T23:21:53Z</time>
      </trkpt>
      <trkpt lat="45.0184" lon="4.48768">
        <ele>496</ele>
        <time>2019-07-18T23:21:59Z</time>
      </trkpt>
      <trkpt lat="45.01848" lon="4.48767">
        <ele>498</ele>
        <time>2019-07-18T23:22:00Z</time>
      </trkpt>
      <trkpt lat="45.01846" lon="4.48755">
        <ele>499</ele>
        <time>2019-07-18T23:22:02Z</time>
      </trkpt>
      <trkpt lat="45.01823" lon="4.48703">
        <ele>502</ele>
        <time>2019-07-18T23:22:09Z</time>
      </trkpt>
      <trkpt lat="45.0179" lon="4.48644">
        <ele>506</ele>
        <time>2019-07-18T23:22:19Z</time>
      </trkpt>
      <trkpt lat="45.01781" lon="4.48618">
        <ele>508</ele>
        <time>2019-07-18T23:22:23Z</time>
      </trkpt>
      <trkpt lat="45.01747" lon="4.4846">
        <ele>511</ele>
        <time>2019-07-18T23:22:43Z</time>
      </trkpt>
      <trkpt lat="45.01748" lon="4.48429">
        <ele>514</ele>
        <time>2019-07-18T23:22:47Z</time>
      </trkpt>
      <trkpt lat="45.01747" lon="4.48402">
        <ele>515</ele>
        <time>2019-07-18T23:22:51Z</time>
      </trkpt>
      <trkpt lat="45.01742" lon="4.48377">
        <ele>514</ele>
        <time>2019-07-18T23:22:54Z</time>
      </trkpt>
      <trkpt lat="45.0174" lon="4.48357">
        <ele>514</ele>
        <time>2019-07-18T23:22:56Z</time>
      </trkpt>
      <trkpt lat="45.01743" lon="4.48334">
        <ele>515</ele>
        <time>2019-07-18T23:22:59Z</time>
      </trkpt>
      <trkpt lat="45.01748" lon="4.48314">
        <ele>516</ele>
        <time>2019-07-18T23:23:02Z</time>
      </trkpt>
      <trkpt lat="45.01782" lon="4.48255">
        <ele>523</ele>
        <time>2019-07-18T23:23:12Z</time>
      </trkpt>
      <trkpt lat="45.01787" lon="4.48246">
        <ele>524</ele>
        <time>2019-07-18T23:23:13Z</time>
      </trkpt>
      <trkpt lat="45.01786" lon="4.48232">
        <ele>525</ele>
        <time>2019-07-18T23:23:15Z</time>
      </trkpt>
      <trkpt lat="45.01781" lon="4.48223">
        <ele>524</ele>
        <time>2019-07-18T23:23:16Z</time>
      </trkpt>
      <trkpt lat="45.01775" lon="4.48219">
        <ele>524</ele>
        <time>2019-07-18T23:23:17Z</time>
      </trkpt>
      <trkpt lat="45.01768" lon="4.4822">
        <ele>523</ele>
        <time>2019-07-18T23:23:19Z</time>
      </trkpt>
      <trkpt lat="45.01761" lon="4.48223">
        <ele>522</ele>
        <time>2019-07-18T23:23:20Z</time>
      </trkpt>
      <trkpt lat="45.01729" lon="4.48272">
        <ele>514</ele>
        <time>2019-07-18T23:23:28Z</time>
      </trkpt>
      <trkpt lat="45.01722" lon="4.48277">
        <ele>513</ele>
        <time>2019-07-18T23:23:30Z</time>
      </trkpt>
      <trkpt lat="45.01715" lon="4.48278">
        <ele>512</ele>
        <time>2019-07-18T23:23:31Z</time>
      </trkpt>
      <trkpt lat="45.01708" lon="4.48273">
        <ele>511</ele>
        <time>2019-07-18T23:23:32Z</time>
      </trkpt>
      <trkpt lat="45.01703" lon="4.48266">
        <ele>511</ele>
        <time>2019-07-18T23:23:34Z</time>
      </trkpt>
      <trkpt lat="45.01682" lon="4.4821">
        <ele>515</ele>
        <time>2019-07-18T23:23:42Z</time>
      </trkpt>
      <trkpt lat="45.01677" lon="4.482">
        <ele>516</ele>
        <time>2019-07-18T23:23:43Z</time>
      </trkpt>
      <trkpt lat="45.01657" lon="4.48175">
        <ele>517</ele>
        <time>2019-07-18T23:23:48Z</time>
      </trkpt>
      <trkpt lat="45.01649" lon="4.48162">
        <ele>517</ele>
        <time>2019-07-18T23:23:50Z</time>
      </trkpt>
      <trkpt lat="45.01635" lon="4.48129">
        <ele>522</ele>
        <time>2019-07-18T23:23:55Z</time>
      </trkpt>
      <trkpt lat="45.01627" lon="4.48115">
        <ele>523</ele>
        <time>2019-07-18T23:23:57Z</time>
      </trkpt>
      <trkpt lat="45.01613" lon="4.48097">
        <ele>524</ele>
        <time>2019-07-18T23:24:01Z</time>
      </trkpt>
      <trkpt lat="45.01593" lon="4.48075">
        <ele>524</ele>
        <time>2019-07-18T23:24:05Z</time>
      </trkpt>
      <trkpt lat="45.01548" lon="4.48039">
        <ele>525</ele>
        <time>2019-07-18T23:24:14Z</time>
      </trkpt>
      <trkpt lat="45.01539" lon="4.48025">
        <ele>526</ele>
        <time>2019-07-18T23:24:17Z</time>
      </trkpt>
      <trkpt lat="45.0153" lon="4.48007">
        <ele>527</ele>
        <time>2019-07-18T23:24:19Z</time>
      </trkpt>
      <trkpt lat="45.01515" lon="4.47987">
        <ele>528</ele>
        <time>2019-07-18T23:24:23Z</time>
      </trkpt>
      <trkpt lat="45.01483" lon="4.47954">
        <ele>529</ele>
        <time>2019-07-18T23:24:30Z</time>
      </trkpt>
      <trkpt lat="45.01467" lon="4.47923">
        <ele>532</ele>
        <time>2019-07-18T23:24:35Z</time>
      </trkpt>
      <trkpt lat="45.01458" lon="4.47916">
        <ele>532</ele>
        <time>2019-07-18T23:24:37Z</time>
      </trkpt>
      <trkpt lat="45.01442" lon="4.4791">
        <ele>530</ele>
        <time>2019-07-18T23:24:40Z</time>
      </trkpt>
      <trkpt lat="45.01434" lon="4.47903">
        <ele>530</ele>
        <time>2019-07-18T23:24:41Z</time>
      </trkpt>
      <trkpt lat="45.01428" lon="4.47891">
        <ele>532</ele>
        <time>2019-07-18T23:24:43Z</time>
      </trkpt>
      <trkpt lat="45.01403" lon="4.47859">
        <ele>534</ele>
        <time>2019-07-18T23:24:49Z</time>
      </trkpt>
      <trkpt lat="45.01391" lon="4.47838">
        <ele>535</ele>
        <time>2019-07-18T23:24:53Z</time>
      </trkpt>
      <trkpt lat="45.01363" lon="4.47781">
        <ele>540</ele>
        <time>2019-07-18T23:25:01Z</time>
      </trkpt>
      <trkpt lat="45.01349" lon="4.47761">
        <ele>539</ele>
        <time>2019-07-18T23:25:05Z</time>
      </trkpt>
      <trkpt lat="45.01332" lon="4.47733">
        <ele>539</ele>
        <time>2019-07-18T23:25:10Z</time>
      </trkpt>
      <trkpt lat="45.01324" lon="4.47711">
        <ele>543</ele>
        <time>2019-07-18T23:25:13Z</time>
      </trkpt>
      <trkpt lat="45.01283" lon="4.4765">
        <ele>546</ele>
        <time>2019-07-18T23:25:23Z</time>
      </trkpt>
      <trkpt lat="45.01264" lon="4.47628">
        <ele>545</ele>
        <time>2019-07-18T23:25:28Z</time>
      </trkpt>
      <trkpt lat="45.01257" lon="4.47615">
        <ele>545</ele>
        <time>2019-07-18T23:25:30Z</time>
      </trkpt>
      <trkpt lat="45.01253" lon="4.47599">
        <ele>547</ele>
        <time>2019-07-18T23:25:32Z</time>
      </trkpt>
      <trkpt lat="45.01251" lon="4.47566">
        <ele>551</ele>
        <time>2019-07-18T23:25:36Z</time>
      </trkpt>
      <trkpt lat="45.01251" lon="4.47538">
        <ele>554</ele>
        <time>2019-07-18T23:25:40Z</time>
      </trkpt>
      <trkpt lat="45.01242" lon="4.47439">
        <ele>567</ele>
        <time>2019-07-18T23:25:52Z</time>
      </trkpt>
      <trkpt lat="45.01238" lon="4.47369">
        <ele>577</ele>
        <time>2019-07-18T23:26:01Z</time>
      </trkpt>
      <trkpt lat="45.01233" lon="4.47359">
        <ele>579</ele>
        <time>2019-07-18T23:26:02Z</time>
      </trkpt>
      <trkpt lat="45.01223" lon="4.47363">
        <ele>580</ele>
        <time>2019-07-18T23:26:04Z</time>
      </trkpt>
      <trkpt lat="45.01186" lon="4.47473">
        <ele>565</ele>
        <time>2019-07-18T23:26:20Z</time>
      </trkpt>
      <trkpt lat="45.01168" lon="4.47515">
        <ele>555</ele>
        <time>2019-07-18T23:26:26Z</time>
      </trkpt>
      <trkpt lat="45.01159" lon="4.47526">
        <ele>552</ele>
        <time>2019-07-18T23:26:28Z</time>
      </trkpt>
      <trkpt lat="45.01148" lon="4.47526">
        <ele>552</ele>
        <time>2019-07-18T23:26:30Z</time>
      </trkpt>
      <trkpt lat="45.01135" lon="4.47521">
        <ele>553</ele>
        <time>2019-07-18T23:26:32Z</time>
      </trkpt>
      <trkpt lat="45.01115" lon="4.47508">
        <ele>556</ele>
        <time>2019-07-18T23:26:36Z</time>
      </trkpt>
      <trkpt lat="45.01085" lon="4.47479">
        <ele>566</ele>
        <time>2019-07-18T23:26:43Z</time>
      </trkpt>
      <trkpt lat="45.01066" lon="4.47466">
        <ele>567</ele>
        <time>2019-07-18T23:26:46Z</time>
      </trkpt>
      <trkpt lat="45.01034" lon="4.4745">
        <ele>567</ele>
        <time>2019-07-18T23:26:52Z</time>
      </trkpt>
      <trkpt lat="45.01007" lon="4.4744">
        <ele>566</ele>
        <time>2019-07-18T23:26:57Z</time>
      </trkpt>
      <trkpt lat="45.00973" lon="4.47423">
        <ele>565</ele>
        <time>2019-07-18T23:27:04Z</time>
      </trkpt>
      <trkpt lat="45.00948" lon="4.47398">
        <ele>564</ele>
        <time>2019-07-18T23:27:09Z</time>
      </trkpt>
      <trkpt lat="45.00942" lon="4.47378">
        <ele>565</ele>
        <time>2019-07-18T23:27:12Z</time>
      </trkpt>
      <trkpt lat="45.00944" lon="4.47326">
        <ele>573</ele>
        <time>2019-07-18T23:27:19Z</time>
      </trkpt>
      <trkpt lat="45.00943" lon="4.47305">
        <ele>573</ele>
        <time>2019-07-18T23:27:21Z</time>
      </trkpt>
      <trkpt lat="45.00946" lon="4.4729">
        <ele>575</ele>
        <time>2019-07-18T23:27:23Z</time>
      </trkpt>
      <trkpt lat="45.00957" lon="4.47268">
        <ele>582</ele>
        <time>2019-07-18T23:27:27Z</time>
      </trkpt>
      <trkpt lat="45.00975" lon="4.47183">
        <ele>593</ele>
        <time>2019-07-18T23:27:38Z</time>
      </trkpt>
      <trkpt lat="45.00966" lon="4.47133">
        <ele>589</ele>
        <time>2019-07-18T23:27:44Z</time>
      </trkpt>
      <trkpt lat="45.00965" lon="4.47116">
        <ele>589</ele>
        <time>2019-07-18T23:27:46Z</time>
      </trkpt>
      <trkpt lat="45.00967" lon="4.47063">
        <ele>594</ele>
        <time>2019-07-18T23:27:53Z</time>
      </trkpt>
      <trkpt lat="45.00965" lon="4.47025">
        <ele>597</ele>
        <time>2019-07-18T23:27:58Z</time>
      </trkpt>
      <trkpt lat="45.00962" lon="4.47015">
        <ele>596</ele>
        <time>2019-07-18T23:27:59Z</time>
      </trkpt>
      <trkpt lat="45.00944" lon="4.46989">
        <ele>590</ele>
        <time>2019-07-18T23:28:04Z</time>
      </trkpt>
      <trkpt lat="45.00937" lon="4.46969">
        <ele>589</ele>
        <time>2019-07-18T23:28:07Z</time>
      </trkpt>
      <trkpt lat="45.00933" lon="4.46946">
        <ele>590</ele>
        <time>2019-07-18T23:28:10Z</time>
      </trkpt>
      <trkpt lat="45.00934" lon="4.46927">
        <ele>593</ele>
        <time>2019-07-18T23:28:12Z</time>
      </trkpt>
      <trkpt lat="45.00938" lon="4.46914">
        <ele>597</ele>
        <time>2019-07-18T23:28:14Z</time>
      </trkpt>
      <trkpt lat="45.00939" lon="4.46904">
        <ele>600</ele>
        <time>2019-07-18T23:28:15Z</time>
      </trkpt>
      <trkpt lat="45.00938" lon="4.46891">
        <ele>603</ele>
        <time>2019-07-18T23:28:17Z</time>
      </trkpt>
      <trkpt lat="45.00934" lon="4.46883">
        <ele>603</ele>
        <time>2019-07-18T23:28:18Z</time>
      </trkpt>
      <trkpt lat="45.00902" lon="4.46847">
        <ele>600</ele>
        <time>2019-07-18T23:28:25Z</time>
      </trkpt>
      <trkpt lat="45.0088" lon="4.46825">
        <ele>597</ele>
        <time>2019-07-18T23:28:30Z</time>
      </trkpt>
      <trkpt lat="45.00861" lon="4.46811">
        <ele>592</ele>
        <time>2019-07-18T23:28:34Z</time>
      </trkpt>
      <trkpt lat="45.00851" lon="4.468">
        <ele>590</ele>
        <time>2019-07-18T23:28:36Z</time>
      </trkpt>
      <trkpt lat="45.00816" lon="4.46715">
        <ele>588</ele>
        <time>2019-07-18T23:28:48Z</time>
      </trkpt>
      <trkpt lat="45.00815" lon="4.46708">
        <ele>588</ele>
        <time>2019-07-18T23:28:49Z</time>
      </trkpt>
      <trkpt lat="45.00816" lon="4.46699">
        <ele>588</ele>
        <time>2019-07-18T23:28:50Z</time>
      </trkpt>
      <trkpt lat="45.0082" lon="4.46689">
        <ele>589</ele>
        <time>2019-07-18T23:28:52Z</time>
      </trkpt>
      <trkpt lat="45.00831" lon="4.46677">
        <ele>593</ele>
        <time>2019-07-18T23:28:54Z</time>
      </trkpt>
      <trkpt lat="45.00883" lon="4.46657">
        <ele>605</ele>
        <time>2019-07-18T23:29:04Z</time>
      </trkpt>
      <trkpt lat="45.00904" lon="4.46647">
        <ele>609</ele>
        <time>2019-07-18T23:29:08Z</time>
      </trkpt>
      <trkpt lat="45.00921" lon="4.46636">
        <ele>613</ele>
        <time>2019-07-18T23:29:11Z</time>
      </trkpt>
      <trkpt lat="45.00938" lon="4.46621">
        <ele>617</ele>
        <time>2019-07-18T23:29:15Z</time>
      </trkpt>
      <trkpt lat="45.00944" lon="4.46608">
        <ele>617</ele>
        <time>2019-07-18T23:29:17Z</time>
      </trkpt>
      <trkpt lat="45.00981" lon="4.46501">
        <ele>621</ele>
        <time>2019-07-18T23:29:32Z</time>
      </trkpt>
      <trkpt lat="45.00977" lon="4.46472">
        <ele>621</ele>
        <time>2019-07-18T23:29:35Z</time>
      </trkpt>
      <trkpt lat="45.00979" lon="4.46456">
        <ele>623</ele>
        <time>2019-07-18T23:29:38Z</time>
      </trkpt>
      <trkpt lat="45.00986" lon="4.46428">
        <ele>627</ele>
        <time>2019-07-18T23:29:41Z</time>
      </trkpt>
      <trkpt lat="45.00985" lon="4.46415">
        <ele>628</ele>
        <time>2019-07-18T23:29:43Z</time>
      </trkpt>
      <trkpt lat="45.00966" lon="4.4638">
        <ele>624</ele>
        <time>2019-07-18T23:29:48Z</time>
      </trkpt>
      <trkpt lat="45.00957" lon="4.46323">
        <ele>625</ele>
        <time>2019-07-18T23:29:56Z</time>
      </trkpt>
      <trkpt lat="45.00955" lon="4.46289">
        <ele>625</ele>
        <time>2019-07-18T23:30:00Z</time>
      </trkpt>
      <trkpt lat="45.00956" lon="4.46257">
        <ele>626</ele>
        <time>2019-07-18T23:30:04Z</time>
      </trkpt>
      <trkpt lat="45.0096" lon="4.46237">
        <ele>627</ele>
        <time>2019-07-18T23:30:07Z</time>
      </trkpt>
      <trkpt lat="45.00967" lon="4.46215">
        <ele>627</ele>
        <time>2019-07-18T23:30:10Z</time>
      </trkpt>
      <trkpt lat="45.00979" lon="4.46192">
        <ele>627</ele>
        <time>2019-07-18T23:30:13Z</time>
      </trkpt>
      <trkpt lat="45.00992" lon="4.46175">
        <ele>626</ele>
        <time>2019-07-18T23:30:17Z</time>
      </trkpt>
      <trkpt lat="45.01015" lon="4.46155">
        <ele>630</ele>
        <time>2019-07-18T23:30:21Z</time>
      </trkpt>
      <trkpt lat="45.01133" lon="4.46081">
        <ele>639</ele>
        <time>2019-07-18T23:30:44Z</time>
      </trkpt>
      <trkpt lat="45.01144" lon="4.46078">
        <ele>642</ele>
        <time>2019-07-18T23:30:46Z</time>
      </trkpt>
      <trkpt lat="45.01178" lon="4.46077">
        <ele>651</ele>
        <time>2019-07-18T23:30:52Z</time>
      </trkpt>
      <trkpt lat="45.01186" lon="4.46074">
        <ele>654</ele>
        <time>2019-07-18T23:30:54Z</time>
      </trkpt>
      <trkpt lat="45.01197" lon="4.46064">
        <ele>658</ele>
        <time>2019-07-18T23:30:56Z</time>
      </trkpt>
      <trkpt lat="45.01207" lon="4.46049">
        <ele>661</ele>
        <time>2019-07-18T23:30:59Z</time>
      </trkpt>
      <trkpt lat="45.01212" lon="4.4602">
        <ele>660</ele>
        <time>2019-07-18T23:31:02Z</time>
      </trkpt>
      <trkpt lat="45.01208" lon="4.45963">
        <ele>664</ele>
        <time>2019-07-18T23:31:10Z</time>
      </trkpt>
      <trkpt lat="45.01212" lon="4.45896">
        <ele>676</ele>
        <time>2019-07-18T23:31:18Z</time>
      </trkpt>
      <trkpt lat="45.01209" lon="4.45879">
        <ele>678</ele>
        <time>2019-07-18T23:31:20Z</time>
      </trkpt>
      <trkpt lat="45.01202" lon="4.45872">
        <ele>680</ele>
        <time>2019-07-18T23:31:22Z</time>
      </trkpt>
      <trkpt lat="45.0119" lon="4.45873">
        <ele>680</ele>
        <time>2019-07-18T23:31:24Z</time>
      </trkpt>
      <trkpt lat="45.01183" lon="4.45887">
        <ele>677</ele>
        <time>2019-07-18T23:31:26Z</time>
      </trkpt>
      <trkpt lat="45.01173" lon="4.4597">
        <ele>655</ele>
        <time>2019-07-18T23:31:37Z</time>
      </trkpt>
      <trkpt lat="45.01169" lon="4.45986">
        <ele>648</ele>
        <time>2019-07-18T23:31:39Z</time>
      </trkpt>
      <trkpt lat="45.01163" lon="4.45991">
        <ele>646</ele>
        <time>2019-07-18T23:31:40Z</time>
      </trkpt>
      <trkpt lat="45.01122" lon="4.45978">
        <ele>655</ele>
        <time>2019-07-18T23:31:48Z</time>
      </trkpt>
      <trkpt lat="45.01096" lon="4.45977">
        <ele>658</ele>
        <time>2019-07-18T23:31:52Z</time>
      </trkpt>
      <trkpt lat="45.01049" lon="4.45982">
        <ele>657</ele>
        <time>2019-07-18T23:32:01Z</time>
      </trkpt>
      <trkpt lat="45.01027" lon="4.45982">
        <ele>658</ele>
        <time>2019-07-18T23:32:05Z</time>
      </trkpt>
      <trkpt lat="45.00996" lon="4.45962">
        <ele>664</ele>
        <time>2019-07-18T23:32:11Z</time>
      </trkpt>
      <trkpt lat="45.00957" lon="4.4596">
        <ele>665</ele>
        <time>2019-07-18T23:32:18Z</time>
      </trkpt>
      <trkpt lat="45.00949" lon="4.45953">
        <ele>667</ele>
        <time>2019-07-18T23:32:19Z</time>
      </trkpt>
      <trkpt lat="45.00937" lon="4.45901">
        <ele>680</ele>
        <time>2019-07-18T23:32:26Z</time>
      </trkpt>
      <trkpt lat="45.00926" lon="4.45885">
        <ele>683</ele>
        <time>2019-07-18T23:32:29Z</time>
      </trkpt>
      <trkpt lat="45.00915" lon="4.4589">
        <ele>682</ele>
        <time>2019-07-18T23:32:31Z</time>
      </trkpt>
      <trkpt lat="45.00907" lon="4.45929">
        <ele>675</ele>
        <time>2019-07-18T23:32:36Z</time>
      </trkpt>
      <trkpt lat="45.00882" lon="4.45987">
        <ele>674</ele>
        <time>2019-07-18T23:32:45Z</time>
      </trkpt>
      <trkpt lat="45.00865" lon="4.46003">
        <ele>678</ele>
        <time>2019-07-18T23:32:48Z</time>
      </trkpt>
      <trkpt lat="45.00828" lon="4.46027">
        <ele>685</ele>
        <time>2019-07-18T23:32:55Z</time>
      </trkpt>
      <trkpt lat="45.008" lon="4.46063">
        <ele>681</ele>
        <time>2019-07-18T23:33:02Z</time>
      </trkpt>
      <trkpt lat="45.00785" lon="4.46098">
        <ele>674</ele>
        <time>2019-07-18T23:33:07Z</time>
      </trkpt>
      <trkpt lat="45.00772" lon="4.46118">
        <ele>671</ele>
        <time>2019-07-18T23:33:11Z</time>
      </trkpt>
      <trkpt lat="45.00759" lon="4.46123">
        <ele>672</ele>
        <time>2019-07-18T23:33:13Z</time>
      </trkpt>
      <trkpt lat="45.00744" lon="4.46122">
        <ele>672</ele>
        <time>2019-07-18T23:33:16Z</time>
      </trkpt>
      <trkpt lat="45.00729" lon="4.46109">
        <ele>672</ele>
        <time>2019-07-18T23:33:19Z</time>
      </trkpt>
      <trkpt lat="45.00708" lon="4.46078">
        <ele>675</ele>
        <time>2019-07-18T23:33:24Z</time>
      </trkpt>
      <trkpt lat="45.00705" lon="4.46059">
        <ele>679</ele>
        <time>2019-07-18T23:33:27Z</time>
      </trkpt>
      <trkpt lat="45.00698" lon="4.46044">
        <ele>681</ele>
        <time>2019-07-18T23:33:29Z</time>
      </trkpt>
      <trkpt lat="45.00687" lon="4.46029">
        <ele>682</ele>
        <time>2019-07-18T23:33:32Z</time>
      </trkpt>
      <trkpt lat="45.0068" lon="4.46015">
        <ele>683</ele>
        <time>2019-07-18T23:33:34Z</time>
      </trkpt>
      <trkpt lat="45.00671" lon="4.45989">
        <ele>686</ele>
        <time>2019-07-18T23:33:38Z</time>
      </trkpt>
      <trkpt lat="45.00663" lon="4.45921">
        <ele>694</ele>
        <time>2019-07-18T23:33:46Z</time>
      </trkpt>
      <trkpt lat="45.00655" lon="4.45879">
        <ele>695</ele>
        <time>2019-07-18T23:33:52Z</time>
      </trkpt>
      <trkpt lat="45.00653" lon="4.45847">
        <ele>697</ele>
        <time>2019-07-18T23:33:56Z</time>
      </trkpt>
      <trkpt lat="45.00654" lon="4.45777">
        <ele>699</ele>
        <time>2019-07-18T23:34:05Z</time>
      </trkpt>
      <trkpt lat="45.00647" lon="4.45694">
        <ele>702</ele>
        <time>2019-07-18T23:34:15Z</time>
      </trkpt>
      <trkpt lat="45.00639" lon="4.4565">
        <ele>706</ele>
        <time>2019-07-18T23:34:21Z</time>
      </trkpt>
      <trkpt lat="45.0063" lon="4.4562">
        <ele>709</ele>
        <time>2019-07-18T23:34:25Z</time>
      </trkpt>
      <trkpt lat="45.00586" lon="4.45523">
        <ele>716</ele>
        <time>2019-07-18T23:34:39Z</time>
      </trkpt>
      <trkpt lat="45.00572" lon="4.45479">
        <ele>727</ele>
        <time>2019-07-18T23:34:46Z</time>
      </trkpt>
      <trkpt lat="45.00563" lon="4.45472">
        <ele>729</ele>
        <time>2019-07-18T23:34:47Z</time>
      </trkpt>
      <trkpt lat="45.00548" lon="4.45471">
        <ele>729</ele>
        <time>2019-07-18T23:34:50Z</time>
      </trkpt>
      <trkpt lat="45.00532" lon="4.45478">
        <ele>728</ele>
        <time>2019-07-18T23:34:53Z</time>
      </trkpt>
      <trkpt lat="45.00466" lon="4.4557">
        <ele>709</ele>
        <time>2019-07-18T23:35:09Z</time>
      </trkpt>
      <trkpt lat="45.00458" lon="4.45576">
        <ele>708</ele>
        <time>2019-07-18T23:35:11Z</time>
      </trkpt>
      <trkpt lat="45.00451" lon="4.45575">
        <ele>708</ele>
        <time>2019-07-18T23:35:12Z</time>
      </trkpt>
      <trkpt lat="45.00446" lon="4.45567">
        <ele>709</ele>
        <time>2019-07-18T23:35:14Z</time>
      </trkpt>
      <trkpt lat="45.00444" lon="4.45559">
        <ele>710</ele>
        <time>2019-07-18T23:35:15Z</time>
      </trkpt>
      <trkpt lat="45.00434" lon="4.45467">
        <ele>718</ele>
        <time>2019-07-18T23:35:26Z</time>
      </trkpt>
      <trkpt lat="45.00426" lon="4.45364">
        <ele>724</ele>
        <time>2019-07-18T23:35:39Z</time>
      </trkpt>
      <trkpt lat="45.00428" lon="4.45326">
        <ele>726</ele>
        <time>2019-07-18T23:35:44Z</time>
      </trkpt>
      <trkpt lat="45.00438" lon="4.45228">
        <ele>730</ele>
        <time>2019-07-18T23:35:57Z</time>
      </trkpt>
      <trkpt lat="45.00452" lon="4.45175">
        <ele>738</ele>
        <time>2019-07-18T23:36:04Z</time>
      </trkpt>
      <trkpt lat="45.00463" lon="4.45098">
        <ele>742</ele>
        <time>2019-07-18T23:36:14Z</time>
      </trkpt>
      <trkpt lat="45.00467" lon="4.45084">
        <ele>744</ele>
        <time>2019-07-18T23:36:16Z</time>
      </trkpt>
      <trkpt lat="45.00475" lon="4.4507">
        <ele>749</ele>
        <time>2019-07-18T23:36:18Z</time>
      </trkpt>
      <trkpt lat="45.00478" lon="4.45058">
        <ele>752</ele>
        <time>2019-07-18T23:36:20Z</time>
      </trkpt>
      <trkpt lat="45.00476" lon="4.4504">
        <ele>752</ele>
        <time>2019-07-18T23:36:22Z</time>
      </trkpt>
      <trkpt lat="45.00464" lon="4.44995">
        <ele>748</ele>
        <time>2019-07-18T23:36:28Z</time>
      </trkpt>
      <trkpt lat="45.00462" lon="4.44971">
        <ele>750</ele>
        <time>2019-07-18T23:36:31Z</time>
      </trkpt>
      <trkpt lat="45.00463" lon="4.44953">
        <ele>753</ele>
        <time>2019-07-18T23:36:33Z</time>
      </trkpt>
      <trkpt lat="45.00467" lon="4.44936">
        <ele>758</ele>
        <time>2019-07-18T23:36:35Z</time>
      </trkpt>
      <trkpt lat="45.00468" lon="4.44923">
        <ele>760</ele>
        <time>2019-07-18T23:36:37Z</time>
      </trkpt>
      <trkpt lat="45.00465" lon="4.44913">
        <ele>761</ele>
        <time>2019-07-18T23:36:38Z</time>
      </trkpt>
      <trkpt lat="45.00438" lon="4.44886">
        <ele>756</ele>
        <time>2019-07-18T23:36:44Z</time>
      </trkpt>
      <trkpt lat="45.00423" lon="4.44852">
        <ele>759</ele>
        <time>2019-07-18T23:36:49Z</time>
      </trkpt>
      <trkpt lat="45.00413" lon="4.44826">
        <ele>762</ele>
        <time>2019-07-18T23:36:53Z</time>
      </trkpt>
      <trkpt lat="45.00396" lon="4.44757">
        <ele>766</ele>
        <time>2019-07-18T23:37:02Z</time>
      </trkpt>
      <trkpt lat="45.00388" lon="4.44714">
        <ele>769</ele>
        <time>2019-07-18T23:37:08Z</time>
      </trkpt>
      <trkpt lat="45.0037" lon="4.44653">
        <ele>766</ele>
        <time>2019-07-18T23:37:16Z</time>
      </trkpt>
      <trkpt lat="45.00362" lon="4.44575">
        <ele>769</ele>
        <time>2019-07-18T23:37:26Z</time>
      </trkpt>
      <trkpt lat="45.00364" lon="4.44519">
        <ele>767</ele>
        <time>2019-07-18T23:37:33Z</time>
      </trkpt>
      <trkpt lat="45.00377" lon="4.44481">
        <ele>770</ele>
        <time>2019-07-18T23:37:38Z</time>
      </trkpt>
      <trkpt lat="45.00401" lon="4.44443">
        <ele>775</ele>
        <time>2019-07-18T23:37:45Z</time>
      </trkpt>
      <trkpt lat="45.00421" lon="4.44429">
        <ele>782</ele>
        <time>2019-07-18T23:37:49Z</time>
      </trkpt>
      <trkpt lat="45.00478" lon="4.44432">
        <ele>803</ele>
        <time>2019-07-18T23:37:59Z</time>
      </trkpt>
      <trkpt lat="45.00484" lon="4.4443">
        <ele>805</ele>
        <time>2019-07-18T23:38:00Z</time>
      </trkpt>
      <trkpt lat="45.00488" lon="4.4442">
        <ele>805</ele>
        <time>2019-07-18T23:38:02Z</time>
      </trkpt>
      <trkpt lat="45.00487" lon="4.44408">
        <ele>806</ele>
        <time>2019-07-18T23:38:03Z</time>
      </trkpt>
      <trkpt lat="45.00482" lon="4.44395">
        <ele>806</ele>
        <time>2019-07-18T23:38:05Z</time>
      </trkpt>
      <trkpt lat="45.00469" lon="4.44382">
        <ele>804</ele>
        <time>2019-07-18T23:38:08Z</time>
      </trkpt>
      <trkpt lat="45.00426" lon="4.44327">
        <ele>795</ele>
        <time>2019-07-18T23:38:18Z</time>
      </trkpt>
      <trkpt lat="45.00399" lon="4.44308">
        <ele>787</ele>
        <time>2019-07-18T23:38:23Z</time>
      </trkpt>
      <trkpt lat="45.00388" lon="4.44296">
        <ele>784</ele>
        <time>2019-07-18T23:38:26Z</time>
      </trkpt>
      <trkpt lat="45.00384" lon="4.44282">
        <ele>785</ele>
        <time>2019-07-18T23:38:28Z</time>
      </trkpt>
      <trkpt lat="45.00381" lon="4.44248">
        <ele>790</ele>
        <time>2019-07-18T23:38:32Z</time>
      </trkpt>
      <trkpt lat="45.00372" lon="4.44194">
        <ele>795</ele>
        <time>2019-07-18T23:38:39Z</time>
      </trkpt>
      <trkpt lat="45.00355" lon="4.44114">
        <ele>794</ele>
        <time>2019-07-18T23:38:50Z</time>
      </trkpt>
      <trkpt lat="45.00353" lon="4.44063">
        <ele>794</ele>
        <time>2019-07-18T23:38:56Z</time>
      </trkpt>
      <trkpt lat="45.00354" lon="4.44046">
        <ele>794</ele>
        <time>2019-07-18T23:38:58Z</time>
      </trkpt>
      <trkpt lat="45.00358" lon="4.44035">
        <ele>795</ele>
        <time>2019-07-18T23:39:00Z</time>
      </trkpt>
      <trkpt lat="45.00394" lon="4.44004">
        <ele>806</ele>
        <time>2019-07-18T23:39:07Z</time>
      </trkpt>
      <trkpt lat="45.0041" lon="4.43992">
        <ele>811</ele>
        <time>2019-07-18T23:39:10Z</time>
      </trkpt>
      <trkpt lat="45.00438" lon="4.43988">
        <ele>821</ele>
        <time>2019-07-18T23:39:15Z</time>
      </trkpt>
      <trkpt lat="45.00444" lon="4.43985">
        <ele>823</ele>
        <time>2019-07-18T23:39:17Z</time>
      </trkpt>
      <trkpt lat="45.00448" lon="4.43977">
        <ele>824</ele>
        <time>2019-07-18T23:39:18Z</time>
      </trkpt>
      <trkpt lat="45.0045" lon="4.43972">
        <ele>824</ele>
        <time>2019-07-18T23:39:19Z</time>
      </trkpt>
      <trkpt lat="45.00451" lon="4.43963">
        <ele>824</ele>
        <time>2019-07-18T23:39:20Z</time>
      </trkpt>
      <trkpt lat="45.00443" lon="4.43936">
        <ele>818</ele>
        <time>2019-07-18T23:39:23Z</time>
      </trkpt>
      <trkpt lat="45.00442" lon="4.43923">
        <ele>817</ele>
        <time>2019-07-18T23:39:25Z</time>
      </trkpt>
      <trkpt lat="45.00445" lon="4.43905">
        <ele>818</ele>
        <time>2019-07-18T23:39:27Z</time>
      </trkpt>
      <trkpt lat="45.00453" lon="4.43888">
        <ele>821</ele>
        <time>2019-07-18T23:39:30Z</time>
      </trkpt>
      <trkpt lat="45.00463" lon="4.4387">
        <ele>825</ele>
        <time>2019-07-18T23:39:33Z</time>
      </trkpt>
      <trkpt lat="45.00465" lon="4.43842">
        <ele>827</ele>
        <time>2019-07-18T23:39:36Z</time>
      </trkpt>
      <trkpt lat="45.00472" lon="4.43819">
        <ele>831</ele>
        <time>2019-07-18T23:39:39Z</time>
      </trkpt>
      <trkpt lat="45.00472" lon="4.4381">
        <ele>832</ele>
        <time>2019-07-18T23:39:41Z</time>
      </trkpt>
      <trkpt lat="45.00469" lon="4.43799">
        <ele>833</ele>
        <time>2019-07-18T23:39:42Z</time>
      </trkpt>
      <trkpt lat="45.00464" lon="4.43796">
        <ele>832</ele>
        <time>2019-07-18T23:39:43Z</time>
      </trkpt>
      <trkpt lat="45.00444" lon="4.43793">
        <ele>828</ele>
        <time>2019-07-18T23:39:47Z</time>
      </trkpt>
      <trkpt lat="45.00426" lon="4.43773">
        <ele>828</ele>
        <time>2019-07-18T23:39:51Z</time>
      </trkpt>
      <trkpt lat="45.00406" lon="4.43762">
        <ele>825</ele>
        <time>2019-07-18T23:39:55Z</time>
      </trkpt>
      <trkpt lat="45.0039" lon="4.43733">
        <ele>822</ele>
        <time>2019-07-18T23:39:59Z</time>
      </trkpt>
      <trkpt lat="45.00389" lon="4.43713">
        <ele>824</ele>
        <time>2019-07-18T23:40:02Z</time>
      </trkpt>
      <trkpt lat="45.00375" lon="4.43616">
        <ele>822</ele>
        <time>2019-07-18T23:40:14Z</time>
      </trkpt>
      <trkpt lat="45.00375" lon="4.43598">
        <ele>822</ele>
        <time>2019-07-18T23:40:16Z</time>
      </trkpt>
      <trkpt lat="45.00389" lon="4.43539">
        <ele>828</ele>
        <time>2019-07-18T23:40:24Z</time>
      </trkpt>
      <trkpt lat="45.00391" lon="4.43521">
        <ele>828</ele>
        <time>2019-07-18T23:40:27Z</time>
      </trkpt>
      <trkpt lat="45.00386" lon="4.43485">
        <ele>824</ele>
        <time>2019-07-18T23:40:31Z</time>
      </trkpt>
      <trkpt lat="45.00387" lon="4.4347">
        <ele>823</ele>
        <time>2019-07-18T23:40:33Z</time>
      </trkpt>
      <trkpt lat="45.00391" lon="4.43457">
        <ele>824</ele>
        <time>2019-07-18T23:40:35Z</time>
      </trkpt>
      <trkpt lat="45.00406" lon="4.43441">
        <ele>829</ele>
        <time>2019-07-18T23:40:38Z</time>
      </trkpt>
      <trkpt lat="45.00423" lon="4.43403">
        <ele>831</ele>
        <time>2019-07-18T23:40:44Z</time>
      </trkpt>
      <trkpt lat="45.00428" lon="4.43397">
        <ele>832</ele>
        <time>2019-07-18T23:40:45Z</time>
      </trkpt>
      <trkpt lat="45.00468" lon="4.43387">
        <ele>842</ele>
        <time>2019-07-18T23:40:52Z</time>
      </trkpt>
      <trkpt lat="45.00486" lon="4.43379">
        <ele>846</ele>
        <time>2019-07-18T23:40:56Z</time>
      </trkpt>
      <trkpt lat="45.00504" lon="4.43368">
        <ele>850</ele>
        <time>2019-07-18T23:40:59Z</time>
      </trkpt>
      <trkpt lat="45.00535" lon="4.43342">
        <ele>855</ele>
        <time>2019-07-18T23:41:05Z</time>
      </trkpt>
      <trkpt lat="45.00557" lon="4.43329">
        <ele>860</ele>
        <time>2019-07-18T23:41:10Z</time>
      </trkpt>
      <trkpt lat="45.00564" lon="4.43319">
        <ele>863</ele>
        <time>2019-07-18T23:41:11Z</time>
      </trkpt>
      <trkpt lat="45.00566" lon="4.43304">
        <ele>865</ele>
        <time>2019-07-18T23:41:13Z</time>
      </trkpt>
      <trkpt lat="45.00557" lon="4.43272">
        <ele>864</ele>
        <time>2019-07-18T23:41:18Z</time>
      </trkpt>
      <trkpt lat="45.00556" lon="4.43254">
        <ele>865</ele>
        <time>2019-07-18T23:41:20Z</time>
      </trkpt>
      <trkpt lat="45.00563" lon="4.43232">
        <ele>873</ele>
        <time>2019-07-18T23:41:23Z</time>
      </trkpt>
      <trkpt lat="45.00563" lon="4.43216">
        <ele>877</ele>
        <time>2019-07-18T23:41:25Z</time>
      </trkpt>
      <trkpt lat="45.00556" lon="4.43203">
        <ele>879</ele>
        <time>2019-07-18T23:41:27Z</time>
      </trkpt>
      <trkpt lat="45.0055" lon="4.43199">
        <ele>878</ele>
        <time>2019-07-18T23:41:28Z</time>
      </trkpt>
      <trkpt lat="45.00535" lon="4.432">
        <ele>874</ele>
        <time>2019-07-18T23:41:31Z</time>
      </trkpt>
      <trkpt lat="45.00508" lon="4.43212">
        <ele>864</ele>
        <time>2019-07-18T23:41:36Z</time>
      </trkpt>
      <trkpt lat="45.00499" lon="4.43207">
        <ele>863</ele>
        <time>2019-07-18T23:41:38Z</time>
      </trkpt>
      <trkpt lat="45.00474" lon="4.43189">
        <ele>864</ele>
        <time>2019-07-18T23:41:43Z</time>
      </trkpt>
      <trkpt lat="45.00457" lon="4.4318">
        <ele>864</ele>
        <time>2019-07-18T23:41:46Z</time>
      </trkpt>
      <trkpt lat="45.00449" lon="4.43172">
        <ele>866</ele>
        <time>2019-07-18T23:41:48Z</time>
      </trkpt>
      <trkpt lat="45.00429" lon="4.43142">
        <ele>875</ele>
        <time>2019-07-18T23:41:53Z</time>
      </trkpt>
      <trkpt lat="45.0042" lon="4.43136">
        <ele>876</ele>
        <time>2019-07-18T23:41:55Z</time>
      </trkpt>
      <trkpt lat="45.00374" lon="4.43113">
        <ele>875</ele>
        <time>2019-07-18T23:42:03Z</time>
      </trkpt>
      <trkpt lat="45.00353" lon="4.43096">
        <ele>877</ele>
        <time>2019-07-18T23:42:08Z</time>
      </trkpt>
      <trkpt lat="45.0034" lon="4.43077">
        <ele>881</ele>
        <time>2019-07-18T23:42:11Z</time>
      </trkpt>
      <trkpt lat="45.00317" lon="4.43064">
        <ele>876</ele>
        <time>2019-07-18T23:42:15Z</time>
      </trkpt>
      <trkpt lat="45.00274" lon="4.43025">
        <ele>870</ele>
        <time>2019-07-18T23:42:24Z</time>
      </trkpt>
      <trkpt lat="45.00263" lon="4.42996">
        <ele>874</ele>
        <time>2019-07-18T23:42:29Z</time>
      </trkpt>
      <trkpt lat="45.0025" lon="4.42915">
        <ele>885</ele>
        <time>2019-07-18T23:42:39Z</time>
      </trkpt>
      <trkpt lat="45.00251" lon="4.42901">
        <ele>887</ele>
        <time>2019-07-18T23:42:41Z</time>
      </trkpt>
      <trkpt lat="45.00255" lon="4.42877">
        <ele>890</ele>
        <time>2019-07-18T23:42:44Z</time>
      </trkpt>
      <trkpt lat="45.00264" lon="4.42778">
        <ele>900</ele>
        <time>2019-07-18T23:42:56Z</time>
      </trkpt>
      <trkpt lat="45.00257" lon="4.42727">
        <ele>897</ele>
        <time>2019-07-18T23:43:03Z</time>
      </trkpt>
      <trkpt lat="45.00251" lon="4.427">
        <ele>894</ele>
        <time>2019-07-18T23:43:07Z</time>
      </trkpt>
      <trkpt lat="45.00255" lon="4.42692">
        <ele>896</ele>
        <time>2019-07-18T23:43:08Z</time>
      </trkpt>
      <trkpt lat="45.00274" lon="4.4266">
        <ele>907</ele>
        <time>2019-07-18T23:43:13Z</time>
      </trkpt>
      <trkpt lat="45.0028" lon="4.42637">
        <ele>913</ele>
        <time>2019-07-18T23:43:16Z</time>
      </trkpt>
      <trkpt lat="45.00263" lon="4.42606">
        <ele>910</ele>
        <time>2019-07-18T23:43:21Z</time>
      </trkpt>
      <trkpt lat="45.00237" lon="4.42567">
        <ele>905</ele>
        <time>2019-07-18T23:43:28Z</time>
      </trkpt>
      <trkpt lat="45.00219" lon="4.42547">
        <ele>900</ele>
        <time>2019-07-18T23:43:32Z</time>
      </trkpt>
      <trkpt lat="45.00209" lon="4.42523">
        <ele>900</ele>
        <time>2019-07-18T23:43:35Z</time>
      </trkpt>
      <trkpt lat="45.00203" lon="4.42473">
        <ele>905</ele>
        <time>2019-07-18T23:43:42Z</time>
      </trkpt>
      <trkpt lat="45.00202" lon="4.42414">
        <ele>914</ele>
        <time>2019-07-18T23:43:49Z</time>
      </trkpt>
      <trkpt lat="45.00175" lon="4.42235">
        <ele>920</ele>
        <time>2019-07-18T23:44:12Z</time>
      </trkpt>
      <trkpt lat="45.00154" lon="4.42134">
        <ele>928</ele>
        <time>2019-07-18T23:44:25Z</time>
      </trkpt>
      <trkpt lat="45.00129" lon="4.42114">
        <ele>920</ele>
        <time>2019-07-18T23:44:31Z</time>
      </trkpt>
      <trkpt lat="45.00124" lon="4.42105">
        <ele>920</ele>
        <time>2019-07-18T23:44:32Z</time>
      </trkpt>
      <trkpt lat="45.00119" lon="4.42079">
        <ele>924</ele>
        <time>2019-07-18T23:44:35Z</time>
      </trkpt>
      <trkpt lat="45.00093" lon="4.41997">
        <ele>931</ele>
        <time>2019-07-18T23:44:47Z</time>
      </trkpt>
      <trkpt lat="45.00085" lon="4.41962">
        <ele>931</ele>
        <time>2019-07-18T23:44:51Z</time>
      </trkpt>
      <trkpt lat="45.00081" lon="4.41911">
        <ele>935</ele>
        <time>2019-07-18T23:44:58Z</time>
      </trkpt>
      <trkpt lat="45.00069" lon="4.41833">
        <ele>940</ele>
        <time>2019-07-18T23:45:08Z</time>
      </trkpt>
      <trkpt lat="45.00071" lon="4.41788">
        <ele>939</ele>
        <time>2019-07-18T23:45:14Z</time>
      </trkpt>
      <trkpt lat="45.00076" lon="4.41765">
        <ele>940</ele>
        <time>2019-07-18T23:45:17Z</time>
      </trkpt>
      <trkpt lat="45.00112" lon="4.41706">
        <ele>941</ele>
        <time>2019-07-18T23:45:26Z</time>
      </trkpt>
      <trkpt lat="45.00125" lon="4.41695">
        <ele>941</ele>
        <time>2019-07-18T23:45:29Z</time>
      </trkpt>
      <trkpt lat="45.00139" lon="4.41688">
        <ele>942</ele>
        <time>2019-07-18T23:45:32Z</time>
      </trkpt>
      <trkpt lat="45.00154" lon="4.41692">
        <ele>947</ele>
        <time>2019-07-18T23:45:34Z</time>
      </trkpt>
      <trkpt lat="45.00205" lon="4.41734">
        <ele>962</ele>
        <time>2019-07-18T23:45:45Z</time>
      </trkpt>
      <trkpt lat="45.00262" lon="4.41776">
        <ele>973</ele>
        <time>2019-07-18T23:45:56Z</time>
      </trkpt>
      <trkpt lat="45.00289" lon="4.41782">
        <ele>979</ele>
        <time>2019-07-18T23:46:01Z</time>
      </trkpt>
      <trkpt lat="45.00295" lon="4.41775">
        <ele>978</ele>
        <time>2019-07-18T23:46:03Z</time>
      </trkpt>
      <trkpt lat="45.00296" lon="4.41764">
        <ele>976</ele>
        <time>2019-07-18T23:46:04Z</time>
      </trkpt>
      <trkpt lat="45.00293" lon="4.41749">
        <ele>972</ele>
        <time>2019-07-18T23:46:06Z</time>
      </trkpt>
      <trkpt lat="45.00215" lon="4.41563">
        <ele>974</ele>
        <time>2019-07-18T23:46:33Z</time>
      </trkpt>
      <trkpt lat="45.00206" lon="4.41548">
        <ele>976</ele>
        <time>2019-07-18T23:46:36Z</time>
      </trkpt>
      <trkpt lat="45.00158" lon="4.41508">
        <ele>978</ele>
        <time>2019-07-18T23:46:46Z</time>
      </trkpt>
      <trkpt lat="45.00104" lon="4.41499">
        <ele>969</ele>
        <time>2019-07-18T23:46:55Z</time>
      </trkpt>
      <trkpt lat="45.0008" lon="4.41484">
        <ele>965</ele>
        <time>2019-07-18T23:47:00Z</time>
      </trkpt>
      <trkpt lat="45.00076" lon="4.41454">
        <ele>969</ele>
        <time>2019-07-18T23:47:04Z</time>
      </trkpt>
      <trkpt lat="45.00081" lon="4.41435">
        <ele>974</ele>
        <time>2019-07-18T23:47:06Z</time>
      </trkpt>
      <trkpt lat="45.00116" lon="4.41325">
        <ele>985</ele>
        <time>2019-07-18T23:47:21Z</time>
      </trkpt>
      <trkpt lat="45.00127" lon="4.41279">
        <ele>985</ele>
        <time>2019-07-18T23:47:28Z</time>
      </trkpt>
      <trkpt lat="45.00134" lon="4.41257">
        <ele>985</ele>
        <time>2019-07-18T23:47:31Z</time>
      </trkpt>
      <trkpt lat="45.00165" lon="4.4122">
        <ele>995</ele>
        <time>2019-07-18T23:47:38Z</time>
      </trkpt>
      <trkpt lat="45.00174" lon="4.41196">
        <ele>995</ele>
        <time>2019-07-18T23:47:41Z</time>
      </trkpt>
      <trkpt lat="45.00189" lon="4.41146">
        <ele>996</ele>
        <time>2019-07-18T23:47:48Z</time>
      </trkpt>
      <trkpt lat="45.0022" lon="4.41104">
        <ele>1004</ele>
        <time>2019-07-18T23:47:56Z</time>
      </trkpt>
      <trkpt lat="45.00244" lon="4.41032">
        <ele>1004</ele>
        <time>2019-07-18T23:48:06Z</time>
      </trkpt>
      <trkpt lat="45.00259" lon="4.41009">
        <ele>1003</ele>
        <time>2019-07-18T23:48:10Z</time>
      </trkpt>
      <trkpt lat="45.00284" lon="4.41001">
        <ele>1005</ele>
        <time>2019-07-18T23:48:14Z</time>
      </trkpt>
      <trkpt lat="45.00296" lon="4.40994">
        <ele>1007</ele>
        <time>2019-07-18T23:48:17Z</time>
      </trkpt>
      <trkpt lat="45.00294" lon="4.4099">
        <ele>1007</ele>
        <time>2019-07-18T23:48:17Z</time>
      </trkpt>
      <trkpt lat="45.0029" lon="4.40991">
        <ele>1007</ele>
        <time>2019-07-18T23:48:18Z</time>
      </trkpt>
      <trkpt lat="45.00294" lon="4.4099">
        <ele>1007</ele>
        <time>2019-07-18T23:48:19Z</time>
      </trkpt>
      <trkpt lat="45.00296" lon="4.40994">
        <ele>1007</ele>
        <time>2019-07-18T23:48:19Z</time>
      </trkpt>
      <trkpt lat="45.00301" lon="4.40991">
        <ele>1008</ele>
        <time>2019-07-18T23:48:20Z</time>
      </trkpt>
      <trkpt lat="45.00309" lon="4.40981">
        <ele>1010</ele>
        <time>2019-07-18T23:48:22Z</time>
      </trkpt>
      <trkpt lat="45.00312" lon="4.40976">
        <ele>1011</ele>
        <time>2019-07-18T23:48:23Z</time>
      </trkpt>
      <trkpt lat="45.00312" lon="4.40967">
        <ele>1013</ele>
        <time>2019-07-18T23:48:24Z</time>
      </trkpt>
      <trkpt lat="45.00306" lon="4.40947">
        <ele>1015</ele>
        <time>2019-07-18T23:48:27Z</time>
      </trkpt>
      <trkpt lat="45.00297" lon="4.40936">
        <ele>1017</ele>
        <time>2019-07-18T23:48:29Z</time>
      </trkpt>
      <trkpt lat="45.00279" lon="4.40923">
        <ele>1018</ele>
        <time>2019-07-18T23:48:32Z</time>
      </trkpt>
      <trkpt lat="45.00259" lon="4.40917">
        <ele>1018</ele>
        <time>2019-07-18T23:48:36Z</time>
      </trkpt>
      <trkpt lat="45.0024" lon="4.40917">
        <ele>1019</ele>
        <time>2019-07-18T23:48:39Z</time>
      </trkpt>
      <trkpt lat="45.00217" lon="4.40925">
        <ele>1020</ele>
        <time>2019-07-18T23:48:44Z</time>
      </trkpt>
      <trkpt lat="45.00212" lon="4.40924">
        <ele>1021</ele>
        <time>2019-07-18T23:48:45Z</time>
      </trkpt>
      <trkpt lat="45.00233" lon="4.4091">
        <ele>1022</ele>
        <time>2019-07-18T23:48:49Z</time>
      </trkpt>
      <trkpt lat="45.00264" lon="4.40907">
        <ele>1021</ele>
        <time>2019-07-18T23:48:54Z</time>
      </trkpt>
      <trkpt lat="45.00281" lon="4.40909">
        <ele>1021</ele>
        <time>2019-07-18T23:48:57Z</time>
      </trkpt>
      <trkpt lat="45.00342" lon="4.40942">
        <ele>1017</ele>
        <time>2019-07-18T23:49:09Z</time>
      </trkpt>
      <trkpt lat="45.00352" lon="4.4094">
        <ele>1017</ele>
        <time>2019-07-18T23:49:11Z</time>
      </trkpt>
      <trkpt lat="45.00364" lon="4.40933">
        <ele>1017</ele>
        <time>2019-07-18T23:49:13Z</time>
      </trkpt>
      <trkpt lat="45.00381" lon="4.40904">
        <ele>1020</ele>
        <time>2019-07-18T23:49:18Z</time>
      </trkpt>
      <trkpt lat="45.00399" lon="4.40856">
        <ele>1025</ele>
        <time>2019-07-18T23:49:25Z</time>
      </trkpt>
      <trkpt lat="45.00421" lon="4.4076">
        <ele>1034</ele>
        <time>2019-07-18T23:49:37Z</time>
      </trkpt>
      <trkpt lat="45.0043" lon="4.40713">
        <ele>1037</ele>
        <time>2019-07-18T23:49:43Z</time>
      </trkpt>
      <trkpt lat="45.00431" lon="4.40679">
        <ele>1038</ele>
        <time>2019-07-18T23:49:48Z</time>
      </trkpt>
      <trkpt lat="45.00428" lon="4.40649">
        <ele>1039</ele>
        <time>2019-07-18T23:49:52Z</time>
      </trkpt>
      <trkpt lat="45.00417" lon="4.40611">
        <ele>1038</ele>
        <time>2019-07-18T23:49:57Z</time>
      </trkpt>
      <trkpt lat="45.00409" lon="4.40581">
        <ele>1039</ele>
        <time>2019-07-18T23:50:01Z</time>
      </trkpt>
      <trkpt lat="45.0041" lon="4.4053">
        <ele>1038</ele>
        <time>2019-07-18T23:50:07Z</time>
      </trkpt>
      <trkpt lat="45.00422" lon="4.40495">
        <ele>1038</ele>
        <time>2019-07-18T23:50:12Z</time>
      </trkpt>
      <trkpt lat="45.00477" lon="4.40429">
        <ele>1037</ele>
        <time>2019-07-18T23:50:25Z</time>
      </trkpt>
      <trkpt lat="45.00586" lon="4.40306">
        <ele>1041</ele>
        <time>2019-07-18T23:50:50Z</time>
      </trkpt>
      <trkpt lat="45.00604" lon="4.40264">
        <ele>1042</ele>
        <time>2019-07-18T23:50:56Z</time>
      </trkpt>
      <trkpt lat="45.00611" lon="4.40267">
        <ele>1043</ele>
        <time>2019-07-18T23:50:57Z</time>
      </trkpt>
      <trkpt lat="45.00617" lon="4.40266">
        <ele>1043</ele>
        <time>2019-07-18T23:50:58Z</time>
      </trkpt>
      <trkpt lat="45.00623" lon="4.40263">
        <ele>1043</ele>
        <time>2019-07-18T23:50:59Z</time>
      </trkpt>
      <trkpt lat="45.00627" lon="4.40257">
        <ele>1044</ele>
        <time>2019-07-18T23:51:00Z</time>
      </trkpt>
      <trkpt lat="45.0063" lon="4.40249">
        <ele>1044</ele>
        <time>2019-07-18T23:51:02Z</time>
      </trkpt>
      <trkpt lat="45.00631" lon="4.4024">
        <ele>1044</ele>
        <time>2019-07-18T23:51:03Z</time>
      </trkpt>
      <trkpt lat="45.0063" lon="4.40231">
        <ele>1043</ele>
        <time>2019-07-18T23:51:04Z</time>
      </trkpt>
      <trkpt lat="45.00661" lon="4.40216">
        <ele>1045</ele>
        <time>2019-07-18T23:51:10Z</time>
      </trkpt>
      <trkpt lat="45.00774" lon="4.40092">
        <ele>1053</ele>
        <time>2019-07-18T23:51:35Z</time>
      </trkpt>
      <trkpt lat="45.00791" lon="4.40069">
        <ele>1054</ele>
        <time>2019-07-18T23:51:39Z</time>
      </trkpt>
      <trkpt lat="45.00909" lon="4.39875">
        <ele>1064</ele>
        <time>2019-07-18T23:52:11Z</time>
      </trkpt>
      <trkpt lat="45.00913" lon="4.39875">
        <ele>1064</ele>
        <time>2019-07-18T23:52:12Z</time>
      </trkpt>
      <trkpt lat="45.00942" lon="4.39857">
        <ele>1068</ele>
        <time>2019-07-18T23:52:18Z</time>
      </trkpt>
      <trkpt lat="45.00961" lon="4.39865">
        <ele>1068</ele>
        <time>2019-07-18T23:52:21Z</time>
      </trkpt>
      <trkpt lat="45.01027" lon="4.39908">
        <ele>1070</ele>
        <time>2019-07-18T23:52:34Z</time>
      </trkpt>
      <trkpt lat="45.01036" lon="4.39916">
        <ele>1071</ele>
        <time>2019-07-18T23:52:36Z</time>
      </trkpt>
      <trkpt lat="45.01047" lon="4.3992">
        <ele>1072</ele>
        <time>2019-07-18T23:52:38Z</time>
      </trkpt>
      <trkpt lat="45.01149" lon="4.39909">
        <ele>1078</ele>
        <time>2019-07-18T23:52:56Z</time>
      </trkpt>
      <trkpt lat="45.01237" lon="4.39881">
        <ele>1079</ele>
        <time>2019-07-18T23:53:12Z</time>
      </trkpt>
      <trkpt lat="45.01379" lon="4.39841">
        <ele>1081</ele>
        <time>2019-07-18T23:53:38Z</time>
      </trkpt>
      <trkpt lat="45.01419" lon="4.3984">
        <ele>1082</ele>
        <time>2019-07-18T23:53:45Z</time>
      </trkpt>
      <trkpt lat="45.01446" lon="4.39844">
        <ele>1083</ele>
        <time>2019-07-18T23:53:50Z</time>
      </trkpt>
      <trkpt lat="45.01463" lon="4.39852">
        <ele>1084</ele>
        <time>2019-07-18T23:53:53Z</time>
      </trkpt>
      <trkpt lat="45.01457" lon="4.39867">
        <ele>1083</ele>
        <time>2019-07-18T23:53:56Z</time>
      </trkpt>
      <trkpt lat="45.01454" lon="4.39888">
        <ele>1083</ele>
        <time>2019-07-18T23:53:58Z</time>
      </trkpt>
      <trkpt lat="45.01456" lon="4.3991">
        <ele>1082</ele>
        <time>2019-07-18T23:54:01Z</time>
      </trkpt>
      <trkpt lat="45.01465" lon="4.39948">
        <ele>1082</ele>
        <time>2019-07-18T23:54:06Z</time>
      </trkpt>
    </trkseg>
  </trk>
</gpx>